[[{"header":{"parameterUnit":"m.s-1","parameterCategory":1,"la1":31.0,"la2":29.5877,"lo1":-88.7671,"lo2":-86.6584,"dx":0.0162,"dy":0.0185,"nx":115,"ny":88,"refTime":"2022-12-10T18:00:00:Z","depth":0,"parameterNumber":2,"parameterNumberName":"U-component_of_WINDS"},"data":[0.0,0.0,0.0,0.0,0.0,0.0,0.0,0.0,0.0,0.0,0.0,0.0,0.0,0.0,0.0,0.0,0.0,0.0,0.0,0.0,0.0,0.0,0.0,0.0,0.0,0.0,0.0,0.0,0.0,0.0,0.0,0.0,0.0,0.0,0.0,0.0,0.0,0.0,0.0,0.0,0.0,0.0,0.0,0.0,0.0,0.0,0.0,0.0,0.0,0.0,0.0,0.0,0.0,0.0,0.0,0.0,0.0,0.0,0.0,0.0,0.0,0.0,0.0,0.0,0.0,0.0,0.0,0.0,0.0,0.0,0.0,0.0,0.0,0.0,0.0,0.0,0.0,0.0,0.0,0.0,0.0,0.0,0.0,0.0,0.0,0.0,0.0,0.0,0.0,0.0,0.0,0.0,0.0,0.0,0.0,0.0,0.0,0.0,0.0,0.0,0.0,0.0,0.0,0.0,0.0,0.0,0.0,0.0,0.0,0.0,0.0,0.0,0.0,0.0,0.0,0.0,0.0,0.0,0.0,0.0,0.0,0.0,0.0,0.0,0.0,0.0,0.0,0.0,0.0,0.0,0.0,0.0,0.0,0.0,0.0,0.0,0.0,0.0,0.0,0.0,0.0,0.0,0.0,0.0,0.0,0.0,0.0,0.0,0.0,0.0,0.0,0.0,0.0,0.0,0.0,0.0,0.0,0.0,0.0,0.0,0.0,0.0,0.0,0.0,0.0,0.0,0.0,0.0,0.0,0.0,0.0,0.0,0.0,0.0,0.0,0.0,0.0,0.0,0.0,0.0,0.0,0.0,0.0,0.0,0.0,0.0,0.0,0.0,0.0,0.0,0.0,0.0,0.0,0.0,0.0,0.0,0.0,0.0,0.0,0.0,0.0,0.0,0.0,0.0,0.0,0.0,0.0,0.0,0.0,0.0,0.0,0.0,0.0,0.0,0.0,0.0,0.0,0.0,0.0,0.0,0.0,0.0,0.0,0.0,0.0,0.0,0.0,0.0,0.0,0.0,0.0,0.0,0.0,0.0,0.0,0.0,0.0,0.0,0.0,0.0,0.0,0.0,0.0,0.0,0.0,0.0,0.0,0.0,0.0,0.0,0.0,0.0,0.0,0.0,0.0,0.0,0.0,0.0,0.0,0.0,0.0,0.0,0.0,0.0,0.0,0.0,0.0,0.0,0.0,0.0,0.0,0.0,0.0,0.0,0.0,0.0,0.0,0.0,0.0,0.0,0.0,0.0,0.0,0.0,0.0,0.0,0.0,0.0,0.0,0.0,0.0,0.0,0.0,0.0,0.0,0.0,0.0,0.0,0.0,0.0,0.0,0.0,0.0,0.0,0.0,0.0,0.0,0.0,0.0,0.0,0.0,0.0,0.0,0.0,0.0,0.0,0.0,0.0,0.0,0.0,0.0,0.0,0.0,0.0,0.0,0.0,0.0,0.0,0.0,0.0,0.0,0.0,0.0,0.0,0.0,0.0,0.0,0.0,0.0,0.0,0.0,0.0,0.0,0.0,0.0,0.0,0.0,0.0,0.0,0.0,0.0,0.0,0.0,0.0,0.0,0.0,0.0,0.0,0.0,0.0,0.0,0.0,0.0,0.0,0.0,0.0,0.0,0.0,0.0,0.0,0.0,0.0,0.0,0.0,0.0,0.0,0.0,0.0,0.0,0.0,0.0,0.0,0.0,0.0,0.0,0.0,0.0,0.0,0.0,0.0,0.0,0.0,0.0,0.0,0.0,0.0,0.0,0.0,0.0,0.0,0.0,0.0,0.0,0.0,0.0,0.0,0.0,0.0,0.0,0.0,0.0,0.0,0.0,0.0,0.0,0.0,0.0,0.0,0.0,0.0,0.0,0.0,0.0,0.0,0.0,0.0,0.0,0.0,0.0,0.0,0.0,0.0,0.0,0.0,0.0,0.0,0.0,0.0,0.0,0.0,0.0,0.0,0.0,0.0,0.0,0.0,0.0,0.0,0.0,0.0,0.0,0.0,0.0,0.0,0.0,0.0,0.0,0.0,0.0,0.0,0.0,0.0,0.0,0.0,0.0,0.0,0.0,0.0,0.0,0.0,0.0,0.0,0.0,0.0,0.0,0.0,0.0,0.0,0.0,0.0,0.0,0.0,0.0,0.0,0.0,0.0,0.0,0.0,0.0,0.0,0.0,0.0,0.0,0.0,0.0,0.0,0.0,0.0,0.0,0.0,0.0,0.0,0.0,0.0,0.0,0.0,0.0,0.0,0.0,0.0,0.0,0.0,0.0,0.0,0.0,0.0,0.0,0.0,0.0,0.0,0.0,0.0,0.0,0.0,0.0,0.0,0.0,0.0,0.0,0.0,0.0,0.0,0.0,0.0,0.0,0.0,0.0,0.0,0.0,0.0,0.0,0.0,0.0,0.0,0.0,0.0,0.0,0.0,0.0,0.0,0.0,0.0,0.0,0.0,0.0,0.0,0.0,0.0,0.0,0.0,0.0,0.0,0.0,0.0,0.0,0.0,0.0,0.0,0.0,0.0,0.0,0.0,0.0,0.0,0.0,0.0,0.0,0.0,0.0,0.0,0.0,0.0,0.0,0.0,0.0,0.0,0.0,0.0,0.0,0.0,0.0,0.0,0.0,0.0,0.0,0.0,0.0,0.0,0.0,0.0,0.0,0.0,0.0,0.0,0.0,0.0,0.0,0.0,0.0,0.0,0.0,0.0,0.0,0.0,0.0,0.0,0.0,0.0,0.0,0.0,0.0,0.0,0.0,0.0,0.0,0.0,0.0,0.0,0.0,0.0,0.0,0.0,0.0,0.0,0.0,0.0,0.0,0.0,0.0,0.0,0.0,0.0,0.0,0.0,0.0,0.0,0.0,0.0,0.0,0.0,0.0,0.0,0.0,0.0,0.0,0.0,0.0,0.0,0.0,0.0,0.0,0.0,0.0,0.0,0.0,0.0,0.0,0.0,0.0,0.0,0.0,0.0,0.0,0.0,0.0,0.0,0.0,0.0,0.0,0.0,0.0,0.0,0.0,0.0,0.0,0.0,0.0,0.0,0.0,0.0,0.0,0.0,0.0,0.0,0.0,0.0,0.0,0.0,0.0,0.0,0.0,0.0,0.0,0.0,0.0,0.0,0.0,0.0,0.0,0.0,0.0,0.0,0.0,0.0,0.0,0.0,0.0,0.0,0.0,0.0,0.0,0.0,0.0,0.0,0.0,0.0,0.0,0.0,0.0,0.0,0.0,0.0,0.0,0.0,0.0,0.0,0.0,0.0,0.0,0.0,0.0,0.0,0.0,0.0,0.0,0.0,0.0,0.0,0.0,0.0,0.0,0.0,0.0,0.0,0.0,0.0,0.0,0.0,0.0,0.0,0.0,0.0,0.0,0.0,0.0,0.0,0.0,0.0,0.0,0.0,0.0,0.0,0.0,0.0,0.0,0.0,0.0,0.0,0.0,0.0,0.0,0.0,0.0,0.0,0.0,0.0,0.0,0.0,0.0,0.0,0.0,0.0,0.0,0.0,0.0,0.0,0.0,0.0,0.0,0.0,0.0,0.0,0.0,0.0,0.0,0.0,0.0,0.0,0.0,0.0,0.0,0.0,0.0,0.0,0.0,0.0,0.0,0.0,0.0,0.0,0.0,0.0,0.0,0.0,0.0,0.0,0.0,0.0,0.0,0.0,0.0,0.0,0.0,0.0,0.0,0.0,0.0,0.0,0.0,0.0,0.0,0.0,0.0,0.0,0.0,0.0,0.0,0.0,0.0,0.0,0.0,0.0,0.0,0.0,0.0,0.0,0.0,0.0,0.0,0.0,0.0,0.0,0.0,0.0,0.0,0.0,0.0,0.0,0.0,0.0,0.0,0.0,0.0,0.0,0.0,0.0,0.0,0.0,0.0,0.0,0.0,0.0,0.0,0.0,0.0,0.0,0.0,0.0,0.0,0.0,0.0,0.0,0.0,0.0,0.0,0.0,0.0,0.0,0.0,0.0,0.0,0.0,0.0,0.0,0.0,0.0,0.0,0.0,0.0,0.0,0.0,0.0,0.0,0.0,0.0,0.0,0.0,0.0,0.0,0.0,0.0,0.0,0.0,0.0,0.0,0.0,0.0,0.0,0.0,0.0,0.0,0.0,0.0,0.0,0.0,0.0,0.0,0.0,0.0,0.0,0.0,0.0,0.0,0.0,0.0,0.0,0.0,0.0,0.0,0.0,0.0,0.0,0.0,0.0,0.0,0.0,0.0,0.0,0.0,0.0,0.0,0.0,-0.9927,0.0,0.0,0.0,-1.0095,0.0,0.0,0.0,0.0,0.0,0.0,0.0,0.0,0.0,0.0,0.0,0.0,0.0,0.0,0.0,0.0,0.0,0.0,0.0,0.0,0.0,0.0,0.0,0.0,0.0,0.0,0.0,0.0,0.0,0.0,0.0,0.0,0.0,0.0,0.0,0.0,0.0,0.0,0.0,0.0,0.0,0.0,0.0,0.0,0.0,0.0,0.0,0.0,0.0,0.0,0.0,0.0,0.0,0.0,0.0,0.0,0.0,0.0,0.0,0.0,0.0,0.0,0.0,0.0,0.0,0.0,0.0,0.0,0.0,0.0,0.0,0.0,0.0,0.0,0.0,0.0,0.0,0.0,0.0,0.0,0.0,0.0,0.0,0.0,0.0,0.0,0.0,0.0,0.0,0.0,0.0,0.0,0.0,0.0,0.0,0.0,0.0,0.0,0.0,0.0,0.0,0.0,0.0,0.0,0.0,0.0,0.0,0.0,0.0,0.0,-0.993,-1.001,-1.0068,-1.0102,-1.0094,0.0,0.0,0.0,0.0,0.0,0.0,0.0,0.0,0.0,0.0,0.0,0.0,0.0,0.0,0.0,0.0,0.0,0.0,0.0,0.0,0.0,0.0,0.0,0.0,0.0,0.0,0.0,0.0,0.0,0.0,0.0,0.0,0.0,0.0,0.0,0.0,0.0,0.0,0.0,0.0,0.0,0.0,0.0,0.0,0.0,0.0,0.0,0.0,0.0,0.0,0.0,0.0,0.0,0.0,0.0,0.0,0.0,0.0,0.0,0.0,0.0,0.0,0.0,0.0,0.0,0.0,0.0,0.0,0.0,0.0,0.0,0.0,0.0,0.0,0.0,0.0,0.0,0.0,0.0,0.0,0.0,0.0,0.0,0.0,0.0,0.0,0.0,0.0,0.0,0.0,0.0,0.0,0.0,0.0,0.0,0.0,0.0,0.0,0.0,0.0,0.0,0.0,0.0,0.0,0.0,0.0,0.0,0.0,0.0,0.0,0.0,0.0,-1.0075,-1.0099,-1.0126,0.0,0.0,0.0,0.0,0.0,0.0,0.0,0.0,0.0,0.0,0.0,0.0,0.0,0.0,0.0,0.0,0.0,0.0,0.0,0.0,0.0,0.0,0.0,0.0,0.0,0.0,0.0,0.0,0.0,0.0,0.0,0.0,0.0,0.0,0.0,0.0,0.0,0.0,0.0,0.0,0.0,0.0,0.0,0.0,0.0,0.0,0.0,0.0,0.0,0.0,0.0,0.0,0.0,0.0,0.0,0.0,0.0,0.0,0.0,0.0,0.0,0.0,0.0,0.0,0.0,0.0,0.0,0.0,0.0,0.0,0.0,0.0,0.0,0.0,0.0,0.0,0.0,0.0,0.0,0.0,0.0,0.0,0.0,0.0,0.0,0.0,0.0,0.0,0.0,0.0,0.0,0.0,0.0,0.0,0.0,0.0,0.0,0.0,0.0,0.0,0.0,0.0,0.0,0.0,0.0,0.0,0.0,0.0,0.0,0.0,-0.9938,-1.0011,-1.007,0.0,-1.0144,0.0,0.0,0.0,0.0,0.0,0.0,0.0,0.0,0.0,0.0,0.0,0.0,0.0,0.0,0.0,0.0,0.0,0.0,0.0,0.0,0.0,0.0,0.0,0.0,0.0,0.0,0.0,0.0,0.0,0.0,0.0,0.0,0.0,0.0,0.0,0.0,0.0,0.0,0.0,0.0,0.0,0.0,0.0,0.0,0.0,0.0,0.0,0.0,0.0,0.0,0.0,0.0,0.0,0.0,0.0,0.0,0.0,0.0,0.0,0.0,0.0,0.0,0.0,0.0,0.0,0.0,0.0,0.0,0.0,0.0,0.0,0.0,0.0,0.0,0.0,0.0,0.0,0.0,0.0,0.0,0.0,0.0,0.0,0.0,0.0,0.0,0.0,0.0,0.0,0.0,0.0,0.0,0.0,0.0,0.0,0.0,0.0,0.0,0.0,0.0,0.0,0.0,0.0,0.0,0.0,0.0,0.0,0.0,0.0,0.0,-0.9938,-1.0006,-1.008,-1.0128,0.0,0.0,0.0,0.0,0.0,0.0,0.0,0.0,0.0,0.0,0.0,0.0,0.0,0.0,0.0,0.0,0.0,0.0,0.0,0.0,0.0,0.0,0.0,0.0,0.0,0.0,0.0,0.0,0.0,0.0,0.0,0.0,0.0,0.0,0.0,0.0,0.0,0.0,0.0,0.0,0.0,0.0,0.0,0.0,0.0,0.0,0.0,0.0,0.0,0.0,0.0,0.0,0.0,0.0,0.0,0.0,0.0,0.0,0.0,0.0,0.0,0.0,0.0,0.0,0.0,0.0,0.0,0.0,0.0,0.0,0.0,0.0,0.0,0.0,0.0,0.0,0.0,0.0,0.0,0.0,0.0,0.0,0.0,0.0,0.0,0.0,0.0,0.0,0.0,0.0,0.0,0.0,0.0,0.0,0.0,0.0,0.0,0.0,0.0,0.0,0.0,0.0,0.0,0.0,0.0,0.0,0.0,0.0,0.0,0.0,-0.9891,-0.9946,-1.0015,-1.0065,-1.0127,-1.0187,0.0,0.0,0.0,0.0,0.0,0.0,0.0,0.0,0.0,0.0,0.0,0.0,0.0,0.0,0.0,0.0,0.0,0.0,0.0,0.0,0.0,0.0,0.0,0.0,0.0,0.0,0.0,0.0,0.0,0.0,0.0,0.0,0.0,0.0,0.0,0.0,0.0,0.0,0.0,0.0,0.0,0.0,0.0,0.0,0.0,0.0,0.0,0.0,0.0,0.0,0.0,0.0,0.0,0.0,0.0,0.0,0.0,0.0,0.0,0.0,0.0,0.0,0.0,0.0,0.0,0.0,0.0,0.0,0.0,0.0,0.0,0.0,0.0,0.0,0.0,0.0,0.0,0.0,0.0,0.0,0.0,0.0,0.0,0.0,0.0,0.0,0.0,0.0,0.0,0.0,0.0,0.0,0.0,0.0,0.0,0.0,0.0,0.0,0.0,0.0,0.0,0.0,0.0,0.0,0.0,0.0,0.0,0.0,-0.9806,-0.9866,-0.9968,-1.0091,-1.0104,-1.0133,0.0,0.0,0.0,0.0,0.0,0.0,0.0,0.0,0.0,0.0,0.0,0.0,0.0,0.0,0.0,0.0,0.0,0.0,0.0,0.0,0.0,0.0,0.0,0.0,0.0,0.0,0.0,0.0,0.0,0.0,0.0,0.0,0.0,0.0,0.0,0.0,0.0,0.0,0.0,0.0,0.0,0.0,0.0,0.0,0.0,0.0,0.0,0.0,0.0,0.0,0.0,0.0,0.0,0.0,0.0,0.0,0.0,0.0,0.0,0.0,0.0,0.0,0.0,0.0,0.0,0.0,0.0,0.0,0.0,0.0,0.0,0.0,0.0,0.0,0.0,0.0,0.0,0.0,0.0,0.0,0.0,0.0,0.0,0.0,0.0,0.0,0.0,0.0,0.0,0.0,0.0,0.0,0.0,0.0,0.0,0.0,0.0,0.0,0.0,0.0,0.0,0.0,0.0,0.0,0.0,0.0,0.0,0.0,0.0,-0.9808,-0.9922,-0.9992,-1.0095,-1.01,-1.014,0.0,0.0,0.0,0.0,0.0,0.0,0.0,0.0,0.0,0.0,0.0,0.0,0.0,0.0,0.0,0.0,0.0,0.0,0.0,0.0,0.0,0.0,0.0,0.0,0.0,0.0,0.0,0.0,0.0,0.0,0.0,0.0,0.0,0.0,0.0,0.0,0.0,0.0,0.0,0.0,0.0,0.0,0.0,0.0,0.0,0.0,0.0,0.0,0.0,0.0,0.0,0.0,0.0,0.0,0.0,0.0,0.0,0.0,0.0,0.0,0.0,0.0,0.0,0.0,0.0,0.0,0.0,0.0,0.0,0.0,0.0,0.0,0.0,0.0,0.0,0.0,0.0,0.0,0.0,0.0,0.0,0.0,0.0,0.0,0.0,0.0,0.0,0.0,0.0,0.0,0.0,0.0,0.0,0.0,0.0,0.0,0.0,0.0,0.0,0.0,0.0,0.0,0.0,0.0,0.0,0.0,0.0,0.0,0.0,-0.9786,-0.9903,-0.9992,-1.0069,-1.0107,-1.0128,0.0,0.0,0.0,0.0,0.0,0.0,0.0,0.0,0.0,0.0,0.0,0.0,0.0,0.0,0.0,0.0,0.0,0.0,0.0,0.0,0.0,0.0,0.0,0.0,0.0,0.0,0.0,0.0,0.0,0.0,0.0,0.0,0.0,0.0,0.0,0.0,0.0,0.0,0.0,0.0,0.0,0.0,0.0,0.0,0.0,0.0,0.0,0.0,0.0,0.0,0.0,0.0,0.0,0.0,0.0,0.0,0.0,0.0,0.0,0.0,0.0,0.0,0.0,0.0,0.0,0.0,0.0,0.0,0.0,0.0,0.0,0.0,0.0,0.0,0.0,0.0,0.0,0.0,0.0,0.0,0.0,0.0,0.0,0.0,0.0,0.0,0.0,0.0,0.0,0.0,0.0,0.0,0.0,0.0,0.0,0.0,0.0,0.0,0.0,0.0,0.0,0.0,0.0,0.0,0.0,0.0,0.0,0.0,-0.9769,-0.9821,-0.9903,-1.0001,-1.003,-1.0112,-1.0142,0.0,0.0,0.0,0.0,0.0,0.0,0.0,0.0,0.0,0.0,0.0,0.0,0.0,0.0,0.0,0.0,0.0,0.0,0.0,0.0,0.0,0.0,0.0,0.0,0.0,0.0,0.0,0.0,0.0,0.0,0.0,0.0,0.0,0.0,0.0,0.0,0.0,0.0,0.0,0.0,0.0,0.0,0.0,0.0,0.0,0.0,0.0,0.0,0.0,0.0,0.0,0.0,0.0,0.0,0.0,0.0,0.0,0.0,0.0,0.0,0.0,0.0,0.0,0.0,0.0,0.0,0.0,0.0,0.0,0.0,0.0,0.0,0.0,0.0,0.0,0.0,0.0,0.0,0.0,0.0,0.0,0.0,0.0,0.0,0.0,0.0,0.0,0.0,0.0,0.0,0.0,0.0,0.0,0.0,0.0,0.0,0.0,0.0,0.0,0.0,0.0,0.0,0.0,0.0,0.0,0.0,0.0,0.0,0.0,-1.068,-1.072,-1.0769,-1.0886,-1.0916,-1.0703,0.0,0.0,0.0,0.0,0.0,0.0,0.0,0.0,0.0,0.0,0.0,0.0,0.0,0.0,0.0,0.0,0.0,0.0,0.0,0.0,0.0,0.0,0.0,0.0,0.0,0.0,0.0,0.0,0.0,0.0,0.0,0.0,0.0,0.0,0.0,0.0,0.0,0.0,0.0,0.0,0.0,0.0,0.0,0.0,0.0,0.0,0.0,0.0,0.0,0.0,0.0,0.0,0.0,0.0,0.0,0.0,0.0,0.0,0.0,0.0,0.0,0.0,0.0,0.0,0.0,0.0,0.0,0.0,0.0,0.0,0.0,0.0,0.0,0.0,0.0,0.0,0.0,0.0,0.0,0.0,0.0,0.0,0.0,0.0,0.0,0.0,0.0,0.0,0.0,0.0,0.0,0.0,0.0,0.0,0.0,0.0,0.0,0.0,0.0,0.0,0.0,0.0,0.0,0.0,0.0,0.0,0.0,0.0,0.0,-1.1915,-1.1685,-1.1597,-1.1715,-1.1438,-1.1098,-1.0635,0.0,0.0,0.0,0.0,0.0,0.0,0.0,0.0,0.0,0.0,0.0,0.0,0.0,0.0,0.0,0.0,0.0,0.0,0.0,0.0,0.0,0.0,0.0,0.0,0.0,0.0,0.0,0.0,0.0,0.0,0.0,0.0,0.0,0.0,0.0,0.0,0.0,0.0,0.0,0.0,0.0,0.0,0.0,0.0,0.0,0.0,0.0,0.0,0.0,0.0,0.0,0.0,0.0,0.0,0.0,0.0,0.0,0.0,0.0,0.0,0.0,0.0,0.0,0.0,0.0,0.0,0.0,0.0,0.0,0.0,0.0,0.0,0.0,0.0,0.0,0.0,0.0,0.0,0.0,0.0,0.0,0.0,0.0,0.0,0.0,0.0,0.0,0.0,0.0,0.0,0.0,0.0,0.0,0.0,0.0,0.0,0.0,0.0,0.0,0.0,0.0,0.0,0.0,0.0,0.0,0.0,0.0,0.0,-1.3444,-1.2789,-1.2443,-1.2458,-1.1825,-1.1438,0.0,0.0,0.0,0.0,0.0,0.0,0.0,0.0,0.0,0.0,0.0,0.0,0.0,0.0,0.0,0.0,0.0,0.0,0.0,0.0,0.0,0.0,0.0,0.0,0.0,0.0,0.0,0.0,0.0,0.0,0.0,0.0,0.0,0.0,0.0,0.0,0.0,0.0,0.0,0.0,0.0,0.0,0.0,0.0,0.0,0.0,0.0,0.0,0.0,0.0,0.0,0.0,0.0,0.0,0.0,0.0,0.0,0.0,0.0,0.0,0.0,0.0,0.0,0.0,0.0,0.0,0.0,0.0,0.0,0.0,0.0,0.0,0.0,0.0,0.0,0.0,0.0,0.0,0.0,0.0,0.0,0.0,0.0,0.0,0.0,0.0,0.0,0.0,0.0,0.0,0.0,0.0,0.0,0.0,0.0,0.0,0.0,0.0,0.0,0.0,0.0,0.0,0.0,0.0,0.0,0.0,0.0,0.0,0.0,-1.4097,-1.4098,-1.3822,-1.3311,-1.3189,-1.2591,0.0,0.0,0.0,0.0,0.0,0.0,0.0,0.0,0.0,0.0,0.0,0.0,0.0,0.0,0.0,0.0,0.0,0.0,0.0,0.0,0.0,0.0,0.0,0.0,0.0,0.0,0.0,0.0,0.0,0.0,0.0,0.0,0.0,0.0,0.0,0.0,0.0,0.0,0.0,0.0,0.0,0.0,0.0,0.0,0.0,0.0,0.0,0.0,0.0,0.0,0.0,0.0,0.0,0.0,0.0,0.0,0.0,0.0,0.0,0.0,0.0,0.0,0.0,0.0,0.0,0.0,0.0,0.0,0.0,0.0,0.0,0.0,0.0,0.0,0.0,0.0,0.0,0.0,0.0,0.0,0.0,0.0,0.0,0.0,0.0,0.0,0.0,0.0,0.0,0.0,0.0,0.0,0.0,0.0,0.0,0.0,0.0,0.0,0.0,0.0,0.0,0.0,0.0,0.0,0.0,0.0,0.0,0.0,-1.4041,-1.4928,-1.5456,-1.5365,-1.4615,-1.4065,-1.3176,0.0,0.0,0.0,0.0,0.0,0.0,0.0,0.0,0.0,0.0,0.0,0.0,0.0,0.0,0.0,0.0,0.0,0.0,0.0,0.0,0.0,0.0,0.0,0.0,0.0,0.0,0.0,0.0,0.0,0.0,0.0,0.0,0.0,0.0,0.0,0.0,0.0,0.0,0.0,0.0,0.0,0.0,0.0,0.0,0.0,0.0,0.0,0.0,0.0,0.0,0.0,0.0,0.0,0.0,0.0,0.0,0.0,0.0,0.0,0.0,0.0,0.0,0.0,0.0,0.0,0.0,0.0,0.0,0.0,0.0,0.0,0.0,0.0,0.0,0.0,0.0,0.0,0.0,0.0,0.0,0.0,0.0,0.0,0.0,0.0,0.0,0.0,0.0,0.0,0.0,0.0,0.0,0.0,0.0,0.0,0.0,0.0,0.0,0.0,0.0,0.0,0.0,0.0,0.0,0.0,0.0,0.0,0.0,-1.4885,-1.5821,-1.6645,-1.6802,-1.6122,-1.4732,-1.3514,0.0,0.0,0.0,0.0,0.0,0.0,0.0,0.0,0.0,0.0,0.0,0.0,0.0,0.0,0.0,0.0,0.0,0.0,0.0,0.0,0.0,0.0,0.0,0.0,0.0,0.0,0.0,0.0,0.0,0.0,0.0,0.0,0.0,0.0,0.0,0.0,0.0,0.0,0.0,0.0,0.0,0.0,0.0,0.0,0.0,0.0,0.0,0.0,0.0,0.0,0.0,0.0,0.0,0.0,0.0,0.0,0.0,0.0,0.0,0.0,0.0,0.0,0.0,0.0,0.0,0.0,0.0,0.0,0.0,0.0,0.0,0.0,0.0,0.0,0.0,0.0,0.0,0.0,0.0,0.0,0.0,0.0,0.0,0.0,0.0,0.0,0.0,0.0,0.0,0.0,0.0,0.0,0.0,0.0,0.0,0.0,0.0,0.0,0.0,0.0,0.0,0.0,0.0,0.0,0.0,0.0,0.0,0.0,-1.5685,-1.6625,-1.6947,-1.7063,-1.7018,-1.614,-1.4688,0.0,0.0,0.0,0.0,0.0,0.0,0.0,0.0,0.0,0.0,0.0,0.0,0.0,0.0,0.0,0.0,0.0,0.0,0.0,0.0,0.0,0.0,0.0,0.0,0.0,0.0,0.0,0.0,0.0,0.0,0.0,0.0,0.0,0.0,0.0,0.0,0.0,0.0,0.0,0.0,0.0,0.0,0.0,0.0,0.0,0.0,0.0,0.0,-0.2945,0.0,0.0,0.0,0.0,0.0,0.0,0.0,0.0,0.0,0.0,0.0,0.0,0.0,0.0,0.0,0.0,0.0,0.0,0.0,0.0,0.0,0.0,0.0,0.0,0.0,0.0,0.0,0.0,0.0,0.0,0.0,0.0,0.0,0.0,0.0,0.0,0.0,0.0,0.0,0.0,0.0,0.0,0.0,0.0,0.0,0.0,0.0,0.0,0.0,0.0,0.0,0.0,0.0,0.0,0.0,0.0,0.0,0.0,0.0,-1.6529,-1.7444,-1.8007,-1.8143,-1.7851,-1.7154,-1.5632,0.0,0.0,0.0,0.0,0.0,0.0,0.0,0.0,0.0,0.0,0.0,0.0,0.0,0.0,0.0,0.0,0.0,0.0,0.0,0.0,0.0,0.0,0.0,0.0,0.0,0.0,0.0,0.0,0.0,0.0,0.0,0.0,0.0,0.0,0.0,0.0,0.0,0.0,0.0,0.0,0.0,0.0,0.0,0.0,0.0,0.0,0.0,0.0,0.0,0.0,0.0,0.0,0.0,0.0,0.0,0.0,0.0,0.0,0.0,0.0,0.0,0.0,0.0,0.0,0.0,0.0,0.0,0.0,0.0,0.0,0.0,0.0,0.0,0.0,0.0,0.0,0.0,0.0,0.0,0.0,0.0,0.0,0.0,0.0,0.0,0.0,0.0,0.0,0.0,0.0,0.0,0.0,0.0,0.0,0.0,0.0,0.0,0.0,0.0,0.0,0.0,0.0,0.0,0.0,0.0,0.0,0.0,-1.5987,-1.7279,-1.8467,-1.9219,-1.9386,-1.8907,-1.7933,-1.641,-1.4272,0.0,0.0,0.0,0.0,0.0,0.0,0.0,0.0,0.0,0.0,0.0,0.0,0.0,0.0,0.0,0.0,0.0,0.0,0.0,0.0,0.0,0.0,0.0,0.0,0.0,0.0,0.0,0.0,0.0,0.0,0.0,0.0,0.0,0.0,0.0,0.0,0.0,0.0,-0.5249,-0.5248,0.0,0.0,0.0,0.0,0.0,0.0,0.0,0.0,-0.2985,0.0,0.0,0.0,0.0,0.0,0.0,0.0,0.0,0.0,0.0,0.0,0.0,0.0,0.0,0.0,0.0,0.0,0.0,0.0,0.0,0.0,0.0,0.0,0.0,0.0,0.0,0.0,0.0,0.0,0.0,0.0,0.0,0.0,0.0,0.0,0.0,0.0,0.0,0.0,0.0,0.0,0.0,0.0,0.0,0.0,0.0,0.0,0.0,0.0,0.0,0.0,0.0,0.0,0.0,0.0,0.0,-1.6171,-1.6595,-1.7903,-2.02,-1.9885,-1.9981,-2.0584,-1.8615,-1.6978,-1.5884,0.0,0.0,0.0,0.0,0.0,0.0,0.0,0.0,0.0,0.0,0.0,0.0,0.0,0.0,0.0,0.0,0.0,0.0,0.0,0.0,0.0,0.0,0.0,0.0,0.0,0.0,0.0,0.0,0.0,0.0,0.0,0.0,0.0,0.0,0.0,0.0,0.0,0.0,0.0,-0.5344,-0.544,0.0,0.0,0.0,0.0,0.0,0.0,0.0,0.0,-0.3558,0.0,0.0,0.0,0.0,0.0,0.0,0.0,0.0,0.0,0.0,0.0,0.0,0.0,0.0,0.0,0.0,0.0,0.0,0.0,0.0,0.0,0.0,0.0,0.0,0.0,0.0,0.0,0.0,0.0,0.0,0.0,0.0,0.0,0.0,0.0,0.0,0.0,0.0,0.0,0.0,0.0,0.0,0.0,0.0,0.0,0.0,0.0,0.0,0.0,0.0,0.0,0.0,0.0,0.0,0.0,-1.653,-1.7581,-1.8904,-2.0629,-2.0863,-2.1,-2.1073,-1.9612,-1.8232,0.0,0.0,0.0,0.0,0.0,0.0,0.0,0.0,0.0,0.0,0.0,0.0,0.0,0.0,0.0,0.0,0.0,0.0,0.0,0.0,0.0,0.0,0.0,0.0,0.0,0.0,0.0,0.0,0.0,0.0,0.0,0.0,0.0,0.0,0.0,0.0,0.0,0.0,0.0,0.0,-0.6234,-0.6306,-0.5574,0.0,0.0,0.0,0.0,0.0,0.0,-0.3986,-0.3849,0.0,0.0,0.0,0.0,0.0,0.0,0.0,0.0,0.0,0.0,0.0,0.0,0.0,0.0,0.0,0.0,0.0,0.0,0.0,0.0,0.0,0.0,0.0,0.0,0.0,0.0,0.0,0.0,0.0,0.0,0.0,0.0,0.0,0.0,0.0,0.0,0.0,0.0,0.0,0.0,0.0,0.0,0.0,0.0,0.0,0.0,0.0,0.0,0.0,0.0,0.0,0.0,0.0,0.0,0.0,-1.67,-1.84,-1.9813,-2.0956,-2.1723,-2.1871,-2.1369,-2.0486,-1.924,0.0,0.0,0.0,0.0,0.0,0.0,0.0,0.0,0.0,0.0,0.0,0.0,0.0,0.0,0.0,0.0,0.0,0.0,0.0,0.0,0.0,0.0,0.0,0.0,0.0,0.0,0.0,0.0,0.0,0.0,0.0,0.0,0.0,0.0,0.0,0.0,0.0,0.0,0.0,0.0,0.0,-0.7061,-0.6404,-0.6022,0.0,0.0,0.0,0.0,-0.4448,-0.422,0.0,0.0,0.0,0.0,0.0,0.0,0.0,0.0,0.0,0.0,0.0,0.0,0.0,0.0,0.0,0.0,0.0,0.0,0.0,0.0,0.0,0.0,0.0,0.0,0.0,0.0,0.0,0.0,0.0,0.0,0.0,0.0,0.0,0.0,0.0,0.0,0.0,0.0,0.0,0.0,0.0,0.0,0.0,0.0,0.0,0.0,0.0,0.0,0.0,0.0,0.0,0.0,0.0,0.0,0.0,0.0,-1.6833,-1.8529,-2.0215,-2.185,-2.2102,-2.22,-2.2224,-2.0787,-1.925,0.0,0.0,0.0,0.0,0.0,0.0,0.0,0.0,0.0,0.0,0.0,0.0,0.0,0.0,0.0,0.0,0.0,0.0,0.0,0.0,0.0,0.0,0.0,0.0,0.0,0.0,0.0,0.0,0.0,0.0,0.0,0.0,0.0,0.0,0.0,0.0,0.0,0.0,0.0,0.0,0.0,-0.7235,-0.7024,-0.6345,-0.5729,0.0,0.0,-0.4639,-0.4494,-0.4408,0.0,0.0,0.0,0.0,0.0,0.0,0.0,0.0,0.0,0.0,0.0,0.0,0.0,0.0,0.0,0.0,0.0,0.0,0.0,0.0,0.0,0.0,0.0,0.0,0.0,0.0,0.0,0.0,0.0,0.0,0.0,0.0,0.0,0.0,0.0,0.0,0.0,0.0,0.0,0.0,0.0,0.0,0.0,0.0,0.0,0.0,0.0,0.0,0.0,0.0,0.0,0.0,0.0,0.0,0.0,-1.5593,-1.7615,-1.9771,-2.149,-2.2722,-2.3375,-2.3496,-2.3074,-2.2001,-2.0449,0.0,0.0,0.0,0.0,0.0,0.0,0.0,0.0,0.0,0.0,0.0,0.0,0.0,0.0,0.0,0.0,0.0,0.0,0.0,0.0,0.0,0.0,0.0,0.0,0.0,0.0,0.0,0.0,0.0,0.0,0.0,0.0,0.0,0.0,0.0,0.0,0.0,0.0,0.0,0.0,0.0,0.0,-0.7567,-0.7249,0.0,0.0,0.0,-0.5822,-0.5464,0.0,0.0,0.0,0.0,0.0,0.0,0.0,0.0,0.0,0.0,0.0,0.0,0.0,0.0,0.0,0.0,0.0,0.0,0.0,0.0,0.0,0.0,0.0,0.0,0.0,0.0,0.0,0.0,0.0,0.0,0.0,0.0,0.0,0.0,0.0,0.0,0.0,0.0,0.0,0.0,0.0,0.0,0.0,0.0,0.0,0.0,0.0,0.0,0.0,0.0,0.0,0.0,0.0,0.0,0.0,0.0,0.0,-1.8222,-2.0718,-2.2436,-2.3335,-2.4279,-2.4414,-2.3609,-2.2899,0.0,0.0,0.0,0.0,0.0,0.0,0.0,0.0,0.0,0.0,0.0,0.0,0.0,0.0,0.0,0.0,0.0,0.0,0.0,0.0,0.0,0.0,0.0,0.0,0.0,0.0,0.0,-0.5105,0.0,0.0,0.0,0.0,0.0,0.0,0.0,0.0,0.0,0.0,0.0,0.0,0.0,0.0,-0.8569,-0.8372,-0.8283,-0.7994,0.0,0.0,-0.6819,-0.6327,-0.5854,-0.5397,0.0,0.0,0.0,0.0,0.0,0.0,0.0,0.0,0.0,0.0,0.0,0.0,0.0,0.0,0.0,0.0,0.0,0.0,0.0,0.0,0.0,0.0,0.0,0.0,0.0,0.0,0.0,0.0,0.0,0.0,0.0,0.0,0.0,0.0,0.0,0.0,0.0,0.0,0.0,0.0,0.0,0.0,0.0,0.0,0.0,0.0,0.0,0.0,0.0,0.0,0.0,0.0,0.0,0.0,-1.662,-1.8318,-2.0734,-2.2468,-2.3392,-2.4313,-2.4414,-2.3628,-2.288,-2.1733,0.0,0.0,0.0,0.0,0.0,0.0,0.0,0.0,0.0,0.0,0.0,0.0,0.0,0.0,0.0,0.0,0.0,0.0,0.0,0.0,0.0,0.0,0.0,0.0,0.0,0.0,0.0,0.0,0.0,0.0,0.0,0.0,0.0,0.0,0.0,0.0,0.0,0.0,0.0,0.0,0.0,-0.9931,-0.9626,-0.9314,-0.8875,0.0,-0.7594,-0.7083,-0.6796,-0.6423,-0.5999,-0.5598,0.0,0.0,0.0,0.0,0.0,0.0,0.0,0.0,0.0,0.0,0.0,0.0,0.0,0.0,0.0,0.0,0.0,0.0,0.0,0.0,0.0,0.0,0.0,0.0,0.0,0.0,0.0,0.0,0.0,0.0,0.0,0.0,0.0,0.0,0.0,0.0,0.0,0.0,0.0,0.0,0.0,0.0,0.0,0.0,0.0,0.0,0.0,0.0,0.0,0.0,0.0,0.0,0.0,-1.767,-1.9813,-2.1302,-2.2985,-2.4826,-2.4843,-2.4918,-2.5136,-2.3954,-2.2515,0.0,0.0,0.0,0.0,0.0,0.0,0.0,0.0,0.0,0.0,0.0,0.0,0.0,0.0,0.0,0.0,0.0,0.0,0.0,0.0,0.0,0.0,0.0,0.0,0.0,0.0,0.0,0.0,-0.5101,-0.5089,-0.5097,0.0,0.0,0.0,0.0,0.0,0.0,0.0,0.0,0.0,0.0,-1.0366,-1.009,-0.9982,0.0,0.0,-0.8604,-0.81,-0.7504,-0.7008,-0.651,-0.5937,-0.5532,0.0,0.0,0.0,0.0,0.0,0.0,0.0,0.0,0.0,0.0,0.0,0.0,0.0,0.0,0.0,0.0,0.0,0.0,0.0,0.0,0.0,0.0,0.0,0.0,0.0,0.0,0.0,0.0,0.0,0.0,0.0,0.0,0.0,0.0,0.0,0.0,0.0,0.0,0.0,0.0,0.0,0.0,0.0,0.0,0.0,0.0,0.0,0.0,0.0,0.0,0.0,0.0,-1.8575,-2.0804,-2.2148,-2.3827,-2.5853,-2.5686,-2.5702,-2.6001,-2.4805,-2.3334,0.0,0.0,0.0,0.0,0.0,0.0,0.0,0.0,0.0,0.0,0.0,0.0,0.0,0.0,0.0,0.0,0.0,0.0,0.0,0.0,0.0,0.0,0.0,0.0,0.0,0.0,0.0,0.0,-0.5335,-0.56,-0.5859,0.0,0.0,0.0,0.0,0.0,0.0,0.0,0.0,0.0,0.0,-1.1241,-1.1038,-1.1078,-1.0879,-1.0187,-0.9769,-0.9255,-0.8456,-0.7777,-0.711,-0.6421,0.0,0.0,0.0,0.0,0.0,0.0,0.0,0.0,0.0,0.0,0.0,0.0,0.0,0.0,0.0,0.0,0.0,0.0,0.0,0.0,0.0,0.0,0.0,0.0,0.0,0.0,0.0,-0.7729,0.0,0.0,-0.7819,0.0,0.0,0.0,0.0,0.0,0.0,0.0,0.0,0.0,0.0,0.0,0.0,0.0,0.0,0.0,0.0,0.0,0.0,0.0,0.0,0.0,0.0,-1.9211,-2.091,-2.3273,-2.496,-2.5891,-2.6789,-2.6857,-2.6075,-2.5267,-2.4093,-2.2375,0.0,0.0,0.0,0.0,0.0,0.0,0.0,0.0,0.0,0.0,0.0,0.0,0.0,0.0,0.0,0.0,0.0,0.0,0.0,0.0,0.0,0.0,0.0,0.0,0.0,0.0,-0.5161,-0.5884,-0.6697,0.0,0.0,0.0,0.0,0.0,0.0,0.0,0.0,0.0,-1.2156,-1.2656,-1.2886,-1.2683,-1.2709,-1.2401,-1.1579,-1.1062,-1.0481,-0.9668,-0.873,-0.7823,0.0,0.0,0.0,0.0,0.0,0.0,0.0,0.0,0.0,0.0,0.0,0.0,0.0,0.0,0.0,0.0,0.0,0.0,0.0,0.0,0.0,0.0,0.0,0.0,0.0,0.0,0.0,-1.1649,-1.1118,0.0,0.0,0.0,0.0,0.0,0.0,0.0,0.0,0.0,0.0,0.0,-1.6252,-1.6246,0.0,0.0,0.0,0.0,0.0,0.0,0.0,0.0,0.0,0.0,0.0,0.0,-2.0097,-2.1763,-2.3685,-2.5338,-2.671,-2.7125,-2.7422,-2.7648,-2.6393,-2.4398,-2.1619,0.0,0.0,0.0,0.0,0.0,0.0,0.0,0.0,0.0,0.0,0.0,0.0,0.0,0.0,0.0,0.0,0.0,0.0,0.0,0.0,0.0,0.0,0.0,0.0,0.0,-0.6775,0.0,0.0,0.0,0.0,0.0,0.0,0.0,0.0,0.0,0.0,-1.1945,-1.2799,-1.3119,-1.3694,-1.3984,-1.3727,-1.3566,-1.3257,0.0,0.0,0.0,0.0,0.0,0.0,0.0,0.0,0.0,0.0,0.0,0.0,0.0,0.0,-0.4743,-0.4586,-0.4731,-0.5001,-0.5359,0.0,0.0,0.0,0.0,0.0,0.0,0.0,0.0,0.0,0.0,0.0,0.0,0.0,0.0,-1.3977,-1.3699,-1.3681,0.0,0.0,0.0,0.0,0.0,0.0,0.0,0.0,-1.6926,-1.7763,-1.8812,-1.8816,-1.8806,-1.8794,-1.8794,-1.7496,0.0,0.0,0.0,0.0,0.0,0.0,0.0,0.0,-2.1122,-2.3034,-2.4709,-2.6224,-2.7552,-2.7963,-2.8243,-2.8431,-2.6629,-2.4613,-2.2451,-2.0829,-1.8839,0.0,0.0,0.0,0.0,0.0,0.0,0.0,0.0,0.0,0.0,0.0,0.0,0.0,0.0,0.0,0.0,0.0,0.0,0.0,0.0,0.0,0.0,0.0,-0.7888,0.0,0.0,0.0,0.0,0.0,0.0,0.0,0.0,0.0,-1.2659,-1.318,-1.3879,-1.4746,-1.4794,-1.4839,-1.5165,0.0,0.0,0.0,0.0,0.0,0.0,0.0,-0.9463,-0.8616,-0.7952,-0.7296,-0.6652,-0.6201,-0.6082,-0.6577,0.0,0.0,-0.5512,-0.5642,-0.5979,-0.6452,-0.6811,-0.7176,-0.7576,-0.7936,-0.8255,0.0,0.0,0.0,0.0,-1.7952,0.0,0.0,0.0,-1.6709,-1.6297,0.0,-1.5557,0.0,0.0,0.0,0.0,-1.6606,-1.6615,0.0,0.0,-1.8937,-1.9788,-2.1301,-2.1369,-2.1354,-2.1314,-2.1282,-2.0827,-1.9988,-1.8378,0.0,0.0,0.0,0.0,0.0,0.0,-2.2273,-2.4634,-2.6245,-2.7518,-2.8351,-2.9232,-2.927,-2.8388,-2.6185,-2.4908,-2.4673,-2.1784,-1.9679,-1.8746,-1.6417,0.0,0.0,0.0,0.0,0.0,0.0,0.0,0.0,0.0,0.0,0.0,0.0,0.0,0.0,0.0,0.0,0.0,0.0,0.0,0.0,-0.7815,0.0,0.0,0.0,0.0,0.0,0.0,0.0,0.0,0.0,-1.4756,-1.4464,-1.4126,-1.4666,-1.6877,0.0,0.0,0.0,0.0,-1.5786,-1.5099,-1.4474,-1.3695,-1.2638,-1.1462,-1.0351,-0.9437,0.0,0.0,-0.6615,-0.6629,-0.7031,-0.779,-0.7667,-0.7246,-0.6652,-0.6637,-0.6911,-0.7551,-0.8037,-0.8497,-0.8862,-0.9166,-0.945,-2.259,0.0,0.0,0.0,0.0,-1.9745,-1.9609,-1.9391,-1.9385,-1.9247,-1.9029,-1.8966,0.0,0.0,0.0,0.0,0.0,0.0,-2.0299,-2.0774,-2.1283,-2.2102,-2.3138,-2.3103,-2.3378,-2.3879,-2.3266,-2.2855,-2.2602,-2.1519,-2.0356,-1.9213,0.0,0.0,0.0,0.0,-2.3423,-2.4703,-2.6324,-2.7563,-2.8369,-2.9251,-2.9279,-2.8426,-2.7723,-2.6541,-2.4793,-2.3814,-2.2125,-1.961,-1.8295,0.0,0.0,0.0,0.0,0.0,0.0,0.0,0.0,0.0,0.0,0.0,0.0,0.0,0.0,0.0,0.0,0.0,0.0,0.0,-1.1106,-1.1272,-1.1469,0.0,0.0,0.0,0.0,0.0,0.0,0.0,0.0,0.0,-1.7658,-1.7345,-1.7147,0.0,0.0,-1.7539,-1.803,-1.7387,-1.6826,-1.6768,-1.5925,0.0,-1.4231,-1.3138,-1.2034,-1.108,-0.9864,-0.8669,-0.7566,-0.7756,-0.8264,-0.892,-0.8741,-0.85,-0.8611,-0.8396,-0.8438,-0.888,-0.932,-0.9736,-1.0051,-1.0464,-1.0834,-2.5738,-2.4172,-2.2295,-2.1528,-2.1487,-2.1487,-2.1504,-2.148,-2.1495,-2.1473,-2.1493,-2.1443,-2.1427,-2.144,-2.142,0.0,0.0,0.0,-2.2647,-2.2997,-2.3779,-2.4582,-2.5323,-2.5342,-2.5558,-2.5961,-2.5467,-2.5206,-2.5186,-2.4657,-2.3867,-2.2809,0.0,-2.1835,-2.2473,-2.3468,-2.4689,-2.6126,-2.7158,-2.8078,-2.8904,-2.942,-2.9457,-2.8941,-2.8586,-2.7529,-2.5712,-2.5011,-2.3596,-2.1327,-1.9887,-1.8304,0.0,0.0,0.0,0.0,0.0,0.0,0.0,0.0,0.0,0.0,0.0,-0.7028,-0.738,0.0,0.0,0.0,-1.0287,-1.1666,-1.3084,-1.3245,0.0,0.0,0.0,0.0,0.0,0.0,0.0,-1.7166,-1.7809,-1.8564,-1.9516,-1.9772,-1.9656,-1.9048,-1.8897,-1.9007,-1.9522,0.0,-1.8517,-1.8341,-1.7348,-1.632,-1.5506,-1.4443,-1.3231,-1.1827,-1.0732,-0.9656,-0.8634,-0.889,-0.9593,-1.038,-1.0242,-1.003,-1.0605,-1.0604,-1.0444,-1.029,-1.077,-1.1262,-1.1479,-1.1888,-1.2188,-2.8459,-2.8135,-2.4939,-2.3551,-2.3407,-2.3407,-2.3419,-2.3409,-2.3406,-2.3409,-2.3406,-2.3417,-2.3402,-2.3392,-2.3327,0.0,-2.3327,-2.4009,-2.472,-2.5431,-2.6232,-2.6994,-2.77,-2.7713,-2.7717,-2.7716,-2.7652,-2.7599,-2.757,-2.7422,-2.7376,-2.7223,-2.4227,-2.3431,-2.4831,-2.4914,-2.6051,-2.8341,-2.8388,-2.8829,-2.9673,-2.9701,-2.9701,-2.9683,-2.8905,-2.809,-2.721,-2.5634,-2.4385,-2.3472,-2.1301,-1.9662,-1.8688,0.0,0.0,0.0,0.0,0.0,0.0,0.0,0.0,0.0,0.0,0.0,0.0,0.0,0.0,-1.1445,-1.2355,0.0,-1.4215,-1.4358,0.0,0.0,0.0,-1.723,-1.8116,-1.81,-1.8267,-1.8921,0.0,0.0,-2.054,-2.1542,-2.2043,-2.1566,-2.0505,-2.0165,-2.1173,-2.108,-2.0642,-1.9748,-1.8704,-1.7654,-1.6724,-1.5494,-1.4043,-1.2332,-1.1386,-1.0743,-0.9814,-1.0135,-1.1118,-1.2346,-1.2023,-1.1715,-1.2565,-1.2892,-1.2923,-1.1955,-1.2275,-1.2791,-1.2912,-1.3212,-1.3402,-3.0784,-3.0061,-2.859,-2.7576,-2.6883,-2.6886,-2.6883,-2.688,-2.688,-2.688,-2.6899,-2.69,-2.6895,-2.6881,-2.6829,-2.6755,-2.6718,-2.6896,-2.7042,-2.7207,-2.7384,-2.7923,-2.8651,-2.8606,-2.8909,-2.9413,-2.8802,-2.8506,-2.8461,-2.7759,-2.7376,-2.7261,-2.6486,-2.6288,-2.6585,-2.6604,-2.7177,-2.8388,-2.8407,-2.8829,-2.9664,-2.9701,-2.9701,-2.9701,-2.9392,-2.8858,-2.8026,-2.7,-2.5752,-2.4298,-2.3165,-2.1627,-1.9624,-1.9017,0.0,0.0,0.0,0.0,0.0,0.0,0.0,0.0,0.0,-1.0581,-1.0799,0.0,-1.3059,0.0,-1.4615,-1.5881,-1.6816,-1.6963,0.0,0.0,-1.8612,-1.9191,-2.0625,-2.0676,-2.086,-2.1515,-2.1538,-2.1916,-2.2977,-2.3152,-2.3413,-2.4033,-2.257,-2.1592,-2.2073,-2.2594,-2.2402,-2.1036,-2.0015,-1.9174,-1.8422,-1.6672,-1.5051,-1.4042,-1.347,-1.2702,-1.1285,-1.2005,-1.2884,-1.3361,-1.3289,-1.3283,-1.3602,-1.4128,-1.4512,-1.433,-1.4007,-1.3621,-1.3651,-1.4051,-1.4382,-3.2379,-3.1885,-3.1385,-3.0898,-3.0306,-2.88,-2.8133,-2.8104,-2.8104,-2.8104,-2.81,-2.8106,-2.8117,-2.8117,-2.8045,-2.7975,-2.7971,-2.8318,-2.845,-2.8412,-2.9177,-2.9755,-3.0171,-3.049,-3.0844,-3.1226,-3.0769,-3.0533,-3.0475,-2.9937,-2.9623,-2.9563,-2.9194,-2.8945,-2.8855,-2.8133,-2.8134,-2.8969,-2.8979,-2.9213,-2.9683,-2.9701,-2.9701,-2.9701,-2.9607,-2.9148,-2.8325,-2.7793,-2.6777,-2.5131,-2.4288,-2.3112,-2.1461,-2.074,-1.9635,0.0,0.0,0.0,0.0,0.0,0.0,0.0,0.0,0.0,0.0,0.0,-1.5337,-1.6108,-1.7038,-1.8143,-1.9416,-1.9595,-1.9983,-2.0838,-2.0931,-2.1284,-2.2182,-2.2485,-2.2853,-2.3499,-2.3688,-2.4082,-2.4982,-2.4804,-2.4858,-2.561,-2.4435,-2.3411,-2.3249,-2.3565,-2.3449,-2.236,-2.1569,-2.0749,-1.9856,-1.8192,-1.6736,-1.5954,-1.5272,-1.4452,-1.3236,-1.3632,-1.4363,-1.4951,-1.4807,-1.4673,-1.5069,-1.5428,-1.5773,-1.5893,-1.5616,-1.5172,-1.4806,-1.5051,-1.5272,-3.3648,-3.35,-3.3465,-3.3432,-3.3063,-3.013,-2.8825,-2.8767,-2.8767,-2.8767,-2.8761,-2.8766,-2.8741,-2.8745,-2.8685,-2.8659,-2.8709,-2.9381,-2.9673,-2.9677,-3.1158,-3.1827,-3.1808,-3.2467,-3.2771,-3.2718,-3.2722,-3.2665,-3.2605,-3.2528,-3.2467,-3.2367,-3.1654,-3.1242,-3.1092,-2.9635,-2.9138,-2.9683,-2.9701,-2.9701,-2.9701,-2.9701,-2.9701,-2.9701,-2.9626,-2.9232,-2.8503,-2.8306,-2.754,-2.6107,-2.5242,-2.4402,-2.3484,-2.2196,-2.1058,0.0,-1.9414,0.0,0.0,0.0,0.0,0.0,0.0,0.0,0.0,-1.6919,-1.7731,-1.9339,-1.9557,-2.0204,-2.1733,-2.1926,-2.2342,-2.3301,-2.3422,-2.347,-2.3636,-2.4148,-2.4678,-2.5153,-2.5657,-2.6126,-2.6533,-2.6307,-2.6211,-2.6521,-2.6156,-2.5493,-2.4797,-2.4625,-2.4388,-2.3783,-2.3127,-2.2109,-2.0863,-1.9698,-1.8649,-1.7771,-1.6969,-1.6139,-1.5206,-1.5257,-1.5767,-1.6704,-1.6408,-1.607,-1.6653,-1.6759,-1.6846,-1.6975,-1.6957,-1.6697,-1.6097,-1.6,-1.6026,-3.5084,-3.4439,-3.4428,-3.4026,-3.3331,-3.2633,-3.2337,-3.2308,-3.2327,-3.2317,-3.2318,-3.2241,-3.2225,-3.2236,-3.224,-3.2188,-3.2145,-3.2289,-3.2334,-3.2262,-3.259,-3.2709,-3.2686,-3.2795,-3.2839,-3.2778,-3.2713,-3.2688,-3.2691,-3.2632,-3.2511,-3.2386,-3.2236,-3.2108,-3.1967,0.0,0.0,0.0,-2.9701,-2.9701,-2.9701,-2.9701,-2.9701,-2.9701,-2.9626,0.0,-2.9345,-2.8652,-2.8119,-2.7726,-2.6954,0.0,0.0,0.0,0.0,0.0,0.0,0.0,0.0,0.0,0.0,0.0,-2.0212,-1.9497,-1.8562,-1.9707,-2.0968,-2.1971,-2.2133,-2.2349,-2.2721,-2.281,-2.349,-2.5013,-2.5176,-2.5615,-2.685,-2.7065,-2.7031,-2.6869,-2.682,-2.6953,-2.7376,-2.7224,-2.7163,-2.744,-2.7629,-2.7623,-2.7289,-2.6526,-2.5921,-2.5508,-2.4287,-2.3011,-2.2,-2.0913,-2.0058,-1.9407,-1.8722,-1.791,-1.7159,-1.7191,-1.7514,-1.81,-1.7716,-1.7319,-1.7491,-1.7613,-1.7725,-1.7759,-1.7803,-1.7554,-1.6874,-1.6586,-1.6464,-3.6142,-3.5336,-3.5326,-3.5082,0.0,-3.4657,-3.4617,-3.451,-3.3677,-3.3287,-3.3289,-3.3266,-3.3231,-3.3199,-3.3201,-3.317,-3.3142,-3.3146,-3.3116,-3.3073,-3.3459,-3.3624,-3.3621,-3.4025,-3.4199,-3.4133,-3.4091,-3.4067,-3.398,-3.3925,-3.3824,-3.3738,-3.3276,-3.3014,-3.2883,-3.242,-3.1769,-3.0903,-3.049,-3.0312,-3.0321,-2.9917,-2.9719,-2.9756,-2.9729,0.0,0.0,0.0,0.0,0.0,0.0,0.0,0.0,-2.5804,0.0,-2.4098,-2.3773,-2.3427,-2.3012,-2.2677,-2.2723,-2.3134,-2.3632,-2.3035,-2.0951,-2.2011,-2.3163,-2.4049,-2.4545,-2.503,-2.5508,-2.5603,-2.5976,-2.6818,-2.6868,-2.7178,-2.7855,-2.8222,-2.8249,-2.8028,-2.8116,-2.8273,-2.8345,-2.8457,-2.8461,-2.8467,-2.879,-2.9007,-2.8842,-2.7937,-2.7015,-2.6428,-2.5404,-2.4363,-2.3647,-2.274,-2.1834,-2.1237,-2.0429,-1.9587,-1.869,-1.8721,-1.8967,-1.9187,-1.8854,-1.8509,-1.8509,-1.8529,-1.8539,-1.8539,-1.8482,-1.8303,-1.7886,-1.7476,-1.7054,-3.7098,-3.6466,-3.6479,-3.6471,-3.6462,-3.6458,-3.6406,-3.6245,-3.4497,0.0,0.0,-3.3755,-3.3697,-3.3677,-3.3654,-3.3671,-3.3659,-3.365,-3.3621,-3.3575,-3.4226,-3.4538,-3.4562,-3.5276,-3.5592,-3.552,-3.5488,-3.5432,-3.5343,-3.5261,-3.5196,-3.5053,-3.4337,-3.3894,-3.3791,-3.3062,-3.2635,-3.2539,-3.1636,-3.1157,-3.1186,-3.0395,-2.998,-3.0034,-2.9875,-2.9773,-2.971,-2.971,-2.9354,-2.8606,-2.8511,-2.811,-2.7362,-2.7325,-2.6969,-2.6207,-2.6255,-2.6016,-2.5333,-2.5441,-2.5539,-2.5552,-2.6332,-2.5936,-2.3765,-2.4349,-2.512,-2.5901,-2.6631,-2.7357,-2.8132,-2.8196,-2.828,-2.8406,-2.8362,-2.8313,-2.8452,-2.8793,-2.9098,-2.9082,-2.9411,-2.964,-2.9492,-2.9706,-2.979,-2.9553,-2.9753,-3.0006,-2.9901,-2.8943,-2.7881,-2.7194,-2.6431,-2.577,-2.5204,-2.4431,-2.3686,-2.2742,-2.1899,-2.1057,-2.0269,-2.002,-2.0107,-2.0345,-1.9901,-1.9529,-1.9474,-1.9375,-1.9264,-1.9241,-1.9142,-1.8975,-1.8808,-1.8395,-1.7774,-3.8337,-3.8239,-3.8233,-3.8249,-3.8227,-3.8175,-3.8142,-3.7988,-3.6281,-3.5551,-3.5528,-3.5484,-3.543,-3.5426,-3.5433,-3.543,-3.5421,-3.5364,-3.534,-3.5329,-3.5465,-3.5477,-3.5427,-3.5543,-3.5577,-3.5579,-3.5534,-3.5493,-3.5465,-3.535,-3.5253,-3.5166,-3.4985,-3.484,-3.4708,-3.4525,-3.442,-3.4391,-3.2843,-3.2014,-3.2024,-3.1289,-3.0902,-3.0892,-3.0204,-2.978,-2.979,-2.98,-2.9708,-2.9504,-2.9495,-2.9083,-2.8204,-2.8203,-2.7856,-2.7102,-2.7081,-2.713,-2.713,-2.7144,-2.7221,-2.7331,-2.7575,-2.7547,-2.7219,-2.7346,-2.7536,-2.7728,-2.7906,-2.8057,-2.8189,-2.8262,-2.858,-2.9199,-2.9204,-2.9373,-2.9929,-2.9941,-3.011,-3.057,-3.0525,-3.0627,-3.0864,-3.0868,-3.0652,-3.0395,-3.0558,-3.0785,-3.0499,-2.9776,-2.8942,-2.8301,-2.7589,-2.6902,-2.6252,-2.5398,-2.4542,-2.3904,-2.3002,-2.2175,-2.1486,-2.1115,-2.1083,-2.1391,-2.0796,-2.0334,-2.0258,-2.0063,-1.9911,-1.9835,-1.9736,-1.9572,-1.9198,-1.8942,-1.863,-3.9023,-3.8613,-3.8613,-3.8612,-3.8609,-3.856,-3.8549,-3.8442,-3.7676,-3.7024,-3.6628,-3.6559,-3.6296,-3.5861,-3.5811,-3.5791,-3.5797,-3.5775,-3.5732,-3.5708,-3.5708,-3.5669,-3.5651,-3.5651,-3.5648,-3.5602,-3.5572,-3.5522,-3.5481,-3.5444,-3.5339,-3.5201,-3.5117,-3.503,-3.4898,-3.4879,-3.4859,-3.478,-3.3561,-3.292,-3.2949,-3.2212,-3.1813,-3.1858,-3.1478,-3.128,-3.1199,-3.0801,-3.0531,-3.0471,-2.9973,-2.9513,-2.9156,-2.91,-2.8968,-2.8635,-2.8663,-2.8728,-2.8787,-2.8896,-2.9027,-2.9158,-2.9258,-2.9337,-2.9414,-2.9009,-2.8787,-2.8879,-2.9299,-2.9608,-2.9628,-2.9605,-2.9754,-3.0105,-3.0062,-3.0297,-3.0881,-3.0866,-3.1004,-3.1515,-3.146,-3.134,-3.1397,-3.1536,-3.1524,-3.1227,-3.1335,-3.1296,-3.0951,-3.0314,-2.9623,-2.9005,-2.8376,-2.77,-2.7041,-2.6228,-2.5425,-2.4768,-2.4021,-2.328,-2.2622,-2.2199,-2.2161,-2.2154,-2.162,-2.1178,-2.1103,-2.0784,-2.0571,-2.0442,-2.0183,-1.9911,-1.9693,-1.9396,-1.8798,-3.9777,-3.9155,-3.9156,-3.9159,-3.916,-3.9156,-3.9131,-3.9086,-3.9096,-3.859,-3.782,-3.7589,-3.7121,-3.6515,-3.6413,-3.639,-3.6374,-3.6179,-3.606,-3.5999,-3.5815,-3.5699,-3.5718,-3.5713,-3.5672,-3.5629,-3.5618,-3.5584,-3.5509,-3.5514,-3.5383,-3.5218,-3.5162,-3.5056,-3.4945,-3.4945,-3.4927,-3.4831,-3.4197,-3.3885,-3.3866,-3.3116,-3.2752,-3.2778,-3.2659,-3.2537,-3.2421,-3.1851,-3.1486,-3.1389,-3.0712,-3.0345,-3.039,-3.0336,-3.0336,-3.0407,-3.0457,-3.0522,-3.0551,-3.0741,-3.0873,-3.0979,-3.1072,-3.1157,-3.1216,-3.07,-3.0122,-2.9963,-3.0562,-3.1071,-3.1071,-3.1266,-3.1324,-3.1274,-3.12,-3.1365,-3.1751,-3.169,-3.1792,-3.2317,-3.227,-3.2059,-3.204,-3.2247,-3.2274,-3.1922,-3.183,-3.1598,-3.1114,-3.0638,-3.0113,-2.9522,-2.8928,-2.8271,-2.755,-2.6875,-2.6188,-2.5481,-2.4893,-2.4234,-2.3603,-2.3258,-2.3047,-2.2878,-2.2377,-2.1994,-2.187,-2.1463,-2.1146,-2.0987,-2.0688,-2.0323,-2.0063,-1.9518,-1.8831,-4.0927,-4.0878,-4.0805,-4.0872,-4.0799,-4.082,-4.08,-4.0797,-4.0829,-4.0372,-3.9483,-3.8722,-3.8347,-3.8263,-3.8134,-3.8077,-3.8015,-3.7339,-3.6985,-3.6859,-3.6157,-3.5766,-3.5762,-3.5704,-3.5708,-3.5678,-3.5637,-3.5604,-3.5577,-3.5528,-3.5403,-3.5207,-3.5193,-3.5151,-3.5092,-3.5084,-3.5075,-3.5066,-3.499,-3.4887,-3.4747,-3.407,-3.3676,-3.3676,-3.2999,-3.2599,-3.2695,-3.2496,-3.2442,-3.237,-3.2186,-3.2141,-3.2122,-3.2144,-3.2161,-3.2201,-3.2279,-3.2405,-3.2488,-3.2667,-3.2711,-3.2856,-3.2833,-3.2879,-3.2964,-3.2964,-3.2319,-3.1253,-3.1501,-3.1952,-3.2034,-3.2556,-3.2846,-3.273,-3.2677,-3.2786,-3.2664,-3.25,-3.2615,-3.322,-3.3078,-3.305,-3.3301,-3.3257,-3.2939,-3.2258,-3.1951,-3.1634,-3.123,-3.0757,-3.0321,-2.9766,-2.9159,-2.8527,-2.7968,-2.7327,-2.668,-2.6123,-2.5522,-2.4963,-2.4492,-2.3985,-2.359,-2.3407,-2.3065,-2.2689,-2.2427,-2.213,-2.1726,-2.1431,-2.1146,-2.086,-2.0237,-1.9616,-1.8898,-4.1105,-4.1111,-4.1113,-4.1108,-4.1101,-4.1109,-4.1112,-4.1113,-4.1112,-4.0894,-4.0558,-4.0185,-3.9479,-3.8507,-3.8461,-3.8465,-3.8426,-3.8049,-3.7872,-3.7782,-3.6965,-3.6552,-3.6472,-3.5969,-3.5737,-3.5708,-3.5683,-3.5637,-3.5593,-3.5528,-3.5446,-3.5369,-3.5304,-3.5242,-3.516,-3.5151,-3.5126,-3.5101,-3.5138,-3.5127,-3.5043,-3.4804,-3.463,-3.4598,-3.4337,-3.4189,-3.4143,-3.3707,-3.3408,-3.329,-3.2822,-3.252,-3.252,-3.2501,-3.2526,-3.2567,-3.2661,-3.2623,-3.2391,-3.2816,-3.3252,-3.3647,-3.3423,-3.3295,-3.336,-3.3388,-3.3066,-3.2557,-3.2669,-3.2852,-3.2838,-3.3073,-3.3212,-3.3127,-3.3021,-3.3077,-3.3429,-3.3301,-3.344,-3.3959,-3.3877,-3.3698,-3.3715,-3.3386,-3.2914,-3.2369,-3.2019,-3.1634,-3.1249,-3.0794,-3.038,-2.9957,-2.9409,-2.8897,-2.8414,-2.785,-2.724,-2.6669,-2.6123,-2.5619,-2.5159,-2.4664,-2.4232,-2.3953,-2.3586,-2.3245,-2.2914,-2.2592,-2.2223,-2.1882,-2.1411,-2.0999,-2.0258,-1.9824,-1.9341,-4.1083,-4.1108,-4.1111,-4.1105,-4.1103,-4.1099,-4.1105,-4.1108,-4.1112,-4.1113,-4.1112,-4.1105,-4.043,-3.932,-3.9214,-3.9218,-3.9176,-3.8913,-3.8779,-3.864,-3.7645,-3.7137,-3.7039,-3.6222,-3.5788,-3.5747,-3.5742,-3.5688,-3.5602,-3.5559,-3.5509,-3.5494,-3.5412,-3.5327,-3.5246,-3.5231,-3.5209,-3.516,-3.5215,-3.5229,-3.5234,-3.5209,-3.5229,-3.5242,-3.5273,-3.53,-3.5289,-3.4691,-3.4335,-3.4265,-3.3672,-3.335,-3.3328,-3.3333,-3.3353,-3.3405,-3.3484,-3.3404,-3.3087,-3.3546,-3.4059,-3.4473,-3.4211,-3.4043,-3.4091,-3.4082,-3.4093,-3.4089,-3.4074,-3.4014,-3.3662,-3.379,-3.3843,-3.3763,-3.3621,-3.3759,-3.4173,-3.4108,-3.413,-3.4478,-3.4218,-3.3992,-3.3638,-3.3162,-3.2654,-3.2318,-3.1965,-3.1615,-3.1249,-3.0814,-3.0401,-3.0038,-2.9621,-2.9167,-2.8716,-2.8171,-2.7635,-2.7137,-2.6604,-2.6125,-2.573,-2.5244,-2.4835,-2.4549,-2.4173,-2.3806,-2.3467,-2.3108,-2.2561,-2.2173,-2.1675,-2.1094,-2.0528,-2.015,-1.9769,-4.1029,-4.1098,-4.1108,-4.1093,-4.1098,-4.1103,-4.1111,-4.1112,-4.1104,-4.1111,-4.1113,-4.1113,-4.1053,-4.087,-4.0805,-4.0957,-4.0818,-4.0076,-3.973,-3.9571,-3.8063,-3.7225,-3.7124,-3.6246,-3.5811,-3.5791,-3.5784,-3.5723,-3.5593,-3.5602,-3.5556,-3.549,-3.5482,-3.546,-3.5398,-3.5323,-3.53,-3.5285,-3.5293,-3.53,-3.5281,-3.53,-3.53,-3.5289,-3.5308,-3.5308,-3.5308,-3.527,-3.5205,-3.5224,-3.509,-3.5109,-3.514,-3.5109,-3.5124,-3.5271,-3.5315,-3.5326,-3.5311,-3.5427,-3.5597,-3.5727,-3.5621,-3.5748,-3.5625,-3.5579,-3.5534,-3.5705,-3.5509,-3.5212,-3.4629,-3.4918,-3.5278,-3.52,-3.5158,-3.5063,-3.4985,-3.4747,-3.4622,-3.445,-3.4173,-3.3802,-3.3235,-3.2834,-3.2539,-3.2232,-3.1874,-3.1521,-3.1193,-3.0794,-3.0401,-3.0076,-2.9704,-2.9298,-2.8779,-2.8365,-2.79,-2.7423,-2.6985,-2.6594,-2.6165,-2.577,-2.5453,-2.5033,-2.4534,-2.4171,-2.3995,-2.3509,-2.2878,-2.2328,-2.1769,-2.119,-2.0828,-2.0399,-1.9987,-4.1015,-4.1048,-4.1019,-4.1048,-4.1031,-4.1079,-4.1109,-4.1109,-4.1111,-4.1099,-4.1104,-4.1111,-4.1113,-4.1113,-4.1107,-4.1112,-4.1078,-4.0771,-4.0623,-4.0496,-3.9408,-3.8555,-3.7962,-3.7105,-3.6365,-3.5916,-3.5822,-3.5756,-3.5684,-3.5664,-3.5632,-3.5568,-3.5546,-3.5522,-3.5476,-3.5437,-3.5402,-3.5372,-3.5364,-3.5364,-3.5372,-3.5412,-3.5415,-3.5423,-3.5393,-3.5379,-3.542,-3.5379,-3.5379,-3.542,-3.5383,-3.5364,-3.5369,-3.5398,-3.5496,-3.561,-3.5623,-3.5639,-3.5674,-3.5799,-3.5892,-3.5949,-3.5946,-3.5955,-3.5975,-3.5938,-3.588,-3.5846,-3.5776,-3.5538,-3.5378,-3.5441,-3.5526,-3.543,-3.5327,-3.5193,-3.5066,-3.4898,-3.4687,-3.4397,-3.4023,-3.3555,-3.316,-3.2818,-3.2489,-3.2161,-3.182,-3.1466,-3.1114,-3.0733,-3.0401,-3.0124,-2.977,-2.9382,-2.9029,-2.8653,-2.8235,-2.7765,-2.731,-2.6948,-2.6566,-2.6111,-2.5729,-2.5383,-2.4877,-2.4419,-2.42,-2.3569,-2.2969,-2.2482,-2.1894,-2.1454,-2.1158,-2.0667,-2.0183,-4.0996,-4.098,-4.0983,-4.0993,-4.102,-4.1031,-4.1061,-4.1064,-4.109,-4.1101,-4.1108,-4.1102,-4.1108,-4.1109,-4.1113,-4.1112,-4.1104,-4.1111,-4.1099,-4.1033,-4.0201,-3.9468,-3.8817,-3.774,-3.6884,-3.6323,-3.5978,-3.5795,-3.5751,-3.5732,-3.5689,-3.5634,-3.5626,-3.5587,-3.554,-3.5527,-3.5509,-3.5475,-3.5468,-3.5488,-3.5468,-3.5508,-3.5534,-3.5515,-3.5495,-3.5494,-3.5534,-3.5475,-3.5494,-3.5515,-3.5482,-3.5469,-3.5464,-3.5525,-3.5612,-3.5718,-3.5741,-3.5754,-3.5791,-3.5862,-3.5958,-3.5994,-3.5996,-3.5975,-3.5984,-3.5935,-3.5867,-3.5799,-3.575,-3.5664,-3.5575,-3.5496,-3.5443,-3.5383,-3.5258,-3.5107,-3.4955,-3.4801,-3.458,-3.4221,-3.3802,-3.3415,-3.3088,-3.2719,-3.2386,-3.2055,-3.1747,-3.1426,-3.1055,-3.0712,-3.0443,-3.021,-2.9792,-2.945,-2.9114,-2.8787,-2.8405,-2.794,-2.7514,-2.7181,-2.687,-2.6406,-2.6016,-2.5674,-2.5257,-2.4763,-2.4216,-2.3599,-2.309,-2.2635,-2.2142,-2.1643,-2.1285,-2.0839,-2.0388,-4.0992,-4.0988,-4.0996,-4.0976,-4.1003,-4.0997,-4.099,-4.1016,-4.1083,-4.1081,-4.109,-4.1104,-4.1112,-4.1099,-4.1104,-4.1109,-4.1113,-4.111,-4.1101,-4.1019,-4.0285,-3.9848,-3.9589,-3.8098,-3.7178,-3.6919,-3.6268,-3.588,-3.5818,-3.5795,-3.5754,-3.5713,-3.5689,-3.5664,-3.5588,-3.5623,-3.5614,-3.5604,-3.5578,-3.5598,-3.5617,-3.5598,-3.5598,-3.5604,-3.5598,-3.5598,-3.5584,-3.5598,-3.5591,-3.5617,-3.5598,-3.5608,-3.5602,-3.5659,-3.5727,-3.5775,-3.5799,-3.582,-3.5892,-3.5953,-3.5985,-3.6014,-3.6011,-3.5985,-3.5937,-3.5897,-3.5862,-3.5806,-3.5737,-3.5646,-3.5534,-3.5449,-3.5383,-3.53,-3.5193,-3.5035,-3.4832,-3.4689,-3.4404,-3.3921,-3.3591,-3.3271,-3.293,-3.2571,-3.2249,-3.1966,-3.1688,-3.1385,-3.1035,-3.0695,-3.0426,-3.0189,-2.9814,-2.9428,-2.9176,-2.8897,-2.8493,-2.8063,-2.7665,-2.731,-2.7026,-2.6659,-2.6286,-2.5907,-2.5244,-2.4763,-2.429,-2.3704,-2.3271,-2.2818,-2.2328,-2.1862,-2.1454,-2.1031,-2.0518,-4.0888,-4.0922,-4.0941,-4.0958,-4.098,-4.0984,-4.0995,-4.0999,-4.1033,-4.1048,-4.1037,-4.1079,-4.1109,-4.1113,-4.1103,-4.1112,-4.11,-4.1109,-4.1113,-4.1051,-4.0813,-4.034,-3.9688,-3.8621,-3.747,-3.645,-3.6042,-3.5885,-3.5866,-3.5868,-3.583,-3.5788,-3.5771,-3.575,-3.5732,-3.5737,-3.5718,-3.5676,-3.567,-3.5648,-3.5614,-3.5612,-3.5623,-3.5623,-3.564,-3.5657,-3.5672,-3.5623,-3.562,-3.5618,-3.564,-3.5672,-3.5708,-3.5756,-3.5795,-3.5843,-3.5864,-3.5904,-3.5951,-3.5992,-3.6015,-3.6007,-3.6018,-3.5968,-3.5919,-3.5839,-3.5822,-3.5784,-3.5688,-3.5595,-3.5496,-3.5395,-3.53,-3.5253,-3.517,-3.501,-3.4783,-3.4531,-3.4197,-3.3842,-3.3563,-3.3274,-3.2914,-3.2538,-3.2197,-3.1893,-3.1649,-3.1383,-3.1012,-3.0692,-3.0443,-3.0227,-2.9792,-2.9412,-2.9176,-2.8897,-2.8541,-2.8137,-2.774,-2.7386,-2.713,-2.6843,-2.65,-2.5989,-2.5314,-2.4806,-2.4305,-2.3881,-2.345,-2.3,-2.2512,-2.208,-2.1675,-2.1201,-2.0646,-4.0837,-4.0853,-4.0873,-4.0888,-4.0927,-4.0958,-4.0952,-4.0975,-4.0995,-4.0993,-4.0997,-4.1042,-4.1075,-4.1081,-4.1096,-4.1107,-4.1117,-4.1103,-4.1117,-4.1111,-4.1113,-4.078,-4.0131,-3.9069,-3.7845,-3.6594,-3.6094,-3.5924,-3.5892,-3.5897,-3.5882,-3.5846,-3.5836,-3.5815,-3.5803,-3.5795,-3.5769,-3.5737,-3.5742,-3.5723,-3.5678,-3.5653,-3.5639,-3.5639,-3.5654,-3.5694,-3.5732,-3.5698,-3.5664,-3.5664,-3.5689,-3.5756,-3.5799,-3.5833,-3.5852,-3.5894,-3.5921,-3.5956,-3.6001,-3.6007,-3.6014,-3.6013,-3.5983,-3.5951,-3.5897,-3.5833,-3.5792,-3.5742,-3.5662,-3.5546,-3.5457,-3.5348,-3.527,-3.5168,-3.5091,-3.4936,-3.4693,-3.439,-3.4111,-3.3815,-3.3563,-3.3256,-3.2914,-3.2556,-3.2197,-3.1873,-3.1631,-3.1363,-3.0975,-3.0654,-3.0443,-3.0167,-2.9792,-2.9457,-2.916,-2.8873,-2.858,-2.8201,-2.779,-2.7448,-2.7167,-2.6922,-2.6594,-2.5935,-2.5272,-2.4934,-2.4492,-2.4041,-2.3569,-2.315,-2.2696,-2.2204,-2.1737,-2.1221,-2.07,-4.0796,-4.0801,-4.0801,-4.0807,-4.0837,-4.0883,-4.0903,-4.0893,-4.0952,-4.0972,-4.0996,-4.0999,-4.0997,-4.101,-4.1064,-4.1095,-4.1108,-4.1093,-4.1083,-4.1103,-4.1101,-4.0955,-4.0566,-3.939,-3.8231,-3.7207,-3.6476,-3.6056,-3.591,-3.5919,-3.5887,-3.5897,-3.5903,-3.5885,-3.583,-3.5813,-3.583,-3.5803,-3.5801,-3.5812,-3.5765,-3.5742,-3.5713,-3.5694,-3.5718,-3.5732,-3.5793,-3.5786,-3.5758,-3.5727,-3.5782,-3.5807,-3.5824,-3.5878,-3.5907,-3.5908,-3.5967,-3.5994,-3.6019,-3.6014,-3.601,-3.6015,-3.5945,-3.5892,-3.5891,-3.5838,-3.5773,-3.5723,-3.566,-3.5547,-3.5429,-3.533,-3.5231,-3.5091,-3.503,-3.484,-3.4561,-3.4316,-3.4099,-3.3815,-3.3563,-3.3274,-3.2932,-3.2556,-3.2197,-3.1874,-3.1614,-3.1327,-3.0992,-3.0671,-3.0443,-3.0124,-2.977,-2.9396,-2.9098,-2.892,-2.8604,-2.8177,-2.779,-2.7524,-2.7167,-2.687,-2.6568,-2.5907,-2.5369,-2.5018,-2.4649,-2.4187,-2.3717,-2.3271,-2.2787,-2.2297,-2.18,-2.1316,-2.0871,-4.0681,-4.072,-4.0712,-4.0756,-4.0792,-4.0812,-4.0828,-4.0839,-4.0907,-4.0926,-4.0935,-4.0988,-4.0984,-4.0991,-4.1034,-4.1029,-4.1029,-4.1019,-4.1053,-4.1108,-4.1105,-4.0726,-4.029,-3.9785,-3.875,-3.7477,-3.7043,-3.6628,-3.6016,-3.5968,-3.5963,-3.596,-3.597,-3.5938,-3.587,-3.5875,-3.5875,-3.5869,-3.5862,-3.5841,-3.5799,-3.5768,-3.5764,-3.5768,-3.5764,-3.5795,-3.5857,-3.5856,-3.5856,-3.5857,-3.5866,-3.5888,-3.5883,-3.5938,-3.596,-3.597,-3.6007,-3.6012,-3.6012,-3.6014,-3.6014,-3.599,-3.5948,-3.5889,-3.5892,-3.583,-3.577,-3.5707,-3.5637,-3.5541,-3.5407,-3.532,-3.5166,-3.4926,-3.4879,-3.4769,-3.4539,-3.4316,-3.4099,-3.3847,-3.3581,-3.3274,-3.2932,-3.2556,-3.2162,-3.1856,-3.1614,-3.1346,-3.0975,-3.0671,-3.0422,-3.0081,-2.971,-2.9373,-2.9075,-2.892,-2.8612,-2.8152,-2.7815,-2.7575,-2.7167,-2.6765,-2.6367,-2.588,-2.5481,-2.5131,-2.4763,-2.4361,-2.3894,-2.3407,-2.3,-2.2574,-2.2006,-2.1526,-2.1063,-4.0612,-4.0653,-4.0655,-4.0681,-4.0726,-4.073,-4.0748,-4.0784,-4.0814,-4.0854,-4.0864,-4.0903,-4.093,-4.0967,-4.0948,-4.0988,-4.0995,-4.0986,-4.1013,-4.1049,-4.1067,-4.0814,-4.0413,-4.0089,-3.9137,-3.7948,-3.7461,-3.6816,-3.613,-3.6009,-3.6008,-3.6006,-3.6019,-3.5974,-3.5931,-3.5937,-3.5942,-3.5926,-3.5897,-3.5883,-3.5843,-3.583,-3.5846,-3.583,-3.5827,-3.5853,-3.5894,-3.5911,-3.5931,-3.5897,-3.5892,-3.5909,-3.5942,-3.5986,-3.6021,-3.6007,-3.6015,-3.6015,-3.6015,-3.6006,-3.5999,-3.5965,-3.5922,-3.5898,-3.5857,-3.5801,-3.5723,-3.5657,-3.5614,-3.5522,-3.5379,-3.5285,-3.51,-3.487,-3.4791,-3.4697,-3.4495,-3.4305,-3.4086,-3.3829,-3.3563,-3.3274,-3.2948,-3.2538,-3.2179,-3.1874,-3.1651,-3.1346,-3.0992,-3.0692,-3.038,-3.0038,-2.9687,-2.935,-2.9052,-2.8873,-2.8565,-2.8128,-2.7665,-2.7473,-2.7141,-2.6686,-2.6299,-2.5921,-2.555,-2.5229,-2.4877,-2.4492,-2.4028,-2.3616,-2.3241,-2.2787,-2.2223,-2.1788,-2.1316,-4.0585,-4.0592,-4.0598,-4.0581,-4.0614,-4.0655,-4.0687,-4.07,-4.0754,-4.0782,-4.0782,-4.0807,-4.0844,-4.0898,-4.0898,-4.0926,-4.096,-4.098,-4.0988,-4.1003,-4.1013,-4.0953,-4.0886,-4.0363,-3.961,-3.8717,-3.7825,-3.7048,-3.6424,-3.6152,-3.6015,-3.6016,-3.6014,-3.6012,-3.5991,-3.5984,-3.6013,-3.5985,-3.5939,-3.5929,-3.5914,-3.5904,-3.5919,-3.5919,-3.5919,-3.5904,-3.5919,-3.5951,-3.5972,-3.5921,-3.5923,-3.5958,-3.5992,-3.6001,-3.6011,-3.6015,-3.6015,-3.6014,-3.601,-3.5979,-3.5947,-3.5911,-3.5901,-3.5862,-3.5811,-3.5741,-3.5679,-3.5623,-3.5596,-3.5476,-3.53,-3.5168,-3.5029,-3.485,-3.479,-3.4666,-3.4461,-3.43,-3.4099,-3.3829,-3.3545,-3.3256,-3.2914,-3.2556,-3.2162,-3.1856,-3.1651,-3.1366,-3.1012,-3.0692,-3.0342,-2.9979,-2.9665,-2.9344,-2.9068,-2.885,-2.8493,-2.8079,-2.7564,-2.7258,-2.7078,-2.6686,-2.6299,-2.5948,-2.5688,-2.5411,-2.5061,-2.465,-2.4218,-2.3793,-2.345,-2.2927,-2.2377,-2.2049,-2.1643,-4.043,-4.0438,-4.0489,-4.0519,-4.0534,-4.06,-4.0615,-4.0622,-4.0687,-4.0718,-4.073,-4.0784,-4.0812,-4.0823,-4.0823,-4.0814,-4.0854,-4.0888,-4.0912,-4.0937,-4.0976,-4.0991,-4.1003,-4.0769,-4.0327,-3.9476,-3.8642,-3.7809,-3.7053,-3.6313,-3.6004,-3.5989,-3.6012,-3.6014,-3.6015,-3.6015,-3.6013,-3.6008,-3.5986,-3.598,-3.5989,-3.5985,-3.5981,-3.5981,-3.5981,-3.5983,-3.5967,-3.5995,-3.5998,-3.5977,-3.5978,-3.5982,-3.6005,-3.6012,-3.6015,-3.6015,-3.6009,-3.6004,-3.6005,-3.5965,-3.5921,-3.5895,-3.5882,-3.5887,-3.5799,-3.5732,-3.5674,-3.5618,-3.5553,-3.5416,-3.5195,-3.5126,-3.4992,-3.4868,-3.4749,-3.4645,-3.4439,-3.4262,-3.4086,-3.3847,-3.3563,-3.3274,-3.2932,-3.2556,-3.2197,-3.1874,-3.1614,-3.1385,-3.1052,-3.0671,-3.0279,-2.9913,-2.9665,-2.9321,-2.8967,-2.8708,-2.8396,-2.8054,-2.7604,-2.7207,-2.7,-2.6765,-2.6433,-2.6138,-2.5866,-2.5564,-2.523,-2.492,-2.452,-2.4086,-2.3628,-2.3138,-2.2714,-2.2359,-2.1968,-4.0643,-4.0326,-4.0366,-4.0436,-4.0441,-4.0539,-4.0557,-4.0552,-4.0622,-4.0649,-4.0655,-4.0687,-4.0732,-4.0738,-4.0744,-4.0775,-4.0809,-4.0837,-4.0844,-4.0874,-4.0917,-4.0945,-4.0954,-4.0926,-4.0575,-3.9744,-3.888,-3.8068,-3.7234,-3.646,-3.5958,-3.5946,-3.5975,-3.6,-3.6004,-3.6009,-3.6013,-3.6015,-3.6016,-3.6015,-3.6012,-3.601,-3.6009,-3.6009,-3.6009,-3.6009,-3.6009,-3.6013,-3.6014,-3.6014,-3.6014,-3.6014,-3.6014,-3.6016,-3.6014,-3.6009,-3.6002,-3.601,-3.5988,-3.5947,-3.5886,-3.5885,-3.5875,-3.5834,-3.5778,-3.5718,-3.5664,-3.5601,-3.5522,-3.5383,-3.5138,-3.51,-3.5002,-3.4849,-3.4728,-3.4594,-3.4404,-3.4233,-3.4055,-3.3834,-3.3563,-3.3256,-3.2914,-3.2539,-3.2179,-3.1838,-3.1614,-3.1366,-3.0895,-3.0526,-3.0189,-2.9842,-2.9637,-2.9337,-2.8912,-2.858,-2.8275,-2.798,-2.763,-2.735,-2.713,-2.6896,-2.6633,-2.634,-2.6029,-2.5743,-2.5411,-2.5103,-2.4778,-2.4305,-2.3839,-2.3437,-2.3017,-2.2622,-2.2266,-4.1111,-4.0377,-4.0462,-4.045,-4.0379,-4.0452,-4.0473,-4.0489,-4.053,-4.0566,-4.0581,-4.0581,-4.0654,-4.0694,-4.07,-4.0707,-4.0751,-4.0767,-4.0784,-4.0809,-4.0837,-4.0848,-4.0858,-4.0806,-4.0586,-3.9805,-3.89,-3.8053,-3.7361,-3.6418,-3.5919,-3.5907,-3.5962,-3.5992,-3.5995,-3.6001,-3.5971,-3.5979,-3.5985,-3.5989,-3.5993,-3.5995,-3.6015,-3.6015,-3.6015,-3.6015,-3.6015,-3.6014,-3.6013,-3.6012,-3.601,-3.6011,-3.6013,-3.6012,-3.6005,-3.6012,-3.5988,-3.5978,-3.5964,-3.5941,-3.5891,-3.5878,-3.5834,-3.5775,-3.5727,-3.5674,-3.5643,-3.5589,-3.5496,-3.5367,-3.513,-3.5082,-3.4974,-3.4839,-3.4737,-3.455,-3.434,-3.4173,-3.3972,-3.3762,-3.3473,-3.3147,-3.2834,-3.2472,-3.2144,-3.1838,-3.1614,-3.1308,-3.0834,-3.0359,-2.9973,-2.9732,-2.9525,-2.9176,-2.8747,-2.8436,-2.8128,-2.7905,-2.763,-2.7478,-2.7258,-2.7041,-2.6765,-2.65,-2.6206,-2.588,-2.5578,-2.5272,-2.4907,-2.4478,-2.4102,-2.3688,-2.3288,-2.2884,-2.2561,-4.1897,-4.1127,-4.1246,-4.0912,-4.0319,-4.0351,-4.0413,-4.0422,-4.0433,-4.0462,-4.0519,-4.0569,-4.061,-4.0626,-4.0614,-4.0628,-4.0641,-4.0675,-4.0713,-4.0713,-4.0725,-4.0744,-4.0744,-4.0756,-4.0663,-4.0231,-3.9165,-3.8233,-3.7786,-3.6708,-3.5908,-3.5869,-3.59,-3.5928,-3.5916,-3.5921,-3.5929,-3.5899,-3.5912,-3.5921,-3.5929,-3.5957,-3.6,-3.6,-3.598,-3.6,-3.5999,-3.5999,-3.6017,-3.6016,-3.601,-3.6009,-3.5991,-3.5994,-3.6009,-3.5981,-3.5927,-3.5934,-3.5916,-3.59,-3.5866,-3.5827,-3.5803,-3.5778,-3.5713,-3.5649,-3.561,-3.5547,-3.5429,-3.527,-3.5108,-3.5066,-3.4946,-3.479,-3.4645,-3.4484,-3.4293,-3.4086,-3.3873,-3.3643,-3.3342,-3.3039,-3.2737,-3.2404,-3.2055,-3.1783,-3.1595,-3.123,-3.0753,-3.021,-2.9704,-2.9525,-2.9373,-2.8951,-2.8532,-2.825,-2.8005,-2.784,-2.764,-2.7539,-2.7335,-2.7144,-2.6884,-2.6527,-2.6313,-2.6084,-2.5784,-2.5425,-2.509,-2.4708,-2.4319,-2.3966,-2.3569,-2.3198,-2.2805,-4.261,-4.1857,-4.1533,-4.1166,-4.0749,-4.0424,-4.0298,-4.0326,-4.0377,-4.0419,-4.0463,-4.0479,-4.0495,-4.0481,-4.0481,-4.0489,-4.0527,-4.0617,-4.0639,-4.0653,-4.0641,-4.0642,-4.0662,-4.0642,-4.0668,-4.023,-3.9079,-3.8248,-3.8141,-3.663,-3.5908,-3.5823,-3.5838,-3.5849,-3.5852,-3.5856,-3.5862,-3.5833,-3.5849,-3.5844,-3.586,-3.5914,-3.5942,-3.5945,-3.5945,-3.5945,-3.5945,-3.5945,-3.5945,-3.5962,-3.596,-3.5953,-3.5951,-3.5951,-3.5955,-3.5953,-3.5919,-3.5883,-3.5891,-3.5872,-3.5834,-3.5806,-3.5797,-3.5751,-3.5684,-3.5618,-3.5575,-3.5483,-3.5364,-3.5218,-3.5129,-3.5011,-3.4879,-3.4749,-3.4602,-3.4409,-3.4191,-3.3985,-3.3753,-3.352,-3.3253,-3.2977,-3.2672,-3.2335,-3.1948,-3.1727,-3.1555,-3.1151,-3.0692,-3.0103,-2.9518,-2.9321,-2.9183,-2.8811,-2.842,-2.8152,-2.7905,-2.7755,-2.7615,-2.7499,-2.7372,-2.717,-2.6843,-2.65,-2.6299,-2.6138,-2.5935,-2.5578,-2.5272,-2.4948,-2.4591,-2.4216,-2.3878,-2.3492,-2.309,-4.3359,-4.2567,-4.2022,-4.1602,-4.1189,-4.0682,-4.0349,-4.0225,-4.0271,-4.0326,-4.0363,-4.0353,-4.0381,-4.0379,-4.0396,-4.0413,-4.0408,-4.0527,-4.0543,-4.055,-4.0554,-4.0537,-4.0564,-4.0564,-4.0545,-4.0321,-3.8889,-3.8144,-3.7915,-3.6551,-3.5868,-3.5747,-3.5745,-3.575,-3.575,-3.575,-3.5769,-3.5778,-3.5775,-3.578,-3.5806,-3.5853,-3.5872,-3.5872,-3.5891,-3.5888,-3.5869,-3.5888,-3.5869,-3.5869,-3.5869,-3.5901,-3.5892,-3.5889,-3.5892,-3.5882,-3.5879,-3.5872,-3.5859,-3.5834,-3.5814,-3.577,-3.5766,-3.5713,-3.5643,-3.5574,-3.5521,-3.5393,-3.53,-3.5168,-3.5065,-3.4955,-3.4821,-3.4678,-3.4539,-3.437,-3.4124,-3.3868,-3.3629,-3.3386,-3.3162,-3.2848,-3.2539,-3.2197,-3.1838,-3.1523,-3.1346,-3.1055,-3.0568,-2.9968,-2.945,-2.9199,-2.8944,-2.8621,-2.8323,-2.8063,-2.7855,-2.763,-2.7514,-2.7437,-2.731,-2.7155,-2.6791,-2.6406,-2.6218,-2.6056,-2.588,-2.5674,-2.53,-2.499,-2.4763,-2.4447,-2.3966,-2.3641,-2.3288,-4.4102,-4.336,-4.3388,-4.2595,-4.1328,-4.1159,-4.0736,-4.0146,-4.0128,-4.0176,-4.0234,-4.0234,-4.0253,-4.0308,-4.0381,-4.0398,-4.0415,-4.0424,-4.0413,-4.0413,-4.0419,-4.0427,-4.043,-4.0422,-4.0452,-4.0169,-3.8747,-3.8096,-3.7687,-3.643,-3.566,-3.5618,-3.5623,-3.5629,-3.5629,-3.5629,-3.5629,-3.5634,-3.5674,-3.5694,-3.5711,-3.5779,-3.5811,-3.5811,-3.5811,-3.5811,-3.5792,-3.5811,-3.5795,-3.5792,-3.5811,-3.5811,-3.5803,-3.5806,-3.5801,-3.5814,-3.5795,-3.5791,-3.5811,-3.5791,-3.5765,-3.5732,-3.5733,-3.5683,-3.5599,-3.5515,-3.5442,-3.5338,-3.525,-3.5143,-3.501,-3.4879,-3.4771,-3.4615,-3.445,-3.4245,-3.4023,-3.382,-3.3545,-3.3223,-3.2993,-3.267,-3.2352,-3.2037,-3.1709,-3.1406,-3.1114,-3.0834,-3.0405,-2.9792,-2.9314,-2.9076,-2.8779,-2.8468,-2.8201,-2.7965,-2.774,-2.7554,-2.7401,-2.731,-2.7233,-2.7052,-2.6712,-2.6367,-2.6138,-2.5907,-2.5729,-2.5508,-2.5272,-2.5018,-2.4721,-2.439,-2.4008,-2.373,-2.3437,-4.4331,-4.4099,-4.3731,-4.2899,-4.177,-4.1411,-4.0772,-4.0119,-4.0076,-4.0127,-4.0147,-4.0147,-4.0157,-4.0196,-4.0234,-4.0225,-4.0253,-4.0262,-4.0272,-4.029,-4.0298,-4.0325,-4.0342,-4.0379,-4.0405,-3.9906,-3.8868,-3.7982,-3.7437,-3.6446,-3.5496,-3.5502,-3.5483,-3.5489,-3.5489,-3.5489,-3.5489,-3.5501,-3.5556,-3.559,-3.5599,-3.5654,-3.5694,-3.5694,-3.5699,-3.5679,-3.5699,-3.5732,-3.5708,-3.5704,-3.5728,-3.5728,-3.5699,-3.5689,-3.5679,-3.5679,-3.5684,-3.5708,-3.5751,-3.5727,-3.5708,-3.5689,-3.5672,-3.561,-3.5547,-3.5449,-3.535,-3.5266,-3.5185,-3.5082,-3.4955,-3.4821,-3.4689,-3.4539,-3.4358,-3.4161,-3.3947,-3.3739,-3.3473,-3.3147,-3.2802,-3.2522,-3.2197,-3.1875,-3.1559,-3.1215,-3.0955,-3.0712,-3.0172,-2.9525,-2.9153,-2.8889,-2.8628,-2.8363,-2.8103,-2.7855,-2.764,-2.7452,-2.7237,-2.7144,-2.713,-2.6948,-2.6527,-2.6218,-2.6002,-2.577,-2.5578,-2.5328,-2.509,-2.4892,-2.4664,-2.4332,-2.4008,-2.376,-2.348,-4.4306,-4.4421,-4.3947,-4.3265,-4.2454,-4.1758,-4.0992,-4.0227,-4.0019,-3.9994,-4.0015,-4.0026,-4.0057,-4.0077,-4.0117,-4.0127,-4.0108,-4.0157,-4.0166,-4.0186,-4.0206,-4.0234,-4.0243,-4.029,-4.0174,-3.9982,-3.852,-3.7696,-3.7031,-3.6171,-3.5333,-3.5383,-3.5378,-3.539,-3.539,-3.5371,-3.5378,-3.5404,-3.5451,-3.5477,-3.5496,-3.5538,-3.5537,-3.5548,-3.5548,-3.5548,-3.5599,-3.5635,-3.5615,-3.564,-3.5665,-3.567,-3.5635,-3.5629,-3.5629,-3.5629,-3.5623,-3.5635,-3.5667,-3.5658,-3.5678,-3.5657,-3.5618,-3.5553,-3.5489,-3.5364,-3.5262,-3.5198,-3.51,-3.4992,-3.487,-3.4751,-3.4604,-3.4431,-3.4257,-3.4055,-3.3837,-3.3615,-3.3357,-3.3055,-3.2705,-3.237,-3.2055,-3.1728,-3.1389,-3.1038,-3.0757,-3.0547,-2.993,-2.9229,-2.8944,-2.8676,-2.8396,-2.8152,-2.793,-2.769,-2.7514,-2.7325,-2.7107,-2.6977,-2.6948,-2.6645,-2.6218,-2.5975,-2.577,-2.555,-2.5272,-2.5104,-2.4935,-2.4679,-2.4421,-2.4274,-2.3995,-2.376,-2.345,-4.4064,-4.4151,-4.4336,-4.3936,-4.3181,-4.2461,-4.1649,-4.0743,-4.0056,-3.9766,-3.98,-3.9856,-3.9943,-3.9986,-4.0036,-4.0057,-4.0077,-4.0087,-4.0077,-4.0087,-4.0108,-4.0118,-4.0128,-4.0052,-3.9747,-3.9004,-3.807,-3.7279,-3.6461,-3.5751,-3.5291,-3.5281,-3.5281,-3.5308,-3.5308,-3.53,-3.5281,-3.5315,-3.5372,-3.5374,-3.5388,-3.5404,-3.5412,-3.5412,-3.5418,-3.5425,-3.5515,-3.5522,-3.5534,-3.5566,-3.5598,-3.5598,-3.5566,-3.5566,-3.5547,-3.554,-3.556,-3.5547,-3.5571,-3.5608,-3.5596,-3.5591,-3.5554,-3.5515,-3.546,-3.5297,-3.5207,-3.5157,-3.5047,-3.4889,-3.4792,-3.467,-3.4539,-3.4358,-3.4161,-3.3959,-3.3721,-3.3459,-3.3211,-3.2914,-3.2589,-3.2232,-3.1821,-3.1487,-3.1218,-3.0898,-3.0572,-3.0338,-2.9582,-2.8928,-2.8708,-2.8444,-2.8201,-2.794,-2.7715,-2.7514,-2.7299,-2.7119,-2.691,-2.6832,-2.6765,-2.6394,-2.5975,-2.5564,-2.5342,-2.5146,-2.5005,-2.4835,-2.4635,-2.4421,-2.4189,-2.4054,-2.3819,-2.3522,-2.3253,-4.3862,-4.3989,-4.4101,-4.3737,-4.3105,-4.2401,-4.1625,-4.081,-4.0061,-3.9708,-3.9701,-3.9747,-3.9781,-3.9834,-3.9845,-3.9856,-3.9856,-3.9856,-3.9889,-3.9941,-3.9954,-4.0005,-4.0036,-3.9934,-3.9641,-3.8765,-3.7957,-3.7157,-3.6329,-3.5455,-3.5205,-3.516,-3.5176,-3.5176,-3.5176,-3.5185,-3.5185,-3.5193,-3.5218,-3.5223,-3.5231,-3.5262,-3.5266,-3.5266,-3.5266,-3.5308,-3.5383,-3.5374,-3.5388,-3.5402,-3.5468,-3.5468,-3.5435,-3.5435,-3.5435,-3.5435,-3.5435,-3.5442,-3.5495,-3.5554,-3.5585,-3.5541,-3.5515,-3.546,-3.5398,-3.5266,-3.516,-3.5082,-3.4992,-3.4831,-3.4689,-3.4594,-3.4443,-3.4257,-3.4061,-3.3842,-3.3615,-3.3345,-3.3073,-3.2786,-3.2421,-3.2055,-3.1654,-3.1237,-3.1001,-3.0757,-3.0426,-3.0022,-2.9266,-2.8668,-2.8444,-2.8275,-2.8014,-2.779,-2.759,-2.7335,-2.7107,-2.691,-2.6738,-2.6633,-2.6527,-2.6218,-2.5811,-2.5355,-2.499,-2.4892,-2.475,-2.4563,-2.439,-2.4216,-2.4011,-2.3819,-2.3552,-2.3283,-2.3042,-4.3597,-4.3716,-4.3781,-4.3624,-4.3252,-4.2567,-4.1812,-4.1046,-4.0315,-3.9806,-3.9679,-3.9868,-3.9873,-3.9802,-4.0021,-3.9882,-3.9818,-3.9743,-3.9735,-3.977,-3.9845,-3.9878,-3.9911,-3.9762,-3.9355,-3.8505,-3.7821,-3.7004,-3.5742,-3.5268,-3.5059,-3.5002,-3.503,-3.503,-3.5075,-3.5057,-3.5029,-3.5047,-3.5037,-3.5044,-3.5044,-3.5089,-3.5143,-3.5143,-3.5132,-3.5166,-3.5234,-3.5246,-3.5251,-3.5285,-3.532,-3.532,-3.5304,-3.5278,-3.5278,-3.5304,-3.5312,-3.5327,-3.5386,-3.5462,-3.5515,-3.5489,-3.5434,-3.5376,-3.5297,-3.5218,-3.5108,-3.5001,-3.4908,-3.479,-3.4602,-3.4484,-3.4328,-3.4136,-3.3926,-3.3698,-3.3488,-3.3241,-3.2945,-3.2672,-3.2301,-3.1947,-3.1466,-3.1021,-3.0576,-3.0326,-3.0065,-2.9649,-2.9059,-2.8525,-2.8177,-2.8029,-2.7865,-2.7665,-2.7488,-2.7181,-2.691,-2.6671,-2.6513,-2.6406,-2.6245,-2.5948,-2.5564,-2.5047,-2.4721,-2.465,-2.4492,-2.4274,-2.4171,-2.4067,-2.3789,-2.3492,-2.3313,-2.303,-2.286,-4.3303,-4.3338,-4.3511,-4.374,-4.3825,-4.32,-4.2443,-4.1712,-4.095,-4.0282,-3.9915,-4.044,-4.0434,-4.0131,-4.0565,-4.0357,-3.9887,-3.9729,-3.9665,-3.9677,-3.9677,-3.9701,-3.9724,-3.9566,-3.9025,-3.7686,-3.7227,-3.6549,-3.497,-3.4895,-3.4829,-3.48,-3.4829,-3.4878,-3.4983,-3.4936,-3.4917,-3.4917,-3.4898,-3.4917,-3.4927,-3.4936,-3.4974,-3.5001,-3.5001,-3.5047,-3.5062,-3.5079,-3.5105,-3.5157,-3.5166,-3.5193,-3.5201,-3.5182,-3.5218,-3.525,-3.5277,-3.53,-3.5327,-3.5372,-3.5393,-3.5412,-3.5369,-3.5308,-3.5218,-3.5153,-3.5047,-3.4917,-3.4791,-3.4697,-3.4547,-3.4393,-3.4209,-3.3998,-3.378,-3.3577,-3.3375,-3.3104,-3.2786,-3.2454,-3.2214,-3.1911,-3.1351,-3.0801,-3.0241,-2.9892,-2.9643,-2.9236,-2.8748,-2.8365,-2.7989,-2.7815,-2.769,-2.7488,-2.7258,-2.6974,-2.6712,-2.6472,-2.627,-2.6165,-2.5921,-2.5591,-2.5159,-2.4677,-2.4505,-2.4405,-2.4187,-2.3995,-2.3789,-2.3582,-2.336,-2.3108,-2.2939,-2.2787,-2.2604,-4.3087,-4.3178,-4.3286,-4.3426,-4.3502,-4.2992,-4.2619,-4.2292,-4.1655,-4.1194,-4.1089,-4.1402,-4.1378,-4.1138,-4.0752,-4.0583,-4.0264,-3.9608,-3.9489,-3.9489,-3.9521,-3.9551,-3.9587,-3.946,-3.8787,-3.7701,-3.7184,-3.6387,-3.4766,-3.4708,-3.4687,-3.4676,-3.4645,-3.4708,-3.481,-3.484,-3.4849,-3.4849,-3.483,-3.483,-3.482,-3.482,-3.4849,-3.4849,-3.4859,-3.487,-3.4889,-3.4898,-3.4945,-3.5001,-3.501,-3.5028,-3.5065,-3.5054,-3.51,-3.5153,-3.5162,-3.5196,-3.5234,-3.5289,-3.5327,-3.532,-3.5316,-3.5261,-3.5201,-3.5091,-3.4973,-3.4831,-3.471,-3.4583,-3.4386,-3.4293,-3.4136,-3.3895,-3.3684,-3.3459,-3.3223,-3.2898,-3.2573,-3.2232,-3.1947,-3.1428,-3.0878,-3.0452,-2.9919,-2.956,-2.9305,-2.9021,-2.8549,-2.818,-2.7825,-2.7665,-2.7488,-2.7284,-2.7067,-2.6791,-2.6553,-2.6326,-2.6111,-2.5893,-2.5605,-2.53,-2.4848,-2.4361,-2.4245,-2.4128,-2.3894,-2.3641,-2.3343,-2.3103,-2.2909,-2.2775,-2.2665,-2.2574,-2.2451,-4.2824,-4.2936,-4.3012,-4.3105,-4.3141,-4.2978,-4.2793,-4.2504,-4.1887,-4.1619,-4.1678,-4.1915,-4.1893,-4.1572,-4.1213,-4.0668,-4.0444,-3.9706,-3.9309,-3.9343,-3.94,-3.9452,-3.9502,-3.9408,-3.8563,-3.7589,-3.6987,-3.6276,-3.4647,-3.4583,-3.455,-3.4495,-3.4431,-3.4465,-3.4572,-3.4594,-3.4636,-3.4626,-3.4626,-3.4645,-3.4636,-3.4636,-3.4666,-3.4676,-3.4697,-3.4718,-3.4722,-3.4742,-3.4752,-3.4811,-3.4831,-3.486,-3.4908,-3.4936,-3.4964,-3.502,-3.5084,-3.5119,-3.5179,-3.5185,-3.5209,-3.5207,-3.5245,-3.5248,-3.517,-3.5047,-3.4927,-3.4781,-3.4666,-3.4465,-3.4305,-3.4209,-3.3998,-3.3748,-3.3512,-3.3298,-3.3055,-3.2737,-3.2421,-3.2055,-3.1654,-3.1078,-3.0464,-3.0044,-2.9605,-2.9289,-2.8982,-2.8668,-2.8372,-2.7999,-2.766,-2.7499,-2.731,-2.7119,-2.691,-2.6633,-2.642,-2.6206,-2.5962,-2.5702,-2.5481,-2.5173,-2.462,-2.4128,-2.4054,-2.3907,-2.3569,-2.33,-2.3012,-2.2739,-2.2482,-2.242,-2.2389,-2.2297,-2.2216,-4.2571,-4.2573,-4.2691,-4.2734,-4.2793,-4.2849,-4.2785,-4.2386,-4.1746,-4.1493,-4.157,-4.2474,-4.2341,-4.1679,-4.1542,-4.1037,-4.0271,-3.9533,-3.9263,-3.9197,-3.9261,-3.9315,-3.936,-3.9298,-3.8358,-3.743,-3.6721,-3.6091,-3.4573,-3.4363,-3.4328,-3.4305,-3.425,-3.4257,-3.4269,-3.4305,-3.4363,-3.4397,-3.4439,-3.4439,-3.4431,-3.4427,-3.4461,-3.4484,-3.4476,-3.4517,-3.455,-3.4572,-3.4623,-3.4655,-3.4676,-3.4718,-3.4768,-3.4788,-3.483,-3.4917,-3.503,-3.5066,-3.5092,-3.5082,-3.5091,-3.5117,-3.5145,-3.5147,-3.5075,-3.4955,-3.484,-3.4699,-3.4561,-3.4386,-3.4203,-3.4005,-3.3815,-3.3569,-3.3313,-3.3086,-3.29,-3.2607,-3.2301,-3.1947,-3.1542,-3.0998,-3.0321,-2.9804,-2.938,-2.9036,-2.8724,-2.8389,-2.8088,-2.7775,-2.7499,-2.7335,-2.7144,-2.6977,-2.6727,-2.6459,-2.6272,-2.6056,-2.5785,-2.555,-2.5299,-2.5032,-2.4476,-2.407,-2.3907,-2.3641,-2.3283,-2.2951,-2.2678,-2.2402,-2.2204,-2.2173,-2.2204,-2.2061,-2.1937,-4.2067,-4.1568,-4.1725,-4.1517,-4.1105,-4.1198,-4.1886,-4.2879,-4.2803,-4.2762,-4.2899,-4.3139,-4.2584,-4.2065,-4.1559,-4.0815,-4.007,-3.9412,-3.909,-3.9007,-3.9036,-3.9082,-3.9096,-3.8994,-3.8093,-3.7246,-3.6515,-3.5894,-3.4519,-3.4148,-3.4124,-3.4086,-3.4061,-3.4011,-3.3998,-3.3985,-3.4099,-3.4185,-3.4221,-3.4245,-3.4227,-3.4233,-3.4257,-3.4281,-3.4262,-3.4305,-3.4328,-3.4363,-3.4416,-3.4427,-3.4473,-3.4517,-3.4591,-3.4634,-3.4697,-3.4829,-3.4908,-3.4955,-3.4964,-3.5038,-3.5075,-3.5029,-3.5038,-3.502,-3.4955,-3.486,-3.4752,-3.4636,-3.4473,-3.4281,-3.408,-3.3895,-3.3666,-3.343,-3.3162,-3.2914,-3.2688,-3.2387,-3.2073,-3.16,-3.1218,-3.0699,-3.006,-2.9627,-2.9198,-2.8826,-2.8486,-2.8146,-2.785,-2.7575,-2.7321,-2.717,-2.6974,-2.6779,-2.658,-2.6326,-2.6138,-2.5921,-2.5647,-2.5425,-2.5299,-2.4947,-2.4376,-2.391,-2.3599,-2.3283,-2.2921,-2.2647,-2.2463,-2.2173,-2.1987,-2.1987,-2.1968,-2.1843,-2.1749,-4.1238,-4.0564,-4.0647,-4.0478,-4.0233,-4.0254,-4.1053,-4.2014,-4.2213,-4.2283,-4.2354,-4.2316,-4.2114,-4.1563,-4.0879,-4.027,-3.9793,-3.9099,-3.8725,-3.874,-3.8773,-3.88,-3.8829,-3.8715,-3.7862,-3.7031,-3.6268,-3.5618,-3.4373,-3.3947,-3.3921,-3.3868,-3.3847,-3.382,-3.3793,-3.378,-3.382,-3.3926,-3.4016,-3.4036,-3.4049,-3.4049,-3.4061,-3.4086,-3.4068,-3.4068,-3.4093,-3.4173,-3.4185,-3.4209,-3.4269,-3.4328,-3.4427,-3.4506,-3.4583,-3.4708,-3.478,-3.4831,-3.487,-3.4917,-3.4946,-3.4927,-3.4908,-3.4888,-3.4849,-3.4771,-3.4678,-3.4561,-3.4363,-3.4185,-3.3985,-3.378,-3.3545,-3.3301,-3.3024,-3.2719,-3.2437,-3.2161,-3.173,-3.1257,-3.0781,-3.0262,-2.9804,-2.9403,-2.899,-2.8629,-2.8259,-2.794,-2.769,-2.7448,-2.7181,-2.6989,-2.6791,-2.6592,-2.6379,-2.6192,-2.5975,-2.5729,-2.5425,-2.5257,-2.5229,-2.4848,-2.4203,-2.3675,-2.3228,-2.2939,-2.2665,-2.2543,-2.2359,-2.2049,-2.18,-2.1769,-2.1737,-2.1632,-2.1569,-4.0217,-3.9494,-3.9441,-3.9491,-3.9773,-3.9742,-3.9872,-4.0074,-4.0239,-4.0456,-4.0654,-4.0689,-4.0743,-4.0506,-3.9993,-3.9607,-3.9203,-3.8684,-3.846,-3.8478,-3.8507,-3.8538,-3.8588,-3.8475,-3.7628,-3.671,-3.5958,-3.5418,-3.4211,-3.3762,-3.3739,-3.3684,-3.3643,-3.3633,-3.3577,-3.3516,-3.3545,-3.3555,-3.3652,-3.3721,-3.3788,-3.3788,-3.3802,-3.3855,-3.3881,-3.3895,-3.3947,-3.3967,-3.3998,-3.403,-3.408,-3.4161,-3.4281,-3.4404,-3.4495,-3.4561,-3.4645,-3.4718,-3.4751,-3.48,-3.48,-3.48,-3.479,-3.4769,-3.4739,-3.4718,-3.4634,-3.4473,-3.4269,-3.4049,-3.3842,-3.3583,-3.3342,-3.307,-3.2802,-3.2505,-3.2214,-3.184,-3.1336,-3.0885,-3.0456,-2.9984,-2.9649,-2.9243,-2.8842,-2.8429,-2.8063,-2.7715,-2.7463,-2.7284,-2.7052,-2.6806,-2.6633,-2.6433,-2.6245,-2.6043,-2.5812,-2.5522,-2.5244,-2.4977,-2.4905,-2.4492,-2.4028,-2.3467,-2.2969,-2.2757,-2.2543,-2.2359,-2.2173,-2.1956,-2.1737,-2.158,-2.1474,-2.1431,-2.14,-3.9256,-3.8558,-3.8054,-3.7901,-3.7959,-3.796,-3.8015,-3.8035,-3.8072,-3.8992,-4.0166,-4.0311,-4.0005,-3.9427,-3.9317,-3.8972,-3.8428,-3.8333,-3.8203,-3.8201,-3.8234,-3.8302,-3.8352,-3.8298,-3.7419,-3.6532,-3.5798,-3.5075,-3.3948,-3.3591,-3.3563,-3.352,-3.3462,-3.3408,-3.3378,-3.3316,-3.3268,-3.3283,-3.3327,-3.3473,-3.3601,-3.3629,-3.3657,-3.3671,-3.3703,-3.3716,-3.3739,-3.3748,-3.3802,-3.3855,-3.3921,-3.4011,-3.4148,-3.4233,-3.4305,-3.4374,-3.4484,-3.4572,-3.4655,-3.4658,-3.4687,-3.4697,-3.4697,-3.4687,-3.4676,-3.4645,-3.4547,-3.437,-3.4161,-3.3934,-3.3694,-3.3412,-3.3129,-3.2848,-3.2573,-3.2283,-3.1984,-3.147,-3.0945,-3.0539,-3.0156,-2.981,-2.9454,-2.9082,-2.8677,-2.8268,-2.79,-2.7549,-2.7284,-2.7052,-2.6829,-2.6606,-2.6474,-2.6286,-2.6098,-2.588,-2.5647,-2.5453,-2.5159,-2.4905,-2.462,-2.4057,-2.3514,-2.315,-2.2751,-2.2555,-2.2359,-2.2142,-2.1956,-2.1769,-2.1643,-2.1474,-2.136,-2.1285,-2.1296,-3.8281,-3.7639,-3.7318,-3.7201,-3.7203,-3.7203,-3.7259,-3.7297,-3.7297,-3.7908,-3.8864,-3.8955,-3.8759,-3.8383,-3.8438,-3.8385,-3.7863,-3.7897,-3.7914,-3.7914,-3.7966,-3.8054,-3.8088,-3.8069,-3.7036,-3.6089,-3.4981,-3.4078,-3.3495,-3.3342,-3.3298,-3.3316,-3.3244,-3.3214,-3.3198,-3.3135,-3.3104,-3.3135,-3.3104,-3.3193,-3.339,-3.3386,-3.3448,-3.3481,-3.3524,-3.3553,-3.3605,-3.3629,-3.3671,-3.3726,-3.378,-3.3842,-3.3947,-3.4036,-3.4111,-3.4209,-3.4305,-3.4397,-3.4495,-3.4528,-3.4558,-3.4558,-3.4569,-3.4528,-3.4473,-3.4439,-3.4404,-3.4209,-3.4023,-3.3802,-3.3615,-3.3357,-3.3021,-3.2737,-3.2387,-3.2055,-3.1581,-3.1041,-3.0617,-3.0279,-2.9892,-2.9544,-2.9198,-2.8842,-2.8429,-2.8063,-2.7675,-2.7372,-2.7104,-2.6843,-2.6592,-2.6406,-2.6245,-2.6098,-2.5893,-2.5716,-2.5508,-2.5285,-2.5075,-2.4706,-2.4332,-2.3632,-2.3047,-2.28,-2.2586,-2.2389,-2.2204,-2.1987,-2.1788,-2.16,-2.1506,-2.14,-2.1285,-2.1169,-2.1138,-3.7437,-3.6843,-3.6908,-3.6989,-3.705,-3.7069,-3.7126,-3.7239,-3.7259,-3.7259,-3.7419,-3.7477,-3.7354,-3.7429,-3.7521,-3.7558,-3.7577,-3.7613,-3.7649,-3.7685,-3.7757,-3.7775,-3.781,-3.7756,-3.6801,-3.5504,-3.4189,-3.3648,-3.3198,-3.3132,-3.3117,-3.307,-3.3055,-3.3055,-3.3039,-3.3024,-3.2993,-3.2977,-3.2961,-3.2993,-3.3055,-3.3086,-3.3226,-3.3319,-3.3364,-3.3437,-3.3506,-3.3534,-3.353,-3.3591,-3.3633,-3.3698,-3.3748,-3.386,-3.3965,-3.4036,-3.4111,-3.4233,-3.4347,-3.4351,-3.4351,-3.434,-3.4351,-3.4358,-3.4281,-3.4221,-3.4173,-3.4049,-3.3855,-3.3666,-3.3488,-3.3223,-3.288,-3.2469,-3.2109,-3.1695,-3.1128,-3.0625,-3.0293,-2.9946,-2.9601,-2.9225,-2.8889,-2.8542,-2.8195,-2.7825,-2.7514,-2.7222,-2.691,-2.6633,-2.6379,-2.6218,-2.6056,-2.5866,-2.5729,-2.555,-2.5341,-2.5131,-2.4892,-2.4492,-2.4041,-2.3467,-2.2987,-2.2647,-2.2432,-2.2266,-2.208,-2.1862,-2.1632,-2.1463,-2.1368,-2.1273,-2.1146,-2.1063,-2.0999,-3.6783,-3.6725,-3.6763,-3.6806,-3.6851,-3.6851,-3.693,-3.7046,-3.7066,-3.7066,-3.7066,-3.7085,-3.7145,-3.7316,-3.7334,-3.7353,-3.7372,-3.7392,-3.7391,-3.7391,-3.7466,-3.7484,-3.7415,-3.7256,-3.6664,-3.5372,-3.397,-3.3265,-3.3008,-3.2995,-3.2979,-3.293,-3.2868,-3.282,-3.2703,-3.2719,-3.2736,-3.2752,-3.2736,-3.2736,-3.2818,-3.2914,-3.3086,-3.3147,-3.3147,-3.318,-3.3211,-3.3193,-3.3256,-3.3364,-3.3466,-3.352,-3.3573,-3.3657,-3.3753,-3.3847,-3.3908,-3.4049,-3.4136,-3.4161,-3.413,-3.408,-3.4124,-3.4185,-3.4111,-3.4011,-3.3934,-3.382,-3.3629,-3.3441,-3.3238,-3.2912,-3.2571,-3.2039,-3.1591,-3.1108,-3.0583,-3.0199,-2.9863,-2.9496,-2.9125,-2.8816,-2.8529,-2.8218,-2.7972,-2.7655,-2.7437,-2.7104,-2.6779,-2.6474,-2.6206,-2.6002,-2.5839,-2.5784,-2.5702,-2.5397,-2.5174,-2.4977,-2.4679,-2.4261,-2.3835,-2.3407,-2.2969,-2.2432,-2.2247,-2.2142,-2.1925,-2.1694,-2.1557,-2.14,-2.1285,-2.119,-2.1063,-2.0935,-2.0882]},{"header":{"parameterUnit":"m.s-1","parameterCategory":1,"la1":31.0,"la2":29.5877,"lo1":-88.7671,"lo2":-86.6584,"dx":0.0162,"dy":0.0185,"nx":115,"ny":88,"refTime":"2022-12-10T18:00:00:Z","depth":0,"parameterNumber":3,"parameterNumberName":"V-component_of_WINDS"},"data":[0.0,0.0,0.0,0.0,0.0,0.0,0.0,0.0,0.0,0.0,0.0,0.0,0.0,0.0,0.0,0.0,0.0,0.0,0.0,0.0,0.0,0.0,0.0,0.0,0.0,0.0,0.0,0.0,0.0,0.0,0.0,0.0,0.0,0.0,0.0,0.0,0.0,0.0,0.0,0.0,0.0,0.0,0.0,0.0,0.0,0.0,0.0,0.0,0.0,0.0,0.0,0.0,0.0,0.0,0.0,0.0,0.0,0.0,0.0,0.0,0.0,0.0,0.0,0.0,0.0,0.0,0.0,0.0,0.0,0.0,0.0,0.0,0.0,0.0,0.0,0.0,0.0,0.0,0.0,0.0,0.0,0.0,0.0,0.0,0.0,0.0,0.0,0.0,0.0,0.0,0.0,0.0,0.0,0.0,0.0,0.0,0.0,0.0,0.0,0.0,0.0,0.0,0.0,0.0,0.0,0.0,0.0,0.0,0.0,0.0,0.0,0.0,0.0,0.0,0.0,0.0,0.0,0.0,0.0,0.0,0.0,0.0,0.0,0.0,0.0,0.0,0.0,0.0,0.0,0.0,0.0,0.0,0.0,0.0,0.0,0.0,0.0,0.0,0.0,0.0,0.0,0.0,0.0,0.0,0.0,0.0,0.0,0.0,0.0,0.0,0.0,0.0,0.0,0.0,0.0,0.0,0.0,0.0,0.0,0.0,0.0,0.0,0.0,0.0,0.0,0.0,0.0,0.0,0.0,0.0,0.0,0.0,0.0,0.0,0.0,0.0,0.0,0.0,0.0,0.0,0.0,0.0,0.0,0.0,0.0,0.0,0.0,0.0,0.0,0.0,0.0,0.0,0.0,0.0,0.0,0.0,0.0,0.0,0.0,0.0,0.0,0.0,0.0,0.0,0.0,0.0,0.0,0.0,0.0,0.0,0.0,0.0,0.0,0.0,0.0,0.0,0.0,0.0,0.0,0.0,0.0,0.0,0.0,0.0,0.0,0.0,0.0,0.0,0.0,0.0,0.0,0.0,0.0,0.0,0.0,0.0,0.0,0.0,0.0,0.0,0.0,0.0,0.0,0.0,0.0,0.0,0.0,0.0,0.0,0.0,0.0,0.0,0.0,0.0,0.0,0.0,0.0,0.0,0.0,0.0,0.0,0.0,0.0,0.0,0.0,0.0,0.0,0.0,0.0,0.0,0.0,0.0,0.0,0.0,0.0,0.0,0.0,0.0,0.0,0.0,0.0,0.0,0.0,0.0,0.0,0.0,0.0,0.0,0.0,0.0,0.0,0.0,0.0,0.0,0.0,0.0,0.0,0.0,0.0,0.0,0.0,0.0,0.0,0.0,0.0,0.0,0.0,0.0,0.0,0.0,0.0,0.0,0.0,0.0,0.0,0.0,0.0,0.0,0.0,0.0,0.0,0.0,0.0,0.0,0.0,0.0,0.0,0.0,0.0,0.0,0.0,0.0,0.0,0.0,0.0,0.0,0.0,0.0,0.0,0.0,0.0,0.0,0.0,0.0,0.0,0.0,0.0,0.0,0.0,0.0,0.0,0.0,0.0,0.0,0.0,0.0,0.0,0.0,0.0,0.0,0.0,0.0,0.0,0.0,0.0,0.0,0.0,0.0,0.0,0.0,0.0,0.0,0.0,0.0,0.0,0.0,0.0,0.0,0.0,0.0,0.0,0.0,0.0,0.0,0.0,0.0,0.0,0.0,0.0,0.0,0.0,0.0,0.0,0.0,0.0,0.0,0.0,0.0,0.0,0.0,0.0,0.0,0.0,0.0,0.0,0.0,0.0,0.0,0.0,0.0,0.0,0.0,0.0,0.0,0.0,0.0,0.0,0.0,0.0,0.0,0.0,0.0,0.0,0.0,0.0,0.0,0.0,0.0,0.0,0.0,0.0,0.0,0.0,0.0,0.0,0.0,0.0,0.0,0.0,0.0,0.0,0.0,0.0,0.0,0.0,0.0,0.0,0.0,0.0,0.0,0.0,0.0,0.0,0.0,0.0,0.0,0.0,0.0,0.0,0.0,0.0,0.0,0.0,0.0,0.0,0.0,0.0,0.0,0.0,0.0,0.0,0.0,0.0,0.0,0.0,0.0,0.0,0.0,0.0,0.0,0.0,0.0,0.0,0.0,0.0,0.0,0.0,0.0,0.0,0.0,0.0,0.0,0.0,0.0,0.0,0.0,0.0,0.0,0.0,0.0,0.0,0.0,0.0,0.0,0.0,0.0,0.0,0.0,0.0,0.0,0.0,0.0,0.0,0.0,0.0,0.0,0.0,0.0,0.0,0.0,0.0,0.0,0.0,0.0,0.0,0.0,0.0,0.0,0.0,0.0,0.0,0.0,0.0,0.0,0.0,0.0,0.0,0.0,0.0,0.0,0.0,0.0,0.0,0.0,0.0,0.0,0.0,0.0,0.0,0.0,0.0,0.0,0.0,0.0,0.0,0.0,0.0,0.0,0.0,0.0,0.0,0.0,0.0,0.0,0.0,0.0,0.0,0.0,0.0,0.0,0.0,0.0,0.0,0.0,0.0,0.0,0.0,0.0,0.0,0.0,0.0,0.0,0.0,0.0,0.0,0.0,0.0,0.0,0.0,0.0,0.0,0.0,0.0,0.0,0.0,0.0,0.0,0.0,0.0,0.0,0.0,0.0,0.0,0.0,0.0,0.0,0.0,0.0,0.0,0.0,0.0,0.0,0.0,0.0,0.0,0.0,0.0,0.0,0.0,0.0,0.0,0.0,0.0,0.0,0.0,0.0,0.0,0.0,0.0,0.0,0.0,0.0,0.0,0.0,0.0,0.0,0.0,0.0,0.0,0.0,0.0,0.0,0.0,0.0,0.0,0.0,0.0,0.0,0.0,0.0,0.0,0.0,0.0,0.0,0.0,0.0,0.0,0.0,0.0,0.0,0.0,0.0,0.0,0.0,0.0,0.0,0.0,0.0,0.0,0.0,0.0,0.0,0.0,0.0,0.0,0.0,0.0,0.0,0.0,0.0,0.0,0.0,0.0,0.0,0.0,0.0,0.0,0.0,0.0,0.0,0.0,0.0,0.0,0.0,0.0,0.0,0.0,0.0,0.0,0.0,0.0,0.0,0.0,0.0,0.0,0.0,0.0,0.0,0.0,0.0,0.0,0.0,0.0,0.0,0.0,0.0,0.0,0.0,0.0,0.0,0.0,0.0,0.0,0.0,0.0,0.0,0.0,0.0,0.0,0.0,0.0,0.0,0.0,0.0,0.0,0.0,0.0,0.0,0.0,0.0,0.0,0.0,0.0,0.0,0.0,0.0,0.0,0.0,0.0,0.0,0.0,0.0,0.0,0.0,0.0,0.0,0.0,0.0,0.0,0.0,0.0,0.0,0.0,0.0,0.0,0.0,0.0,0.0,0.0,0.0,0.0,0.0,0.0,0.0,0.0,0.0,0.0,0.0,0.0,0.0,0.0,0.0,0.0,0.0,0.0,0.0,0.0,0.0,0.0,0.0,0.0,0.0,0.0,0.0,0.0,0.0,0.0,0.0,0.0,0.0,0.0,0.0,0.0,0.0,0.0,0.0,0.0,0.0,0.0,0.0,0.0,0.0,0.0,0.0,0.0,0.0,0.0,0.0,0.0,0.0,0.0,0.0,0.0,0.0,0.0,0.0,0.0,0.0,0.0,0.0,0.0,0.0,0.0,0.0,0.0,0.0,0.0,0.0,0.0,0.0,0.0,0.0,0.0,0.0,0.0,0.0,0.0,0.0,0.0,0.0,0.0,0.0,0.0,0.0,0.0,0.0,0.0,0.0,0.0,0.0,0.0,0.0,0.0,0.0,0.0,0.0,0.0,0.0,0.0,0.0,0.0,0.0,0.0,0.0,0.0,0.0,0.0,0.0,0.0,0.0,0.0,0.0,0.0,0.0,0.0,0.0,0.0,0.0,0.0,0.0,0.0,0.0,0.0,0.0,0.0,0.0,0.0,0.0,0.0,0.0,0.0,0.0,0.0,0.0,0.0,0.0,0.0,0.0,0.0,0.0,0.0,0.0,0.0,0.0,0.0,0.0,0.0,0.0,0.0,0.0,0.0,0.0,0.0,0.0,0.0,0.0,0.0,0.0,0.0,0.0,0.0,0.0,0.0,0.0,0.0,0.0,0.0,0.0,0.0,0.0,0.0,0.0,0.0,0.0,0.0,0.0,0.0,0.0,0.0,0.0,0.0,0.0,0.0,0.0,0.0,0.0,0.0,0.0,0.0,0.0,0.0,0.0,-0.2567,0.0,0.0,0.0,-0.1905,0.0,0.0,0.0,0.0,0.0,0.0,0.0,0.0,0.0,0.0,0.0,0.0,0.0,0.0,0.0,0.0,0.0,0.0,0.0,0.0,0.0,0.0,0.0,0.0,0.0,0.0,0.0,0.0,0.0,0.0,0.0,0.0,0.0,0.0,0.0,0.0,0.0,0.0,0.0,0.0,0.0,0.0,0.0,0.0,0.0,0.0,0.0,0.0,0.0,0.0,0.0,0.0,0.0,0.0,0.0,0.0,0.0,0.0,0.0,0.0,0.0,0.0,0.0,0.0,0.0,0.0,0.0,0.0,0.0,0.0,0.0,0.0,0.0,0.0,0.0,0.0,0.0,0.0,0.0,0.0,0.0,0.0,0.0,0.0,0.0,0.0,0.0,0.0,0.0,0.0,0.0,0.0,0.0,0.0,0.0,0.0,0.0,0.0,0.0,0.0,0.0,0.0,0.0,0.0,0.0,0.0,0.0,0.0,0.0,0.0,-0.2557,-0.2311,-0.214,-0.1975,-0.1803,0.0,0.0,0.0,0.0,0.0,0.0,0.0,0.0,0.0,0.0,0.0,0.0,0.0,0.0,0.0,0.0,0.0,0.0,0.0,0.0,0.0,0.0,0.0,0.0,0.0,0.0,0.0,0.0,0.0,0.0,0.0,0.0,0.0,0.0,0.0,0.0,0.0,0.0,0.0,0.0,0.0,0.0,0.0,0.0,0.0,0.0,0.0,0.0,0.0,0.0,0.0,0.0,0.0,0.0,0.0,0.0,0.0,0.0,0.0,0.0,0.0,0.0,0.0,0.0,0.0,0.0,0.0,0.0,0.0,0.0,0.0,0.0,0.0,0.0,0.0,0.0,0.0,0.0,0.0,0.0,0.0,0.0,0.0,0.0,0.0,0.0,0.0,0.0,0.0,0.0,0.0,0.0,0.0,0.0,0.0,0.0,0.0,0.0,0.0,0.0,0.0,0.0,0.0,0.0,0.0,0.0,0.0,0.0,0.0,0.0,0.0,0.0,-0.2107,-0.1883,-0.1615,0.0,0.0,0.0,0.0,0.0,0.0,0.0,0.0,0.0,0.0,0.0,0.0,0.0,0.0,0.0,0.0,0.0,0.0,0.0,0.0,0.0,0.0,0.0,0.0,0.0,0.0,0.0,0.0,0.0,0.0,0.0,0.0,0.0,0.0,0.0,0.0,0.0,0.0,0.0,0.0,0.0,0.0,0.0,0.0,0.0,0.0,0.0,0.0,0.0,0.0,0.0,0.0,0.0,0.0,0.0,0.0,0.0,0.0,0.0,0.0,0.0,0.0,0.0,0.0,0.0,0.0,0.0,0.0,0.0,0.0,0.0,0.0,0.0,0.0,0.0,0.0,0.0,0.0,0.0,0.0,0.0,0.0,0.0,0.0,0.0,0.0,0.0,0.0,0.0,0.0,0.0,0.0,0.0,0.0,0.0,0.0,0.0,0.0,0.0,0.0,0.0,0.0,0.0,0.0,0.0,0.0,0.0,0.0,0.0,0.0,-0.2605,-0.2392,-0.2129,0.0,-0.1358,0.0,0.0,0.0,0.0,0.0,0.0,0.0,0.0,0.0,0.0,0.0,0.0,0.0,0.0,0.0,0.0,0.0,0.0,0.0,0.0,0.0,0.0,0.0,0.0,0.0,0.0,0.0,0.0,0.0,0.0,0.0,0.0,0.0,0.0,0.0,0.0,0.0,0.0,0.0,0.0,0.0,0.0,0.0,0.0,0.0,0.0,0.0,0.0,0.0,0.0,0.0,0.0,0.0,0.0,0.0,0.0,0.0,0.0,0.0,0.0,0.0,0.0,0.0,0.0,0.0,0.0,0.0,0.0,0.0,0.0,0.0,0.0,0.0,0.0,0.0,0.0,0.0,0.0,0.0,0.0,0.0,0.0,0.0,0.0,0.0,0.0,0.0,0.0,0.0,0.0,0.0,0.0,0.0,0.0,0.0,0.0,0.0,0.0,0.0,0.0,0.0,0.0,0.0,0.0,0.0,0.0,0.0,0.0,0.0,0.0,-0.2605,-0.2414,-0.1982,-0.1604,0.0,0.0,0.0,0.0,0.0,0.0,0.0,0.0,0.0,0.0,0.0,0.0,0.0,0.0,0.0,0.0,0.0,0.0,0.0,0.0,0.0,0.0,0.0,0.0,0.0,0.0,0.0,0.0,0.0,0.0,0.0,0.0,0.0,0.0,0.0,0.0,0.0,0.0,0.0,0.0,0.0,0.0,0.0,0.0,0.0,0.0,0.0,0.0,0.0,0.0,0.0,0.0,0.0,0.0,0.0,0.0,0.0,0.0,0.0,0.0,0.0,0.0,0.0,0.0,0.0,0.0,0.0,0.0,0.0,0.0,0.0,0.0,0.0,0.0,0.0,0.0,0.0,0.0,0.0,0.0,0.0,0.0,0.0,0.0,0.0,0.0,0.0,0.0,0.0,0.0,0.0,0.0,0.0,0.0,0.0,0.0,0.0,0.0,0.0,0.0,0.0,0.0,0.0,0.0,0.0,0.0,0.0,0.0,0.0,0.0,-0.2778,-0.2572,-0.2289,-0.1854,-0.148,-0.1172,0.0,0.0,0.0,0.0,0.0,0.0,0.0,0.0,0.0,0.0,0.0,0.0,0.0,0.0,0.0,0.0,0.0,0.0,0.0,0.0,0.0,0.0,0.0,0.0,0.0,0.0,0.0,0.0,0.0,0.0,0.0,0.0,0.0,0.0,0.0,0.0,0.0,0.0,0.0,0.0,0.0,0.0,0.0,0.0,0.0,0.0,0.0,0.0,0.0,0.0,0.0,0.0,0.0,0.0,0.0,0.0,0.0,0.0,0.0,0.0,0.0,0.0,0.0,0.0,0.0,0.0,0.0,0.0,0.0,0.0,0.0,0.0,0.0,0.0,0.0,0.0,0.0,0.0,0.0,0.0,0.0,0.0,0.0,0.0,0.0,0.0,0.0,0.0,0.0,0.0,0.0,0.0,0.0,0.0,0.0,0.0,0.0,0.0,0.0,0.0,0.0,0.0,0.0,0.0,0.0,0.0,0.0,0.0,-0.2998,-0.2794,-0.2485,-0.203,-0.1748,-0.1435,0.0,0.0,0.0,0.0,0.0,0.0,0.0,0.0,0.0,0.0,0.0,0.0,0.0,0.0,0.0,0.0,0.0,0.0,0.0,0.0,0.0,0.0,0.0,0.0,0.0,0.0,0.0,0.0,0.0,0.0,0.0,0.0,0.0,0.0,0.0,0.0,0.0,0.0,0.0,0.0,0.0,0.0,0.0,0.0,0.0,0.0,0.0,0.0,0.0,0.0,0.0,0.0,0.0,0.0,0.0,0.0,0.0,0.0,0.0,0.0,0.0,0.0,0.0,0.0,0.0,0.0,0.0,0.0,0.0,0.0,0.0,0.0,0.0,0.0,0.0,0.0,0.0,0.0,0.0,0.0,0.0,0.0,0.0,0.0,0.0,0.0,0.0,0.0,0.0,0.0,0.0,0.0,0.0,0.0,0.0,0.0,0.0,0.0,0.0,0.0,0.0,0.0,0.0,0.0,0.0,0.0,0.0,0.0,0.0,-0.3057,-0.274,-0.2387,-0.2008,-0.177,-0.1527,0.0,0.0,0.0,0.0,0.0,0.0,0.0,0.0,0.0,0.0,0.0,0.0,0.0,0.0,0.0,0.0,0.0,0.0,0.0,0.0,0.0,0.0,0.0,0.0,0.0,0.0,0.0,0.0,0.0,0.0,0.0,0.0,0.0,0.0,0.0,0.0,0.0,0.0,0.0,0.0,0.0,0.0,0.0,0.0,0.0,0.0,0.0,0.0,0.0,0.0,0.0,0.0,0.0,0.0,0.0,0.0,0.0,0.0,0.0,0.0,0.0,0.0,0.0,0.0,0.0,0.0,0.0,0.0,0.0,0.0,0.0,0.0,0.0,0.0,0.0,0.0,0.0,0.0,0.0,0.0,0.0,0.0,0.0,0.0,0.0,0.0,0.0,0.0,0.0,0.0,0.0,0.0,0.0,0.0,0.0,0.0,0.0,0.0,0.0,0.0,0.0,0.0,0.0,0.0,0.0,0.0,0.0,0.0,0.0,-0.3062,-0.2735,-0.2387,-0.2037,-0.1839,-0.1604,0.0,0.0,0.0,0.0,0.0,0.0,0.0,0.0,0.0,0.0,0.0,0.0,0.0,0.0,0.0,0.0,0.0,0.0,0.0,0.0,0.0,0.0,0.0,0.0,0.0,0.0,0.0,0.0,0.0,0.0,0.0,0.0,0.0,0.0,0.0,0.0,0.0,0.0,0.0,0.0,0.0,0.0,0.0,0.0,0.0,0.0,0.0,0.0,0.0,0.0,0.0,0.0,0.0,0.0,0.0,0.0,0.0,0.0,0.0,0.0,0.0,0.0,0.0,0.0,0.0,0.0,0.0,0.0,0.0,0.0,0.0,0.0,0.0,0.0,0.0,0.0,0.0,0.0,0.0,0.0,0.0,0.0,0.0,0.0,0.0,0.0,0.0,0.0,0.0,0.0,0.0,0.0,0.0,0.0,0.0,0.0,0.0,0.0,0.0,0.0,0.0,0.0,0.0,0.0,0.0,0.0,0.0,0.0,-0.3364,-0.3014,-0.2805,-0.2517,-0.2132,-0.192,-0.164,0.0,0.0,0.0,0.0,0.0,0.0,0.0,0.0,0.0,0.0,0.0,0.0,0.0,0.0,0.0,0.0,0.0,0.0,0.0,0.0,0.0,0.0,0.0,0.0,0.0,0.0,0.0,0.0,0.0,0.0,0.0,0.0,0.0,0.0,0.0,0.0,0.0,0.0,0.0,0.0,0.0,0.0,0.0,0.0,0.0,0.0,0.0,0.0,0.0,0.0,0.0,0.0,0.0,0.0,0.0,0.0,0.0,0.0,0.0,0.0,0.0,0.0,0.0,0.0,0.0,0.0,0.0,0.0,0.0,0.0,0.0,0.0,0.0,0.0,0.0,0.0,0.0,0.0,0.0,0.0,0.0,0.0,0.0,0.0,0.0,0.0,0.0,0.0,0.0,0.0,0.0,0.0,0.0,0.0,0.0,0.0,0.0,0.0,0.0,0.0,0.0,0.0,0.0,0.0,0.0,0.0,0.0,0.0,0.0,-0.3278,-0.3074,-0.2823,-0.2513,-0.2283,-0.1948,0.0,0.0,0.0,0.0,0.0,0.0,0.0,0.0,0.0,0.0,0.0,0.0,0.0,0.0,0.0,0.0,0.0,0.0,0.0,0.0,0.0,0.0,0.0,0.0,0.0,0.0,0.0,0.0,0.0,0.0,0.0,0.0,0.0,0.0,0.0,0.0,0.0,0.0,0.0,0.0,0.0,0.0,0.0,0.0,0.0,0.0,0.0,0.0,0.0,0.0,0.0,0.0,0.0,0.0,0.0,0.0,0.0,0.0,0.0,0.0,0.0,0.0,0.0,0.0,0.0,0.0,0.0,0.0,0.0,0.0,0.0,0.0,0.0,0.0,0.0,0.0,0.0,0.0,0.0,0.0,0.0,0.0,0.0,0.0,0.0,0.0,0.0,0.0,0.0,0.0,0.0,0.0,0.0,0.0,0.0,0.0,0.0,0.0,0.0,0.0,0.0,0.0,0.0,0.0,0.0,0.0,0.0,0.0,0.0,-0.3843,-0.3531,-0.3203,-0.2907,-0.2549,-0.217,-0.1768,0.0,0.0,0.0,0.0,0.0,0.0,0.0,0.0,0.0,0.0,0.0,0.0,0.0,0.0,0.0,0.0,0.0,0.0,0.0,0.0,0.0,0.0,0.0,0.0,0.0,0.0,0.0,0.0,0.0,0.0,0.0,0.0,0.0,0.0,0.0,0.0,0.0,0.0,0.0,0.0,0.0,0.0,0.0,0.0,0.0,0.0,0.0,0.0,0.0,0.0,0.0,0.0,0.0,0.0,0.0,0.0,0.0,0.0,0.0,0.0,0.0,0.0,0.0,0.0,0.0,0.0,0.0,0.0,0.0,0.0,0.0,0.0,0.0,0.0,0.0,0.0,0.0,0.0,0.0,0.0,0.0,0.0,0.0,0.0,0.0,0.0,0.0,0.0,0.0,0.0,0.0,0.0,0.0,0.0,0.0,0.0,0.0,0.0,0.0,0.0,0.0,0.0,0.0,0.0,0.0,0.0,0.0,0.0,-0.4629,-0.4125,-0.3656,-0.3236,-0.2784,-0.2366,0.0,0.0,0.0,0.0,0.0,0.0,0.0,0.0,0.0,0.0,0.0,0.0,0.0,0.0,0.0,0.0,0.0,0.0,0.0,0.0,0.0,0.0,0.0,0.0,0.0,0.0,0.0,0.0,0.0,0.0,0.0,0.0,0.0,0.0,0.0,0.0,0.0,0.0,0.0,0.0,0.0,0.0,0.0,0.0,0.0,0.0,0.0,0.0,0.0,0.0,0.0,0.0,0.0,0.0,0.0,0.0,0.0,0.0,0.0,0.0,0.0,0.0,0.0,0.0,0.0,0.0,0.0,0.0,0.0,0.0,0.0,0.0,0.0,0.0,0.0,0.0,0.0,0.0,0.0,0.0,0.0,0.0,0.0,0.0,0.0,0.0,0.0,0.0,0.0,0.0,0.0,0.0,0.0,0.0,0.0,0.0,0.0,0.0,0.0,0.0,0.0,0.0,0.0,0.0,0.0,0.0,0.0,0.0,0.0,-0.5183,-0.4769,-0.4226,-0.3598,-0.3212,-0.2763,0.0,0.0,0.0,0.0,0.0,0.0,0.0,0.0,0.0,0.0,0.0,0.0,0.0,0.0,0.0,0.0,0.0,0.0,0.0,0.0,0.0,0.0,0.0,0.0,0.0,0.0,0.0,0.0,0.0,0.0,0.0,0.0,0.0,0.0,0.0,0.0,0.0,0.0,0.0,0.0,0.0,0.0,0.0,0.0,0.0,0.0,0.0,0.0,0.0,0.0,0.0,0.0,0.0,0.0,0.0,0.0,0.0,0.0,0.0,0.0,0.0,0.0,0.0,0.0,0.0,0.0,0.0,0.0,0.0,0.0,0.0,0.0,0.0,0.0,0.0,0.0,0.0,0.0,0.0,0.0,0.0,0.0,0.0,0.0,0.0,0.0,0.0,0.0,0.0,0.0,0.0,0.0,0.0,0.0,0.0,0.0,0.0,0.0,0.0,0.0,0.0,0.0,0.0,0.0,0.0,0.0,0.0,0.0,-0.5496,-0.5526,-0.5265,-0.4789,-0.4087,-0.3572,-0.3012,0.0,0.0,0.0,0.0,0.0,0.0,0.0,0.0,0.0,0.0,0.0,0.0,0.0,0.0,0.0,0.0,0.0,0.0,0.0,0.0,0.0,0.0,0.0,0.0,0.0,0.0,0.0,0.0,0.0,0.0,0.0,0.0,0.0,0.0,0.0,0.0,0.0,0.0,0.0,0.0,0.0,0.0,0.0,0.0,0.0,0.0,0.0,0.0,0.0,0.0,0.0,0.0,0.0,0.0,0.0,0.0,0.0,0.0,0.0,0.0,0.0,0.0,0.0,0.0,0.0,0.0,0.0,0.0,0.0,0.0,0.0,0.0,0.0,0.0,0.0,0.0,0.0,0.0,0.0,0.0,0.0,0.0,0.0,0.0,0.0,0.0,0.0,0.0,0.0,0.0,0.0,0.0,0.0,0.0,0.0,0.0,0.0,0.0,0.0,0.0,0.0,0.0,0.0,0.0,0.0,0.0,0.0,0.0,-0.5751,-0.5758,-0.565,-0.5298,-0.4642,-0.3879,-0.3198,0.0,0.0,0.0,0.0,0.0,0.0,0.0,0.0,0.0,0.0,0.0,0.0,0.0,0.0,0.0,0.0,0.0,0.0,0.0,0.0,0.0,0.0,0.0,0.0,0.0,0.0,0.0,0.0,0.0,0.0,0.0,0.0,0.0,0.0,0.0,0.0,0.0,0.0,0.0,0.0,0.0,0.0,0.0,0.0,0.0,0.0,0.0,0.0,0.0,0.0,0.0,0.0,0.0,0.0,0.0,0.0,0.0,0.0,0.0,0.0,0.0,0.0,0.0,0.0,0.0,0.0,0.0,0.0,0.0,0.0,0.0,0.0,0.0,0.0,0.0,0.0,0.0,0.0,0.0,0.0,0.0,0.0,0.0,0.0,0.0,0.0,0.0,0.0,0.0,0.0,0.0,0.0,0.0,0.0,0.0,0.0,0.0,0.0,0.0,0.0,0.0,0.0,0.0,0.0,0.0,0.0,0.0,0.0,-0.6119,-0.6174,-0.5794,-0.538,-0.492,-0.4287,-0.3577,0.0,0.0,0.0,0.0,0.0,0.0,0.0,0.0,0.0,0.0,0.0,0.0,0.0,0.0,0.0,0.0,0.0,0.0,0.0,0.0,0.0,0.0,0.0,0.0,0.0,0.0,0.0,0.0,0.0,0.0,0.0,0.0,0.0,0.0,0.0,0.0,0.0,0.0,0.0,0.0,0.0,0.0,0.0,0.0,0.0,0.0,0.0,0.0,0.6556,0.0,0.0,0.0,0.0,0.0,0.0,0.0,0.0,0.0,0.0,0.0,0.0,0.0,0.0,0.0,0.0,0.0,0.0,0.0,0.0,0.0,0.0,0.0,0.0,0.0,0.0,0.0,0.0,0.0,0.0,0.0,0.0,0.0,0.0,0.0,0.0,0.0,0.0,0.0,0.0,0.0,0.0,0.0,0.0,0.0,0.0,0.0,0.0,0.0,0.0,0.0,0.0,0.0,0.0,0.0,0.0,0.0,0.0,0.0,-0.6428,-0.6436,-0.6135,-0.572,-0.5203,-0.4576,-0.3825,0.0,0.0,0.0,0.0,0.0,0.0,0.0,0.0,0.0,0.0,0.0,0.0,0.0,0.0,0.0,0.0,0.0,0.0,0.0,0.0,0.0,0.0,0.0,0.0,0.0,0.0,0.0,0.0,0.0,0.0,0.0,0.0,0.0,0.0,0.0,0.0,0.0,0.0,0.0,0.0,0.0,0.0,0.0,0.0,0.0,0.0,0.0,0.0,0.0,0.0,0.0,0.0,0.0,0.0,0.0,0.0,0.0,0.0,0.0,0.0,0.0,0.0,0.0,0.0,0.0,0.0,0.0,0.0,0.0,0.0,0.0,0.0,0.0,0.0,0.0,0.0,0.0,0.0,0.0,0.0,0.0,0.0,0.0,0.0,0.0,0.0,0.0,0.0,0.0,0.0,0.0,0.0,0.0,0.0,0.0,0.0,0.0,0.0,0.0,0.0,0.0,0.0,0.0,0.0,0.0,0.0,0.0,-0.652,-0.6654,-0.6653,-0.6454,-0.6066,-0.5488,-0.4763,-0.4016,-0.3213,0.0,0.0,0.0,0.0,0.0,0.0,0.0,0.0,0.0,0.0,0.0,0.0,0.0,0.0,0.0,0.0,0.0,0.0,0.0,0.0,0.0,0.0,0.0,0.0,0.0,0.0,0.0,0.0,0.0,0.0,0.0,0.0,0.0,0.0,0.0,0.0,0.0,0.0,0.3209,0.4767,0.0,0.0,0.0,0.0,0.0,0.0,0.0,0.0,0.7578,0.0,0.0,0.0,0.0,0.0,0.0,0.0,0.0,0.0,0.0,0.0,0.0,0.0,0.0,0.0,0.0,0.0,0.0,0.0,0.0,0.0,0.0,0.0,0.0,0.0,0.0,0.0,0.0,0.0,0.0,0.0,0.0,0.0,0.0,0.0,0.0,0.0,0.0,0.0,0.0,0.0,0.0,0.0,0.0,0.0,0.0,0.0,0.0,0.0,0.0,0.0,0.0,0.0,0.0,0.0,0.0,-0.674,-0.6579,-0.6605,-0.6906,-0.6365,-0.599,-0.5805,-0.4857,-0.4076,-0.3521,0.0,0.0,0.0,0.0,0.0,0.0,0.0,0.0,0.0,0.0,0.0,0.0,0.0,0.0,0.0,0.0,0.0,0.0,0.0,0.0,0.0,0.0,0.0,0.0,0.0,0.0,0.0,0.0,0.0,0.0,0.0,0.0,0.0,0.0,0.0,0.0,0.0,0.0,0.0,0.551,0.6778,0.0,0.0,0.0,0.0,0.0,0.0,0.0,0.0,0.8947,0.0,0.0,0.0,0.0,0.0,0.0,0.0,0.0,0.0,0.0,0.0,0.0,0.0,0.0,0.0,0.0,0.0,0.0,0.0,0.0,0.0,0.0,0.0,0.0,0.0,0.0,0.0,0.0,0.0,0.0,0.0,0.0,0.0,0.0,0.0,0.0,0.0,0.0,0.0,0.0,0.0,0.0,0.0,0.0,0.0,0.0,0.0,0.0,0.0,0.0,0.0,0.0,0.0,0.0,0.0,-0.6741,-0.6793,-0.688,-0.6978,-0.6578,-0.6195,-0.5795,-0.4981,-0.4293,0.0,0.0,0.0,0.0,0.0,0.0,0.0,0.0,0.0,0.0,0.0,0.0,0.0,0.0,0.0,0.0,0.0,0.0,0.0,0.0,0.0,0.0,0.0,0.0,0.0,0.0,0.0,0.0,0.0,0.0,0.0,0.0,0.0,0.0,0.0,0.0,0.0,0.0,0.0,0.0,0.6685,0.8036,0.8583,0.0,0.0,0.0,0.0,0.0,0.0,1.052,1.0092,0.0,0.0,0.0,0.0,0.0,0.0,0.0,0.0,0.0,0.0,0.0,0.0,0.0,0.0,0.0,0.0,0.0,0.0,0.0,0.0,0.0,0.0,0.0,0.0,0.0,0.0,0.0,0.0,0.0,0.0,0.0,0.0,0.0,0.0,0.0,0.0,0.0,0.0,0.0,0.0,0.0,0.0,0.0,0.0,0.0,0.0,0.0,0.0,0.0,0.0,0.0,0.0,0.0,0.0,0.0,-0.6578,-0.6948,-0.7065,-0.6986,-0.6771,-0.6349,-0.5751,-0.5108,-0.4442,0.0,0.0,0.0,0.0,0.0,0.0,0.0,0.0,0.0,0.0,0.0,0.0,0.0,0.0,0.0,0.0,0.0,0.0,0.0,0.0,0.0,0.0,0.0,0.0,0.0,0.0,0.0,0.0,0.0,0.0,0.0,0.0,0.0,0.0,0.0,0.0,0.0,0.0,0.0,0.0,0.0,0.9057,0.9791,1.0753,0.0,0.0,0.0,0.0,1.2057,1.1517,0.0,0.0,0.0,0.0,0.0,0.0,0.0,0.0,0.0,0.0,0.0,0.0,0.0,0.0,0.0,0.0,0.0,0.0,0.0,0.0,0.0,0.0,0.0,0.0,0.0,0.0,0.0,0.0,0.0,0.0,0.0,0.0,0.0,0.0,0.0,0.0,0.0,0.0,0.0,0.0,0.0,0.0,0.0,0.0,0.0,0.0,0.0,0.0,0.0,0.0,0.0,0.0,0.0,0.0,0.0,0.0,-0.6231,-0.6653,-0.6862,-0.6889,-0.6599,-0.6261,-0.5877,-0.5111,-0.44,0.0,0.0,0.0,0.0,0.0,0.0,0.0,0.0,0.0,0.0,0.0,0.0,0.0,0.0,0.0,0.0,0.0,0.0,0.0,0.0,0.0,0.0,0.0,0.0,0.0,0.0,0.0,0.0,0.0,0.0,0.0,0.0,0.0,0.0,0.0,0.0,0.0,0.0,0.0,0.0,0.0,0.9219,1.034,1.1018,1.146,0.0,0.0,1.2006,1.2019,1.1989,0.0,0.0,0.0,0.0,0.0,0.0,0.0,0.0,0.0,0.0,0.0,0.0,0.0,0.0,0.0,0.0,0.0,0.0,0.0,0.0,0.0,0.0,0.0,0.0,0.0,0.0,0.0,0.0,0.0,0.0,0.0,0.0,0.0,0.0,0.0,0.0,0.0,0.0,0.0,0.0,0.0,0.0,0.0,0.0,0.0,0.0,0.0,0.0,0.0,0.0,0.0,0.0,0.0,0.0,0.0,-0.5811,-0.6368,-0.6832,-0.7112,-0.711,-0.6841,-0.6488,-0.6102,-0.5409,-0.4674,0.0,0.0,0.0,0.0,0.0,0.0,0.0,0.0,0.0,0.0,0.0,0.0,0.0,0.0,0.0,0.0,0.0,0.0,0.0,0.0,0.0,0.0,0.0,0.0,0.0,0.0,0.0,0.0,0.0,0.0,0.0,0.0,0.0,0.0,0.0,0.0,0.0,0.0,0.0,0.0,0.0,0.0,1.101,1.2368,0.0,0.0,0.0,1.45,1.4095,0.0,0.0,0.0,0.0,0.0,0.0,0.0,0.0,0.0,0.0,0.0,0.0,0.0,0.0,0.0,0.0,0.0,0.0,0.0,0.0,0.0,0.0,0.0,0.0,0.0,0.0,0.0,0.0,0.0,0.0,0.0,0.0,0.0,0.0,0.0,0.0,0.0,0.0,0.0,0.0,0.0,0.0,0.0,0.0,0.0,0.0,0.0,0.0,0.0,0.0,0.0,0.0,0.0,0.0,0.0,0.0,0.0,-0.6408,-0.6957,-0.7236,-0.7246,-0.7019,-0.6685,-0.6216,-0.5603,0.0,0.0,0.0,0.0,0.0,0.0,0.0,0.0,0.0,0.0,0.0,0.0,0.0,0.0,0.0,0.0,0.0,0.0,0.0,0.0,0.0,0.0,0.0,0.0,0.0,0.0,0.0,-0.0357,0.0,0.0,0.0,0.0,0.0,0.0,0.0,0.0,0.0,0.0,0.0,0.0,0.0,0.0,1.0653,1.1901,1.3684,1.4994,0.0,0.0,1.6413,1.596,1.5452,1.4829,0.0,0.0,0.0,0.0,0.0,0.0,0.0,0.0,0.0,0.0,0.0,0.0,0.0,0.0,0.0,0.0,0.0,0.0,0.0,0.0,0.0,0.0,0.0,0.0,0.0,0.0,0.0,0.0,0.0,0.0,0.0,0.0,0.0,0.0,0.0,0.0,0.0,0.0,0.0,0.0,0.0,0.0,0.0,0.0,0.0,0.0,0.0,0.0,0.0,0.0,0.0,0.0,0.0,0.0,-0.5723,-0.6129,-0.6787,-0.7138,-0.7124,-0.6972,-0.6685,-0.6221,-0.5599,-0.5017,0.0,0.0,0.0,0.0,0.0,0.0,0.0,0.0,0.0,0.0,0.0,0.0,0.0,0.0,0.0,0.0,0.0,0.0,0.0,0.0,0.0,0.0,0.0,0.0,0.0,0.0,0.0,0.0,0.0,0.0,0.0,0.0,0.0,0.0,0.0,0.0,0.0,0.0,0.0,0.0,0.0,1.1809,1.3189,1.4515,1.5489,0.0,1.6285,1.6535,1.6613,1.6677,1.6481,1.5754,0.0,0.0,0.0,0.0,0.0,0.0,0.0,0.0,0.0,0.0,0.0,0.0,0.0,0.0,0.0,0.0,0.0,0.0,0.0,0.0,0.0,0.0,0.0,0.0,0.0,0.0,0.0,0.0,0.0,0.0,0.0,0.0,0.0,0.0,0.0,0.0,0.0,0.0,0.0,0.0,0.0,0.0,0.0,0.0,0.0,0.0,0.0,0.0,0.0,0.0,0.0,0.0,0.0,-0.5912,-0.6461,-0.6742,-0.7055,-0.7442,-0.7036,-0.6764,-0.6706,-0.5972,-0.5276,0.0,0.0,0.0,0.0,0.0,0.0,0.0,0.0,0.0,0.0,0.0,0.0,0.0,0.0,0.0,0.0,0.0,0.0,0.0,0.0,0.0,0.0,0.0,0.0,0.0,0.0,0.0,0.0,-0.0401,-0.0289,-0.0089,0.0,0.0,0.0,0.0,0.0,0.0,0.0,0.0,0.0,0.0,1.1717,1.306,1.4729,0.0,0.0,1.7163,1.7622,1.731,1.7454,1.7354,1.6649,1.6355,0.0,0.0,0.0,0.0,0.0,0.0,0.0,0.0,0.0,0.0,0.0,0.0,0.0,0.0,0.0,0.0,0.0,0.0,0.0,0.0,0.0,0.0,0.0,0.0,0.0,0.0,0.0,0.0,0.0,0.0,0.0,0.0,0.0,0.0,0.0,0.0,0.0,0.0,0.0,0.0,0.0,0.0,0.0,0.0,0.0,0.0,0.0,0.0,0.0,0.0,0.0,0.0,-0.6035,-0.6634,-0.6851,-0.7171,-0.7689,-0.7214,-0.7007,-0.7028,-0.6271,-0.5629,0.0,0.0,0.0,0.0,0.0,0.0,0.0,0.0,0.0,0.0,0.0,0.0,0.0,0.0,0.0,0.0,0.0,0.0,0.0,0.0,0.0,0.0,0.0,0.0,0.0,0.0,0.0,0.0,-0.0426,-0.0251,0.0032,0.0,0.0,0.0,0.0,0.0,0.0,0.0,0.0,0.0,0.0,1.195,1.3302,1.5248,1.6712,1.7166,1.8276,1.8976,1.8662,1.8659,1.8463,1.7824,0.0,0.0,0.0,0.0,0.0,0.0,0.0,0.0,0.0,0.0,0.0,0.0,0.0,0.0,0.0,0.0,0.0,0.0,0.0,0.0,0.0,0.0,0.0,0.0,0.0,0.0,0.0,-0.0617,0.0,0.0,-0.0908,0.0,0.0,0.0,0.0,0.0,0.0,0.0,0.0,0.0,0.0,0.0,0.0,0.0,0.0,0.0,0.0,0.0,0.0,0.0,0.0,0.0,0.0,-0.6034,-0.6493,-0.7115,-0.7542,-0.77,-0.7618,-0.7448,-0.7201,-0.6593,-0.6063,-0.5605,0.0,0.0,0.0,0.0,0.0,0.0,0.0,0.0,0.0,0.0,0.0,0.0,0.0,0.0,0.0,0.0,0.0,0.0,0.0,0.0,0.0,0.0,0.0,0.0,0.0,0.0,-0.0594,-0.0411,-0.0183,0.0,0.0,0.0,0.0,0.0,0.0,0.0,0.0,0.0,0.8954,1.0954,1.2774,1.4179,1.6194,1.7711,1.8352,1.9503,2.046,2.0792,2.0504,2.0051,0.0,0.0,0.0,0.0,0.0,0.0,0.0,0.0,0.0,0.0,0.0,0.0,0.0,0.0,0.0,0.0,0.0,0.0,0.0,0.0,0.0,0.0,0.0,0.0,0.0,0.0,0.0,-0.084,-0.0875,0.0,0.0,0.0,0.0,0.0,0.0,0.0,0.0,0.0,0.0,0.0,-0.3752,-0.3863,0.0,0.0,0.0,0.0,0.0,0.0,0.0,0.0,0.0,0.0,0.0,0.0,-0.6144,-0.6576,-0.71,-0.7505,-0.7754,-0.765,-0.7605,-0.7667,-0.7072,-0.6367,-0.5566,0.0,0.0,0.0,0.0,0.0,0.0,0.0,0.0,0.0,0.0,0.0,0.0,0.0,0.0,0.0,0.0,0.0,0.0,0.0,0.0,0.0,0.0,0.0,0.0,0.0,-0.0907,0.0,0.0,0.0,0.0,0.0,0.0,0.0,0.0,0.0,0.0,0.607,0.7633,0.9186,1.1114,1.2926,1.4465,1.6025,1.7474,0.0,0.0,0.0,0.0,0.0,0.0,0.0,0.0,0.0,0.0,0.0,0.0,0.0,0.0,1.8423,1.7575,1.7355,1.7442,1.7947,0.0,0.0,0.0,0.0,0.0,0.0,0.0,0.0,0.0,0.0,0.0,0.0,0.0,0.0,-0.1146,-0.1183,-0.1378,0.0,0.0,0.0,0.0,0.0,0.0,0.0,0.0,-0.3598,-0.3979,-0.43,-0.4452,-0.458,-0.4708,-0.4708,-0.4423,0.0,0.0,0.0,0.0,0.0,0.0,0.0,0.0,-0.6332,-0.6823,-0.729,-0.7675,-0.7933,-0.7919,-0.7932,-0.7985,-0.7322,-0.6624,-0.5937,-0.5266,-0.461,0.0,0.0,0.0,0.0,0.0,0.0,0.0,0.0,0.0,0.0,0.0,0.0,0.0,0.0,0.0,0.0,0.0,0.0,0.0,0.0,0.0,0.0,0.0,-0.0986,0.0,0.0,0.0,0.0,0.0,0.0,0.0,0.0,0.0,0.5163,0.6393,0.7913,0.9853,1.1199,1.273,1.4773,0.0,0.0,0.0,0.0,0.0,0.0,0.0,2.157,2.1943,2.1923,2.1964,2.2188,2.2359,2.2796,2.3816,0.0,0.0,2.0219,1.9838,2.0025,2.0779,2.0808,2.0768,2.0958,2.1367,2.1789,0.0,0.0,0.0,0.0,-0.1413,0.0,0.0,0.0,-0.1517,-0.1515,0.0,-0.1652,0.0,0.0,0.0,0.0,-0.2649,-0.3061,0.0,0.0,-0.4004,-0.441,-0.4893,-0.5032,-0.5176,-0.5339,-0.5306,-0.5193,-0.5007,-0.4838,0.0,0.0,0.0,0.0,0.0,0.0,-0.6571,-0.7268,-0.7743,-0.8053,-0.8196,-0.8382,-0.8393,-0.8207,-0.7385,-0.6878,-0.6698,-0.5786,-0.5112,-0.4739,-0.3904,0.0,0.0,0.0,0.0,0.0,0.0,0.0,0.0,0.0,0.0,0.0,0.0,0.0,0.0,0.0,0.0,0.0,0.0,0.0,0.0,-0.109,0.0,0.0,0.0,0.0,0.0,0.0,0.0,0.0,0.0,0.4706,0.5752,0.6587,0.8067,1.0804,0.0,0.0,0.0,0.0,1.816,1.911,2.0527,2.1705,2.2337,2.2196,2.2197,2.2643,0.0,0.0,2.2423,2.3801,2.5352,2.6943,2.5779,2.4172,2.2637,2.2315,2.2518,2.3155,2.3177,2.3345,2.394,2.4034,2.4301,-0.1728,0.0,0.0,0.0,0.0,-0.1771,-0.1759,-0.1782,-0.1845,-0.1853,-0.1874,-0.2098,0.0,0.0,0.0,0.0,0.0,0.0,-0.3969,-0.4085,-0.4427,-0.4799,-0.5182,-0.5334,-0.5532,-0.5788,-0.5747,-0.5698,-0.5662,-0.564,-0.5454,-0.5193,0.0,0.0,0.0,0.0,-0.6744,-0.7171,-0.7611,-0.7969,-0.8202,-0.8388,-0.843,-0.8218,-0.8048,-0.7705,-0.7139,-0.68,-0.624,-0.5369,-0.4689,0.0,0.0,0.0,0.0,0.0,0.0,0.0,0.0,0.0,0.0,0.0,0.0,0.0,0.0,0.0,0.0,0.0,0.0,0.0,-0.1796,-0.1609,-0.1307,0.0,0.0,0.0,0.0,0.0,0.0,0.0,0.0,0.0,0.6756,0.7813,0.9021,0.0,0.0,1.3008,1.5399,1.6464,1.777,1.9763,2.099,0.0,2.328,2.3824,2.427,2.4741,2.5041,2.5356,2.5747,2.6078,2.6822,2.8398,2.7307,2.5968,2.5458,2.4912,2.4857,2.5428,2.5519,2.5447,2.5597,2.598,2.6399,-0.2054,-0.2035,-0.1975,-0.2002,-0.2022,-0.2022,-0.2047,-0.2092,-0.2141,-0.2162,-0.2164,-0.2443,-0.2583,-0.2633,-0.2939,0.0,0.0,0.0,-0.4377,-0.4522,-0.4892,-0.5253,-0.5614,-0.5705,-0.5901,-0.6233,-0.6202,-0.6197,-0.628,-0.6377,-0.6312,-0.6112,0.0,-0.6261,-0.6444,-0.6729,-0.7079,-0.7522,-0.782,-0.8084,-0.8322,-0.8436,-0.8447,-0.8333,-0.8366,-0.8154,-0.7616,-0.7438,-0.6989,-0.6191,-0.5468,-0.4734,0.0,0.0,0.0,0.0,0.0,0.0,0.0,0.0,0.0,0.0,0.0,-0.0933,-0.1095,0.0,0.0,0.0,-0.1941,-0.211,-0.2043,-0.1744,0.0,0.0,0.0,0.0,0.0,0.0,0.0,0.3786,0.4772,0.5942,0.7418,0.87,0.9907,1.1109,1.1923,1.3309,1.5773,0.0,1.8357,2.0148,2.1186,2.2207,2.3371,2.4156,2.4885,2.5582,2.6398,2.6893,2.6972,2.7361,2.826,2.9414,2.8924,2.8128,2.8271,2.7896,2.7476,2.743,2.7518,2.77,2.7971,2.835,2.8627,-0.2334,-0.2461,-0.2237,-0.219,-0.2254,-0.2254,-0.2332,-0.2435,-0.246,-0.2435,-0.246,-0.272,-0.2847,-0.2924,-0.3408,0.0,-0.3668,-0.4206,-0.4665,-0.5001,-0.5277,-0.5645,-0.6078,-0.6112,-0.6272,-0.6622,-0.6639,-0.669,-0.681,-0.6996,-0.7176,-0.7294,-0.6776,-0.6719,-0.715,-0.7144,-0.7501,-0.816,-0.8207,-0.8301,-0.8474,-0.8517,-0.8517,-0.8511,-0.8459,-0.8321,-0.806,-0.7807,-0.7484,-0.7064,-0.6209,-0.5476,-0.4964,0.0,0.0,0.0,0.0,0.0,0.0,0.0,0.0,0.0,0.0,0.0,0.0,0.0,0.0,-0.2329,-0.236,0.0,-0.214,-0.1652,0.0,0.0,0.0,0.0752,0.1565,0.2423,0.3365,0.4434,0.0,0.0,0.7859,0.9283,1.0721,1.2016,1.229,1.3378,1.6137,1.8083,1.9588,2.0272,2.1187,2.2095,2.3072,2.3916,2.4885,2.5927,2.6824,2.7361,2.7148,2.8132,2.9539,3.0654,3.0425,3.0126,3.0713,3.0556,3.0352,2.9042,2.9184,2.9771,3.042,3.0568,3.0549,-0.2423,-0.2399,-0.2407,-0.2564,-0.2826,-0.2796,-0.2826,-0.2855,-0.2855,-0.2855,-0.2857,-0.3035,-0.3243,-0.3509,-0.389,-0.4118,-0.4232,-0.4591,-0.489,-0.5073,-0.5292,-0.5586,-0.5927,-0.6048,-0.631,-0.6655,-0.6782,-0.6844,-0.6866,-0.7018,-0.7176,-0.7305,-0.7252,-0.7383,-0.7623,-0.7628,-0.7825,-0.8207,-0.8213,-0.8301,-0.8506,-0.8517,-0.8517,-0.8517,-0.8741,-0.8754,-0.8468,-0.8351,-0.8089,-0.7632,-0.6999,-0.6278,-0.5465,-0.5095,0.0,0.0,0.0,0.0,0.0,0.0,0.0,0.0,0.0,-0.1854,-0.1965,0.0,-0.2627,0.0,-0.2808,-0.2729,-0.2438,-0.1914,0.0,0.0,0.0203,0.1027,0.2009,0.2906,0.3843,0.4918,0.5872,0.7068,0.8705,0.9738,1.098,1.2544,1.29,1.369,1.5672,1.8093,1.9776,2.0138,2.1045,2.2203,2.3579,2.5011,2.6334,2.7633,2.8241,2.8445,2.8197,2.9253,3.0262,3.0545,3.0471,3.0367,3.046,3.0823,3.1032,3.0643,3.0384,3.0238,3.0481,3.0922,3.1286,-0.23,-0.2369,-0.2504,-0.2703,-0.2951,-0.29,-0.2895,-0.2985,-0.2985,-0.2985,-0.3015,-0.314,-0.339,-0.3702,-0.3941,-0.415,-0.4305,-0.4612,-0.4889,-0.5106,-0.5375,-0.5683,-0.6001,-0.6099,-0.6415,-0.678,-0.6856,-0.7014,-0.7176,-0.7326,-0.7455,-0.7611,-0.7788,-0.7959,-0.8138,-0.8034,-0.8101,-0.8307,-0.8344,-0.8377,-0.8511,-0.8517,-0.8517,-0.8517,-0.877,-0.8807,-0.8626,-0.863,-0.8475,-0.8044,-0.76,-0.7039,-0.6357,-0.5898,-0.5353,0.0,0.0,0.0,0.0,0.0,0.0,0.0,0.0,0.0,0.0,0.0,-0.3086,-0.3113,-0.3024,-0.2813,-0.2449,-0.1908,-0.12,-0.0296,0.0502,0.1372,0.2331,0.336,0.4442,0.5614,0.6597,0.7796,0.9309,1.0243,1.1296,1.2804,1.3406,1.4241,1.5793,1.796,1.9546,2.0001,2.1242,2.2843,2.4685,2.6102,2.7311,2.827,2.8799,2.9066,2.9212,2.974,3.0368,3.091,3.0871,3.0762,3.0983,3.1285,3.155,3.1446,3.1236,3.1107,3.1217,3.1555,3.1839,-0.2058,-0.2232,-0.245,-0.2631,-0.282,-0.2735,-0.2839,-0.3024,-0.3024,-0.3024,-0.3086,-0.3214,-0.3434,-0.3721,-0.3872,-0.406,-0.4259,-0.4522,-0.4799,-0.5133,-0.5389,-0.5755,-0.6075,-0.6164,-0.6444,-0.6805,-0.6881,-0.7055,-0.7415,-0.7659,-0.7832,-0.7995,-0.8186,-0.8371,-0.8623,-0.8393,-0.8355,-0.8511,-0.8517,-0.8517,-0.8517,-0.8517,-0.8517,-0.8517,-0.8705,-0.8728,-0.8646,-0.8755,-0.8716,-0.8388,-0.808,-0.7694,-0.7292,-0.6627,-0.6063,0.0,-0.5043,0.0,0.0,0.0,0.0,0.0,0.0,0.0,0.0,-0.3442,-0.3467,-0.3475,-0.3119,-0.275,-0.2308,-0.1702,-0.0975,-0.0051,0.0844,0.1744,0.2693,0.3852,0.5077,0.633,0.7387,0.852,0.9789,1.0696,1.167,1.29,1.3835,1.4867,1.6181,1.7809,1.9226,2.009,2.1708,2.3554,2.5478,2.6681,2.7518,2.8301,2.888,2.9418,3.0087,3.0105,3.037,3.1333,3.1269,3.1202,3.1736,3.1769,3.1766,3.1675,3.1641,3.1735,3.2022,3.2092,3.2232,-0.1915,-0.1918,-0.2106,-0.2267,-0.2404,-0.2568,-0.2829,-0.3146,-0.3148,-0.3254,-0.3432,-0.3602,-0.3743,-0.3815,-0.4101,-0.4345,-0.4518,-0.4754,-0.4977,-0.5182,-0.5235,-0.5474,-0.5837,-0.5893,-0.6086,-0.6408,-0.673,-0.6948,-0.7023,-0.7384,-0.773,-0.8,-0.8037,-0.8304,-0.8828,0.0,0.0,0.0,-0.8517,-0.8517,-0.8517,-0.8517,-0.8517,-0.8517,-0.8705,0.0,-0.8762,-0.8692,-0.8698,-0.8775,-0.8498,0.0,0.0,0.0,0.0,0.0,0.0,0.0,0.0,0.0,0.0,0.0,-0.4481,-0.4189,-0.3692,-0.3741,-0.3792,-0.3726,-0.3333,-0.2769,-0.2038,-0.137,-0.0538,0.0573,0.1402,0.2354,0.3595,0.4529,0.5561,0.6793,0.7722,0.8757,1.01,1.093,1.1882,1.3199,1.4306,1.5351,1.6397,1.785,1.9312,2.0702,2.2353,2.3828,2.4921,2.594,2.7045,2.8041,2.8829,2.966,3.0796,3.0935,3.0798,3.1114,3.1155,3.1244,3.1393,3.137,3.1329,3.131,3.1308,3.1426,3.1818,3.1947,3.1966,-0.146,-0.1581,-0.1774,-0.1954,0.0,-0.2196,-0.2497,-0.2868,-0.2983,-0.3169,-0.3352,-0.357,-0.3713,-0.3819,-0.3966,-0.422,-0.4437,-0.4548,-0.4765,-0.5054,-0.5113,-0.5325,-0.5588,-0.5656,-0.5915,-0.6288,-0.6511,-0.6738,-0.7068,-0.7327,-0.7692,-0.8061,-0.8143,-0.8385,-0.8811,-0.8877,-0.8885,-0.8861,-0.8743,-0.8656,-0.8551,-0.8402,-0.8312,-0.8252,-0.8349,0.0,0.0,0.0,0.0,0.0,0.0,0.0,0.0,-0.792,0.0,-0.7081,-0.6509,-0.6141,-0.6032,-0.5523,-0.5246,-0.5288,-0.5023,-0.4634,-0.4096,-0.3955,-0.3824,-0.3594,-0.315,-0.252,-0.1728,-0.1062,-0.0198,0.0966,0.1879,0.2827,0.3884,0.4945,0.6037,0.7151,0.8095,0.9118,1.0352,1.1317,1.2228,1.3312,1.4393,1.5504,1.6568,1.7798,1.927,2.121,2.2574,2.3889,2.5083,2.5987,2.6903,2.7992,2.8707,2.9523,3.0649,3.0699,3.0502,3.041,3.0617,3.0804,3.0804,3.0838,3.0855,3.0855,3.0912,3.0995,3.1215,3.1447,3.1656,-0.0931,-0.1154,-0.1354,-0.1552,-0.1751,-0.1831,-0.2067,-0.2455,-0.2791,0.0,0.0,-0.3399,-0.3579,-0.3763,-0.3797,-0.3985,-0.4245,-0.4318,-0.4538,-0.4868,-0.5001,-0.5162,-0.5397,-0.5508,-0.5757,-0.6183,-0.6257,-0.6567,-0.703,-0.7334,-0.7642,-0.8012,-0.8244,-0.849,-0.8739,-0.8898,-0.9051,-0.9177,-0.8997,-0.8824,-0.8649,-0.8358,-0.8173,-0.8048,-0.804,-0.8117,-0.8414,-0.8414,-0.8452,-0.8575,-0.8751,-0.8661,-0.83,-0.8289,-0.8117,-0.7732,-0.7281,-0.6971,-0.6729,-0.6225,-0.5896,-0.5752,-0.5178,-0.4748,-0.4458,-0.4075,-0.3698,-0.3324,-0.2799,-0.2153,-0.1351,-0.0646,0.0216,0.1333,0.2326,0.3226,0.4125,0.5304,0.6451,0.7521,0.8538,0.9524,1.0625,1.1664,1.2645,1.3429,1.4471,1.5704,1.6917,1.8218,1.9704,2.1534,2.2674,2.377,2.5149,2.6142,2.6949,2.765,2.8347,2.905,2.97,2.9892,2.981,2.9671,2.9924,3.0145,3.0204,3.0267,3.0384,3.0422,3.0485,3.0589,3.0692,3.0918,3.1257,-0.0418,-0.0459,-0.0834,-0.1002,-0.1084,-0.1458,-0.179,-0.2116,-0.2776,-0.3071,-0.3108,-0.3378,-0.3529,-0.3567,-0.388,-0.4076,-0.4153,-0.4303,-0.4496,-0.473,-0.4748,-0.4947,-0.5295,-0.5312,-0.5476,-0.5715,-0.6106,-0.6338,-0.6493,-0.6992,-0.7373,-0.7595,-0.7957,-0.8405,-0.8936,-0.917,-0.9263,-0.9295,-0.9031,-0.8878,-0.8843,-0.8494,-0.828,-0.8241,-0.8093,-0.8014,-0.8052,-0.809,-0.8204,-0.8495,-0.8527,-0.8546,-0.8555,-0.8421,-0.8218,-0.7803,-0.7447,-0.7111,-0.6796,-0.6579,-0.6253,-0.5654,-0.5017,-0.461,-0.4555,-0.3995,-0.3472,-0.3006,-0.238,-0.1655,-0.0892,-0.0031,0.0873,0.185,0.278,0.3737,0.4807,0.5752,0.6848,0.8084,0.9042,1.0025,1.1081,1.1965,1.2814,1.3652,1.4781,1.6111,1.7876,1.9522,2.0739,2.1766,2.2692,2.3592,2.4427,2.5342,2.6146,2.6782,2.7535,2.8255,2.8905,2.9129,2.9152,2.8975,2.9357,2.9655,2.9683,2.9815,2.9941,3.0038,3.0103,3.021,3.0426,3.0609,3.0777,0.017,0.0084,-0.0126,-0.0337,-0.059,-0.1052,-0.1388,-0.1636,-0.2098,-0.2508,-0.2842,-0.3199,-0.3295,-0.3335,-0.3645,-0.3841,-0.396,-0.4155,-0.4348,-0.4543,-0.4543,-0.4696,-0.4971,-0.4971,-0.5129,-0.544,-0.5634,-0.5944,-0.6296,-0.6609,-0.6949,-0.7522,-0.7906,-0.8369,-0.8822,-0.8899,-0.9056,-0.9279,-0.9071,-0.8898,-0.879,-0.8368,-0.8116,-0.8017,-0.7848,-0.7835,-0.7996,-0.7894,-0.8003,-0.8379,-0.8347,-0.8323,-0.8292,-0.8276,-0.817,-0.7908,-0.758,-0.7329,-0.7177,-0.6638,-0.6038,-0.5371,-0.4798,-0.4286,-0.3872,-0.3498,-0.3026,-0.2463,-0.1824,-0.1099,-0.0259,0.0517,0.1364,0.2336,0.3226,0.4191,0.5272,0.621,0.7229,0.8481,0.9393,1.0297,1.1273,1.2185,1.3058,1.3944,1.5283,1.6816,1.8186,1.9266,2.0312,2.1219,2.2021,2.2834,2.361,2.4511,2.5315,2.5986,2.6678,2.7378,2.7999,2.8286,2.8365,2.842,2.8756,2.9082,2.9113,2.9341,2.9515,2.9605,2.9782,2.9941,3.0108,3.03,3.0675,0.0825,0.0598,0.0555,0.0299,-0.0171,-0.0555,-0.0854,-0.1109,-0.1408,-0.1811,-0.2313,-0.2835,-0.3044,-0.3034,-0.3306,-0.3544,-0.3703,-0.3882,-0.4069,-0.4261,-0.4318,-0.4462,-0.4623,-0.4662,-0.4815,-0.5126,-0.5204,-0.5556,-0.6022,-0.6222,-0.6718,-0.7446,-0.7795,-0.8174,-0.8551,-0.8551,-0.8708,-0.9008,-0.8884,-0.8763,-0.868,-0.8219,-0.7901,-0.7794,-0.7615,-0.7624,-0.7858,-0.772,-0.7814,-0.8118,-0.8158,-0.8095,-0.8001,-0.8129,-0.8129,-0.7935,-0.7664,-0.7398,-0.7194,-0.6429,-0.5652,-0.5045,-0.4436,-0.3791,-0.3075,-0.272,-0.2371,-0.1833,-0.1201,-0.0441,0.0407,0.1194,0.1984,0.2874,0.3762,0.4723,0.5741,0.6664,0.7633,0.881,0.9751,1.061,1.1504,1.2459,1.3492,1.459,1.5957,1.7201,1.81,1.8821,1.9649,2.0528,2.1356,2.2187,2.3015,2.3829,2.4582,2.5315,2.5947,2.6563,2.7152,2.7473,2.765,2.7815,2.8195,2.847,2.8566,2.8873,2.9106,2.922,2.9409,2.9639,2.9815,3.0199,3.0654,0.1563,0.1294,0.1113,0.0758,0.0312,0.0045,-0.0267,-0.0534,-0.0935,-0.1233,-0.1508,-0.2284,-0.2639,-0.2718,-0.3127,-0.3331,-0.3368,-0.3472,-0.3683,-0.3955,-0.408,-0.4233,-0.4431,-0.4423,-0.4543,-0.4776,-0.4929,-0.5162,-0.5476,-0.6025,-0.6721,-0.7403,-0.7561,-0.7753,-0.8102,-0.814,-0.8178,-0.8217,-0.8199,-0.8376,-0.8623,-0.8101,-0.7813,-0.7813,-0.7618,-0.7526,-0.7548,-0.754,-0.7602,-0.7734,-0.7913,-0.8014,-0.8009,-0.8163,-0.8093,-0.7768,-0.7526,-0.7147,-0.6462,-0.5834,-0.5218,-0.4654,-0.3922,-0.313,-0.2341,-0.1692,-0.127,-0.1023,-0.0447,0.0314,0.1049,0.1991,0.2838,0.3621,0.452,0.5487,0.6275,0.7168,0.8132,0.9135,1.0113,1.1098,1.2038,1.2933,1.4024,1.53,1.628,1.7176,1.794,1.8664,1.9363,2.0172,2.104,2.1889,2.2598,2.3339,2.4076,2.4736,2.5356,2.5907,2.6379,2.6814,2.7137,2.7346,2.761,2.7894,2.8131,2.8389,2.87,2.8897,2.9106,2.9312,2.9722,3.0135,3.0613,0.1974,0.184,0.1795,0.1436,0.0987,0.0583,0.0269,0.0045,-0.0314,-0.058,-0.0841,-0.1535,-0.2026,-0.2271,-0.2689,-0.2901,-0.2898,-0.3203,-0.3438,-0.3555,-0.3682,-0.3882,-0.4075,-0.4178,-0.4309,-0.4543,-0.4737,-0.4929,-0.524,-0.5906,-0.649,-0.6795,-0.7022,-0.733,-0.7714,-0.7753,-0.7868,-0.8063,-0.7991,-0.7949,-0.797,-0.7875,-0.7757,-0.7631,-0.7455,-0.7306,-0.7335,-0.7318,-0.7406,-0.7571,-0.7691,-0.7695,-0.7695,-0.769,-0.7584,-0.7406,-0.698,-0.6489,-0.593,-0.5308,-0.4636,-0.402,-0.3181,-0.2365,-0.1602,-0.0838,-0.0216,0.0284,0.0642,0.1111,0.1865,0.2712,0.3527,0.4251,0.5009,0.587,0.6839,0.7612,0.8454,0.9538,1.0438,1.1316,1.2271,1.3404,1.4525,1.5657,1.6447,1.7176,1.7906,1.864,1.9308,1.9922,2.0688,2.1431,2.2099,2.2805,2.3471,2.4118,2.4736,2.5286,2.5771,2.6218,2.6618,2.6896,2.7192,2.7458,2.7735,2.8024,2.8317,2.8581,2.8936,2.9236,2.9683,3.0022,3.0359,0.2378,0.2289,0.2244,0.1974,0.157,0.1076,0.0807,0.0673,0.0314,0.0,-0.0314,-0.0807,-0.1235,-0.1674,-0.2227,-0.2485,-0.2525,-0.2934,-0.3137,-0.3168,-0.3335,-0.3535,-0.373,-0.3847,-0.4038,-0.4231,-0.4428,-0.4698,-0.5043,-0.5592,-0.6022,-0.6219,-0.6563,-0.6907,-0.7211,-0.7288,-0.7484,-0.7714,-0.7646,-0.7488,-0.7369,-0.7484,-0.7488,-0.733,-0.7176,-0.7142,-0.7099,-0.7097,-0.7181,-0.7322,-0.7388,-0.7394,-0.7312,-0.7199,-0.7013,-0.6758,-0.6357,-0.5928,-0.5463,-0.4789,-0.4031,-0.3281,-0.243,-0.1635,-0.0855,-0.0037,0.0781,0.1488,0.1786,0.2155,0.2686,0.344,0.4193,0.4933,0.5588,0.6371,0.7381,0.811,0.8906,0.9927,1.0789,1.1663,1.2703,1.3949,1.5054,1.5806,1.6551,1.721,1.7906,1.8607,1.9274,1.9835,2.0453,2.1094,2.1737,2.2408,2.3035,2.359,2.4218,2.4791,2.5229,2.5688,2.6056,2.6326,2.6671,2.7026,2.7295,2.76,2.8048,2.8381,2.8763,2.9167,2.9522,2.9804,3.0081,0.2914,0.2469,0.2289,0.2199,0.2109,0.157,0.1346,0.1301,0.0852,0.0404,0.0045,-0.0045,-0.0313,-0.0847,-0.1692,-0.2191,-0.2228,-0.2539,-0.2735,-0.2767,-0.3037,-0.3216,-0.3248,-0.341,-0.3645,-0.3841,-0.4077,-0.4426,-0.4963,-0.5043,-0.5354,-0.5899,-0.6177,-0.6412,-0.6641,-0.6826,-0.6942,-0.7019,-0.698,-0.6942,-0.6938,-0.6942,-0.6942,-0.6899,-0.6903,-0.6903,-0.6903,-0.6896,-0.6923,-0.6927,-0.7099,-0.7103,-0.695,-0.6904,-0.651,-0.5784,-0.5633,-0.5437,-0.5002,-0.4271,-0.3428,-0.2577,-0.175,-0.0975,-0.0155,0.0699,0.1513,0.234,0.2873,0.3352,0.3678,0.4249,0.4958,0.5733,0.6437,0.7134,0.7957,0.8704,0.9561,1.0368,1.1186,1.2261,1.3724,1.4705,1.5346,1.6026,1.6726,1.7382,1.7964,1.864,1.9274,1.9813,2.0367,2.0946,2.1588,2.2161,2.2744,2.3318,2.3822,2.4316,2.4721,2.5104,2.5453,2.5866,2.6367,2.6727,2.6884,2.7284,2.7815,2.8259,2.8692,2.9098,2.9335,2.9611,2.9913,0.3363,0.3186,0.2778,0.2645,0.2599,0.2108,0.1885,0.1885,0.1346,0.1076,0.0852,0.0448,0.0179,0.0,-0.0718,-0.1301,-0.1704,-0.2003,-0.2218,-0.2388,-0.2583,-0.2738,-0.2821,-0.3002,-0.3182,-0.3379,-0.3726,-0.4153,-0.4579,-0.4735,-0.4968,-0.5276,-0.555,-0.5825,-0.6096,-0.6209,-0.6402,-0.6676,-0.6714,-0.6714,-0.6676,-0.6563,-0.6444,-0.6286,-0.656,-0.6637,-0.6525,-0.6637,-0.6637,-0.6525,-0.6718,-0.6714,-0.6475,-0.6202,-0.5741,-0.5124,-0.4888,-0.4771,-0.4499,-0.3565,-0.247,-0.1412,-0.0902,-0.0353,0.0353,0.1176,0.2037,0.2821,0.3602,0.4167,0.4658,0.506,0.5547,0.6247,0.6907,0.7561,0.8217,0.8903,0.962,1.0475,1.1632,1.2922,1.3905,1.474,1.5453,1.6123,1.6786,1.7442,1.81,1.8741,1.9274,1.9704,2.027,2.0862,2.1285,2.1788,2.2359,2.2939,2.348,2.3894,2.429,2.4778,2.5174,2.555,2.6043,2.6474,2.67,2.7233,2.774,2.8137,2.8597,2.8928,2.9121,2.9448,2.9782,0.3587,0.354,0.327,0.3136,0.3048,0.2599,0.2422,0.2377,0.1884,0.1615,0.1436,0.0942,0.0673,0.0583,0.0179,-0.0314,-0.0852,-0.1346,-0.166,-0.1836,-0.2063,-0.2241,-0.2332,-0.2639,-0.2822,-0.2978,-0.3345,-0.3802,-0.4192,-0.4348,-0.454,-0.481,-0.5007,-0.5279,-0.5589,-0.5667,-0.5902,-0.6215,-0.6254,-0.6257,-0.6254,-0.6141,-0.5986,-0.5864,-0.6099,-0.6219,-0.6106,-0.6215,-0.6219,-0.6103,-0.6177,-0.6135,-0.5815,-0.5428,-0.4965,-0.4465,-0.4112,-0.3995,-0.3841,-0.2862,-0.1649,-0.0353,-0.0079,0.0275,0.0942,0.1726,0.2547,0.3368,0.4034,0.4735,0.5356,0.5741,0.617,0.6718,0.7253,0.7863,0.8513,0.9122,0.9997,1.1037,1.2261,1.3331,1.4173,1.4911,1.5621,1.6333,1.6925,1.7554,1.8202,1.8774,1.9208,1.9572,2.0237,2.0765,2.1201,2.1643,2.2142,2.2726,2.3241,2.3628,2.3982,2.4463,2.4905,2.5285,2.5702,2.6152,2.6659,2.7207,2.764,2.8014,2.8405,2.8787,2.9029,2.935,2.9665,0.3631,0.3676,0.3587,0.3585,0.3497,0.3092,0.2911,0.2823,0.2378,0.2063,0.1884,0.1525,0.1301,0.1076,0.0852,0.0583,0.0224,-0.0538,-0.0987,-0.1164,-0.1495,-0.1653,-0.1772,-0.2247,-0.2559,-0.2622,-0.2934,-0.3336,-0.3765,-0.3802,-0.3995,-0.4345,-0.454,-0.4735,-0.5002,-0.5165,-0.5362,-0.5559,-0.5595,-0.5598,-0.5601,-0.5598,-0.5598,-0.5559,-0.5598,-0.5598,-0.5556,-0.5598,-0.5637,-0.5601,-0.5598,-0.5401,-0.5043,-0.4616,-0.4229,-0.38,-0.3368,-0.3134,-0.2982,-0.212,-0.0903,0.0275,0.0589,0.0903,0.1687,0.2392,0.3098,0.3882,0.4467,0.501,0.5747,0.6251,0.6718,0.7142,0.7561,0.8089,0.8846,0.9539,1.0519,1.1929,1.2936,1.3739,1.4489,1.5232,1.5903,1.6508,1.7116,1.7666,1.8236,1.8764,1.9198,1.9605,2.0205,2.0797,2.1149,2.1529,2.2061,2.2574,2.306,2.348,2.3806,2.4216,2.462,2.5018,2.5688,2.6152,2.6566,2.7089,2.7488,2.7865,2.8259,2.8621,2.8928,2.9213,2.9576,0.4478,0.4346,0.4168,0.3989,0.3765,0.3496,0.3361,0.3317,0.2869,0.2645,0.251,0.2108,0.1885,0.1795,0.157,0.1301,0.1031,0.0583,0.0045,-0.0537,-0.0757,-0.0968,-0.1213,-0.156,-0.1923,-0.2309,-0.256,-0.2824,-0.3059,-0.3256,-0.345,-0.3682,-0.3839,-0.4034,-0.4348,-0.4467,-0.4623,-0.4935,-0.4973,-0.5129,-0.5362,-0.5243,-0.5165,-0.5165,-0.5049,-0.4932,-0.4815,-0.5165,-0.5323,-0.5204,-0.5049,-0.4815,-0.4384,-0.3798,-0.3407,-0.3096,-0.2586,-0.2275,-0.2159,-0.1296,-0.0196,0.0786,0.11,0.1413,0.204,0.2663,0.3331,0.4077,0.4698,0.5359,0.586,0.644,0.6942,0.7373,0.7757,0.8284,0.9036,1.0024,1.1111,1.215,1.301,1.3783,1.4525,1.5303,1.6053,1.6691,1.7229,1.771,1.8313,1.8808,1.9208,1.9583,2.0237,2.0786,2.1149,2.1529,2.1999,2.2482,2.2969,2.339,2.3688,2.4011,2.439,2.4934,2.5591,2.6084,2.6525,2.6933,2.7335,2.7715,2.8113,2.8453,2.8763,2.9114,2.9486,0.4924,0.479,0.4612,0.4478,0.4302,0.3989,0.3853,0.381,0.3361,0.3136,0.3092,0.2735,0.2512,0.2423,0.2154,0.193,0.1705,0.157,0.1122,0.0404,0.0,-0.0267,-0.0657,-0.1023,-0.1404,-0.1838,-0.205,-0.2276,-0.247,-0.2668,-0.2863,-0.3057,-0.3175,-0.3409,-0.3724,-0.3802,-0.4036,-0.4309,-0.4428,-0.4584,-0.4776,-0.4813,-0.4771,-0.4771,-0.4654,-0.4501,-0.4348,-0.4621,-0.4735,-0.4735,-0.454,-0.4153,-0.3763,-0.3214,-0.2743,-0.2431,-0.2,-0.1688,-0.1572,-0.0786,0.0314,0.1258,0.1532,0.1805,0.2392,0.2978,0.3643,0.427,0.4893,0.555,0.6093,0.6591,0.7096,0.7676,0.8021,0.8589,0.9377,1.0432,1.1372,1.2224,1.301,1.3775,1.4525,1.5311,1.6053,1.6769,1.7263,1.7745,1.8337,1.8831,1.9208,1.9638,2.0237,2.0722,2.1138,2.1561,2.198,2.2432,2.2909,2.3288,2.3616,2.3923,2.4316,2.499,2.5661,2.5989,2.6379,2.6817,2.7233,2.759,2.7965,2.8356,2.8716,2.9075,2.9425,0.5099,0.5055,0.5055,0.501,0.4924,0.4523,0.4344,0.4253,0.3853,0.363,0.3587,0.3317,0.3092,0.2913,0.2691,0.2513,0.2289,0.2199,0.2018,0.157,0.0987,0.0402,-0.0089,-0.0559,-0.0918,-0.1218,-0.1433,-0.1653,-0.1843,-0.204,-0.2234,-0.2392,-0.2589,-0.2824,-0.3017,-0.3212,-0.345,-0.3724,-0.3921,-0.4001,-0.4075,-0.427,-0.4345,-0.4343,-0.4307,-0.419,-0.3999,-0.388,-0.3956,-0.4229,-0.3919,-0.3487,-0.3095,-0.2666,-0.2235,-0.1882,-0.1452,-0.1257,-0.1061,-0.0354,0.0629,0.1691,0.1923,0.2156,0.2746,0.3372,0.3997,0.4584,0.5051,0.567,0.6367,0.6788,0.7288,0.8021,0.8369,0.897,0.9992,1.0738,1.1409,1.2224,1.301,1.3783,1.4533,1.5311,1.6053,1.6726,1.7254,1.7769,1.8347,1.8841,1.9208,1.9704,2.027,2.0775,2.119,2.1498,2.1949,2.2463,2.2909,2.3198,2.3616,2.3982,2.4345,2.5018,2.5592,2.5907,2.626,2.6686,2.7104,2.7488,2.789,2.8284,2.8668,2.9006,2.9328,0.5944,0.5813,0.5586,0.5411,0.528,0.4966,0.4832,0.4743,0.43,0.4121,0.4032,0.3676,0.3496,0.3406,0.3365,0.3184,0.2914,0.2778,0.2556,0.2289,0.1974,0.1155,0.044,0.013,-0.0169,-0.0531,-0.0768,-0.0959,-0.1179,-0.1413,-0.1531,-0.1609,-0.1806,-0.2041,-0.2194,-0.243,-0.2705,-0.302,-0.3098,-0.3333,-0.3565,-0.368,-0.372,-0.368,-0.372,-0.3604,-0.3374,-0.3176,-0.3176,-0.3374,-0.3059,-0.2785,-0.2588,-0.2041,-0.1609,-0.1374,-0.0786,-0.0511,-0.0511,0.0275,0.1218,0.1807,0.2199,0.251,0.2982,0.3647,0.4194,0.4701,0.5207,0.5828,0.6483,0.6945,0.7595,0.8546,0.8899,0.9316,1.0067,1.0738,1.1409,1.2194,1.3017,1.3783,1.4533,1.5311,1.6079,1.676,1.7254,1.7735,1.8337,1.8841,1.9241,1.9769,2.0324,2.0807,2.1221,2.1498,2.1906,2.2494,2.2878,2.3138,2.3616,2.4099,2.4534,2.5047,2.5481,2.5798,2.6152,2.6527,2.6948,2.7346,2.7715,2.8063,2.8486,2.8826,2.919,0.6523,0.6393,0.6121,0.5944,0.5769,0.5453,0.5319,0.5188,0.4786,0.461,0.452,0.4344,0.4076,0.39,0.3898,0.3676,0.3361,0.3226,0.3138,0.2915,0.2647,0.1916,0.1146,0.0831,0.0512,0.0248,-0.0041,-0.0241,-0.0434,-0.0668,-0.0746,-0.0825,-0.1061,-0.1256,-0.1372,-0.1687,-0.1962,-0.2237,-0.2392,-0.2588,-0.286,-0.3017,-0.3057,-0.3017,-0.3056,-0.2979,-0.2707,-0.2472,-0.2473,-0.2668,-0.247,-0.2196,-0.1962,-0.1453,-0.1022,-0.0786,-0.0236,-0.0079,0.0079,0.0825,0.1611,0.2239,0.2591,0.2904,0.3374,0.3921,0.4426,0.4932,0.5362,0.5944,0.6637,0.7219,0.7983,0.8775,0.916,0.9582,1.0218,1.0775,1.1446,1.2187,1.301,1.3783,1.4497,1.5303,1.6044,1.6726,1.7185,1.7735,1.8347,1.8808,1.9308,1.9835,2.0356,2.0839,2.1253,2.1561,2.1968,2.2525,2.306,2.3258,2.3645,2.4187,2.4578,2.4977,2.5383,2.573,2.6043,2.6379,2.6803,2.7167,2.7514,2.789,2.8317,2.8653,2.9006,0.6928,0.6884,0.6612,0.6473,0.6387,0.5985,0.5764,0.5675,0.5275,0.5053,0.5053,0.501,0.4699,0.4389,0.4389,0.4121,0.3764,0.3765,0.3676,0.3497,0.3138,0.2594,0.2053,0.1498,0.121,0.1014,0.0702,0.0485,0.0358,0.0197,0.0118,0.0,-0.0314,-0.0471,-0.0628,-0.0942,-0.1258,-0.1492,-0.1648,-0.1844,-0.2118,-0.2275,-0.2354,-0.2354,-0.2354,-0.2275,-0.204,-0.1805,-0.1767,-0.2315,-0.1961,-0.1649,-0.1296,-0.1021,-0.0589,-0.0118,0.0118,0.0354,0.0629,0.1099,0.1884,0.2747,0.2865,0.3098,0.3645,0.4112,0.4618,0.5165,0.5479,0.6096,0.6942,0.7676,0.8289,0.8932,0.9241,0.9695,1.0331,1.0856,1.1409,1.2187,1.3003,1.3775,1.4525,1.5311,1.6079,1.676,1.7185,1.7701,1.8313,1.8808,1.933,1.9889,2.0388,2.0882,2.1265,2.1592,2.2061,2.2586,2.318,2.3539,2.3747,2.4187,2.4578,2.4948,2.5244,2.5522,2.5839,2.6204,2.6604,2.7011,2.7335,2.775,2.8195,2.8477,2.8787,0.7676,0.7632,0.7139,0.6962,0.6874,0.6476,0.6251,0.6207,0.5764,0.5542,0.5453,0.5188,0.4966,0.4877,0.4877,0.4786,0.461,0.4478,0.4255,0.3807,0.3585,0.3406,0.3002,0.2404,0.1893,0.168,0.1518,0.132,0.1132,0.103,0.0904,0.0707,0.0471,0.0275,0.0079,-0.0118,-0.0432,-0.0746,-0.0864,-0.106,-0.1375,-0.1492,-0.1571,-0.1571,-0.1571,-0.1532,-0.1452,-0.1218,-0.1139,-0.1178,-0.1139,-0.1021,-0.0864,-0.0471,-0.0118,0.0157,0.0668,0.0904,0.0864,0.1492,0.2315,0.2943,0.31,0.3258,0.3763,0.419,0.4657,0.5204,0.5631,0.6325,0.7361,0.7868,0.8441,0.9018,0.9392,0.9771,1.0406,1.0844,1.1446,1.2194,1.301,1.3783,1.4533,1.5311,1.6053,1.6726,1.7254,1.7666,1.8245,1.8841,1.9429,1.9987,2.0388,2.0914,2.1434,2.1781,2.2185,2.2616,2.3163,2.3599,2.3835,2.4099,2.4434,2.475,2.5033,2.5342,2.5674,2.5975,2.6353,2.675,2.7181,2.7575,2.7925,2.8235,2.8565,0.8408,0.8204,0.7801,0.754,0.7404,0.6966,0.6741,0.665,0.6207,0.603,0.5985,0.5764,0.5589,0.5544,0.55,0.5413,0.5146,0.4924,0.4699,0.4431,0.421,0.4123,0.4034,0.3491,0.2971,0.2518,0.225,0.2078,0.1951,0.1791,0.1649,0.1491,0.1217,0.1061,0.0904,0.0707,0.0432,0.0157,0.0,-0.0196,-0.0511,-0.0629,-0.0707,-0.0707,-0.0707,-0.0668,-0.0668,-0.0432,-0.0354,-0.0314,-0.0275,-0.0314,-0.0354,0.0,0.0354,0.0668,0.0982,0.1336,0.1414,0.1884,0.2549,0.3061,0.3178,0.3608,0.3958,0.4307,0.4735,0.5321,0.5825,0.6398,0.7629,0.7983,0.8484,0.9094,0.9468,0.9879,1.0519,1.0999,1.1477,1.2231,1.301,1.3775,1.4525,1.5346,1.6088,1.6795,1.7254,1.7701,1.8472,1.9075,1.9605,2.0129,2.0464,2.0926,2.1541,2.198,2.234,2.2708,2.3133,2.3463,2.3688,2.3953,2.4245,2.4563,2.4863,2.5188,2.5522,2.5825,2.6111,2.6525,2.6945,2.7321,2.7675,2.7999,2.8308,0.9114,0.8721,0.8416,0.8184,0.794,0.7452,0.7228,0.7139,0.6782,0.6561,0.6473,0.6473,0.6257,0.6127,0.6083,0.5902,0.5591,0.5322,0.5188,0.5146,0.4924,0.4835,0.4746,0.4514,0.4176,0.3526,0.3104,0.2911,0.2735,0.2507,0.2354,0.2235,0.1963,0.1768,0.169,0.1572,0.1335,0.1099,0.0903,0.0707,0.0471,0.0275,0.0196,0.0196,0.0196,0.0196,0.0236,0.0354,0.0432,0.0471,0.0629,0.055,0.0432,0.0511,0.0864,0.1297,0.1414,0.1649,0.1924,0.2316,0.2746,0.3139,0.3411,0.38,0.4229,0.4499,0.489,0.5398,0.598,0.6595,0.7668,0.8059,0.8518,0.9132,0.9511,1.003,1.0663,1.1186,1.1781,1.2372,1.3185,1.3985,1.4705,1.5488,1.6158,1.6795,1.7254,1.7803,1.8573,1.9341,1.9933,2.0291,2.0625,2.1149,2.1761,2.2166,2.2525,2.28,2.3133,2.3313,2.3539,2.3819,2.4099,2.439,2.4706,2.5047,2.5355,2.5661,2.5961,2.6365,2.6709,2.713,2.7448,2.776,2.8048,0.9625,0.94,0.8955,0.8649,0.8432,0.7981,0.7764,0.772,0.7448,0.718,0.6962,0.6789,0.6659,0.6435,0.6387,0.6299,0.621,0.5988,0.5858,0.5858,0.5633,0.55,0.55,0.5411,0.5218,0.4895,0.4246,0.3766,0.3514,0.3292,0.3023,0.2784,0.2628,0.2512,0.2393,0.2315,0.2198,0.2038,0.1803,0.1608,0.1412,0.1177,0.1061,0.1061,0.106,0.1061,0.11,0.11,0.114,0.1179,0.1336,0.1375,0.1335,0.1257,0.1375,0.1571,0.1883,0.2119,0.2393,0.2628,0.3059,0.3489,0.3724,0.3958,0.4345,0.4693,0.5124,0.567,0.6367,0.7096,0.7944,0.8217,0.8632,0.9241,0.9771,1.0255,1.0812,1.1446,1.212,1.2746,1.3513,1.4238,1.4919,1.563,1.6333,1.6899,1.7289,1.794,1.8707,1.9572,2.0367,2.0625,2.0807,2.1423,2.2042,2.2371,2.2678,2.2848,2.309,2.321,2.345,2.37,2.3995,2.4361,2.4591,2.4806,2.5118,2.5481,2.5811,2.615,2.6539,2.691,2.7233,2.7524,2.785,1.0427,1.0049,0.9636,0.9315,0.9034,0.85,0.8245,0.8204,0.7848,0.7628,0.7499,0.7411,0.7323,0.7183,0.7183,0.7139,0.6918,0.6615,0.6482,0.6393,0.621,0.6074,0.6077,0.6074,0.6033,0.5788,0.5275,0.4696,0.4261,0.389,0.3655,0.3528,0.3372,0.3255,0.3215,0.3176,0.3098,0.2978,0.2782,0.2585,0.235,0.2118,0.1962,0.1923,0.1923,0.1923,0.1923,0.1923,0.1923,0.1963,0.2003,0.212,0.2159,0.2159,0.2081,0.212,0.2354,0.2588,0.2746,0.2981,0.3411,0.3882,0.396,0.4192,0.4579,0.4927,0.5356,0.6057,0.6714,0.7446,0.803,0.8365,0.8818,0.9392,0.9922,1.0438,1.1068,1.1744,1.2452,1.3119,1.3731,1.4382,1.5062,1.5771,1.6542,1.7003,1.7401,1.8076,1.8808,1.9736,2.0669,2.0914,2.1106,2.1612,2.2154,2.2494,2.28,2.2982,2.312,2.3228,2.3378,2.3671,2.4011,2.439,2.4578,2.475,2.499,2.5355,2.5661,2.5948,2.6313,2.6659,2.6989,2.7325,2.764,1.1213,1.0761,1.0283,0.994,0.9651,0.9065,0.8761,0.8688,0.8376,0.8204,0.812,0.8072,0.8032,0.794,0.7852,0.7764,0.758,0.7146,0.7058,0.7013,0.6877,0.6738,0.6697,0.6697,0.6694,0.6612,0.629,0.5743,0.4992,0.4569,0.4364,0.4231,0.4073,0.4034,0.4034,0.4034,0.4036,0.3958,0.38,0.3563,0.329,0.2979,0.2744,0.2744,0.2746,0.2785,0.2784,0.2785,0.2784,0.2784,0.2784,0.2865,0.2982,0.3022,0.2982,0.2863,0.2902,0.2981,0.3137,0.3411,0.3804,0.4194,0.4233,0.4504,0.489,0.5237,0.5705,0.656,0.7142,0.7676,0.8136,0.8513,0.9046,0.9576,1.0067,1.0631,1.1335,1.2077,1.2783,1.3404,1.3949,1.4625,1.5346,1.6053,1.6795,1.7339,1.7735,1.8202,1.9008,1.9976,2.0765,2.1117,2.1466,2.1862,2.2278,2.2574,2.286,2.3133,2.3241,2.333,2.348,2.3658,2.407,2.4463,2.4664,2.4835,2.5047,2.5285,2.5633,2.5935,2.6152,2.6447,2.691,2.7196,2.7448,1.1766,1.1517,1.1019,1.0571,1.0161,0.9692,0.9358,0.9222,0.9126,0.8999,0.8736,0.8736,0.8556,0.8292,0.8032,0.7944,0.7856,0.7812,0.7764,0.7764,0.7628,0.7584,0.7676,0.772,0.7452,0.7264,0.7007,0.6418,0.5759,0.5323,0.5051,0.4927,0.4888,0.4849,0.4849,0.4849,0.4849,0.481,0.4657,0.4343,0.4029,0.3761,0.3645,0.3645,0.3645,0.3645,0.3643,0.3645,0.3604,0.3643,0.3645,0.3645,0.3724,0.3882,0.3921,0.3804,0.3604,0.3446,0.3645,0.3841,0.4075,0.4348,0.4506,0.4737,0.5201,0.5744,0.6289,0.6749,0.7292,0.7791,0.8284,0.8737,0.9236,0.9803,1.0368,1.0962,1.1632,1.2268,1.3003,1.3804,1.4346,1.5018,1.5692,1.6368,1.7038,1.7588,1.81,1.8573,1.9231,2.0237,2.0958,2.1319,2.1686,2.2092,2.2432,2.2696,2.2969,2.3223,2.3403,2.348,2.3569,2.3776,2.4157,2.4534,2.475,2.4963,2.5174,2.5397,2.5661,2.5907,2.6165,2.65,2.6899,2.7119,2.7321,1.2555,1.2075,1.1564,1.1194,1.0803,1.0229,0.9883,0.9678,0.9437,0.9218,0.913,0.913,0.8995,0.8819,0.8736,0.8688,0.8648,0.8512,0.8468,0.838,0.8245,0.8113,0.8025,0.794,0.7808,0.7712,0.7423,0.7168,0.6559,0.6099,0.5741,0.5702,0.5699,0.5661,0.5661,0.5661,0.5661,0.5583,0.5354,0.5121,0.4924,0.4654,0.4501,0.4501,0.4462,0.446,0.4462,0.4348,0.4384,0.4423,0.4387,0.4387,0.4462,0.454,0.4618,0.4618,0.4579,0.4384,0.4192,0.4229,0.4384,0.454,0.4815,0.5124,0.567,0.6251,0.6791,0.7215,0.7599,0.8059,0.8513,0.9046,0.9539,1.0067,1.0669,1.1223,1.1855,1.2489,1.3185,1.3985,1.4776,1.5382,1.6009,1.6682,1.7314,1.7886,1.8371,1.8774,1.9594,2.0625,2.1181,2.1572,2.1917,2.2259,2.2555,2.286,2.309,2.3343,2.3624,2.37,2.3688,2.3894,2.4361,2.4664,2.4892,2.5104,2.53,2.555,2.5811,2.6002,2.6218,2.6553,2.6899,2.7093,2.731,1.3335,1.2737,1.2188,1.1795,1.1425,1.0848,1.0458,1.0216,0.9839,0.9694,0.9607,0.9563,0.9432,0.9345,0.9262,0.9218,0.9213,0.9087,0.9043,0.8863,0.8684,0.8552,0.8508,0.838,0.8265,0.8134,0.7968,0.7712,0.745,0.7072,0.6668,0.6398,0.6318,0.636,0.636,0.6356,0.6318,0.6282,0.6012,0.5857,0.5741,0.547,0.5351,0.5273,0.5273,0.5273,0.5201,0.5087,0.5085,0.5049,0.5012,0.4973,0.5087,0.5126,0.5126,0.5126,0.5165,0.5087,0.4854,0.4774,0.4776,0.4932,0.5204,0.5631,0.6138,0.6714,0.7134,0.7442,0.7983,0.836,0.8775,0.9311,0.9841,1.0363,1.0925,1.1477,1.2107,1.282,1.3477,1.4201,1.4991,1.57,1.6333,1.6959,1.7579,1.8192,1.8664,1.9042,1.9998,2.1042,2.1466,2.1855,2.2185,2.2494,2.2769,2.303,2.3241,2.3492,2.3772,2.392,2.3894,2.4203,2.4664,2.492,2.5104,2.5328,2.5605,2.577,2.5934,2.6177,2.6418,2.6606,2.6884,2.7093,2.7335,1.4052,1.3709,1.3028,1.2443,1.2026,1.1477,1.1111,1.0869,1.0639,1.0516,1.0386,1.0168,0.982,0.9646,0.9519,0.9432,0.9345,0.9301,0.9345,0.9301,0.9213,0.917,0.9126,0.9017,0.8948,0.8781,0.8484,0.835,0.825,0.7844,0.7381,0.6938,0.6938,0.6903,0.6903,0.6942,0.6938,0.6865,0.6676,0.6556,0.6479,0.6282,0.6125,0.6125,0.6086,0.6047,0.5864,0.5825,0.5747,0.5673,0.5598,0.5598,0.5673,0.5673,0.567,0.5709,0.5712,0.567,0.5515,0.5401,0.5479,0.5637,0.587,0.6103,0.6412,0.7061,0.7403,0.7633,0.8212,0.8699,0.9079,0.9533,1.0067,1.0669,1.1223,1.1818,1.2482,1.3222,1.3884,1.4525,1.524,1.6026,1.6742,1.7364,1.7842,1.8428,1.8965,1.9374,2.0474,2.1454,2.1781,2.2123,2.2432,2.2726,2.3,2.3241,2.3522,2.373,2.3966,2.4054,2.4099,2.4505,2.492,2.5342,2.5564,2.5757,2.5893,2.6056,2.6245,2.6418,2.663,2.6832,2.7041,2.7299,2.7529,1.4729,1.4346,1.4064,1.3528,1.2717,1.2058,1.1642,1.1366,1.0922,1.0733,1.0684,1.0511,1.0381,1.0255,1.0212,1.0168,1.0168,1.0168,1.0038,0.9912,0.9777,0.965,0.9519,0.9357,0.9152,0.895,0.8807,0.8621,0.8387,0.8267,0.8047,0.7714,0.7638,0.7638,0.7638,0.7599,0.7599,0.7561,0.7446,0.7326,0.7288,0.7134,0.7015,0.7015,0.7015,0.6903,0.6718,0.6556,0.6479,0.6402,0.6254,0.6254,0.6328,0.6328,0.6328,0.6328,0.6328,0.6289,0.6099,0.587,0.5676,0.5828,0.6103,0.6412,0.6641,0.7215,0.7714,0.8059,0.8441,0.8927,0.9539,0.9879,1.0325,1.0925,1.1521,1.215,1.282,1.3557,1.4209,1.4812,1.5594,1.6377,1.7097,1.7808,1.8216,1.8664,1.9198,1.9824,2.0924,2.18,2.2123,2.234,2.2635,2.2909,2.315,2.345,2.3772,2.3966,2.4128,2.4245,2.4361,2.4664,2.509,2.5578,2.5935,2.6002,2.6138,2.634,2.65,2.6659,2.6843,2.7041,2.7273,2.7503,2.7705,1.5439,1.5159,1.4968,1.4332,1.3378,1.2811,1.2336,1.1964,1.1465,1.1039,1.0911,1.0963,1.0871,1.0758,1.077,1.0686,1.0623,1.0603,1.0554,1.0424,1.0212,1.0081,0.9951,0.9822,0.9676,0.9289,0.9124,0.9012,0.8746,0.8548,0.8498,0.8484,0.845,0.8369,0.8178,0.8255,0.8289,0.8212,0.8169,0.805,0.805,0.794,0.7791,0.7791,0.7748,0.7595,0.7369,0.7211,0.7092,0.7019,0.6945,0.6945,0.7022,0.7057,0.7057,0.7022,0.6984,0.6907,0.6598,0.6293,0.5983,0.6138,0.6447,0.6756,0.7061,0.7446,0.7944,0.8403,0.8784,0.9241,0.9922,1.0255,1.07,1.1298,1.1972,1.2599,1.3149,1.3811,1.4453,1.5062,1.5842,1.6586,1.7442,1.8182,1.8921,1.932,1.9758,2.0377,2.121,2.1987,2.2463,2.2647,2.2818,2.306,2.3271,2.3628,2.3966,2.4173,2.4347,2.4463,2.4635,2.4948,2.5342,2.588,2.6165,2.6204,2.6379,2.6606,2.6727,2.6846,2.7067,2.7325,2.7478,2.769,2.7855,1.619,1.6096,1.5622,1.4848,1.4028,1.3673,1.3281,1.2802,1.2422,1.1932,1.1445,1.1596,1.1404,1.1035,1.1154,1.1097,1.0968,1.0878,1.0814,1.0771,1.0771,1.0684,1.0598,1.0509,1.0183,1.0054,0.9801,0.9537,0.9248,0.9146,0.917,0.9203,0.917,0.898,0.8479,0.8589,0.8665,0.8665,0.8661,0.8665,0.8627,0.8589,0.8518,0.8403,0.8403,0.8212,0.7974,0.7897,0.7783,0.7633,0.7595,0.7561,0.7522,0.7518,0.7446,0.7292,0.7257,0.7142,0.6907,0.6676,0.656,0.6563,0.6795,0.7103,0.7446,0.7834,0.8212,0.8665,0.916,0.9582,1.011,1.0556,1.1074,1.1706,1.2378,1.2973,1.3484,1.4137,1.4812,1.548,1.6017,1.6656,1.7647,1.8553,1.9452,2.002,2.0421,2.0999,2.1663,2.2161,2.2665,2.2878,2.303,2.3271,2.3539,2.3865,2.4157,2.4363,2.4551,2.4721,2.4977,2.5314,2.5771,2.6233,2.6394,2.6459,2.6686,2.6884,2.7067,2.7248,2.7412,2.76,2.7765,2.789,2.8039,1.6864,1.6683,1.6346,1.5913,1.5298,1.4437,1.395,1.3691,1.3184,1.2693,1.2367,1.2411,1.2355,1.2137,1.1926,1.1877,1.1784,1.1592,1.151,1.137,1.1332,1.1154,1.1025,1.0897,1.062,1.0146,0.9963,0.992,0.9478,0.9544,0.962,0.9657,0.9771,0.9544,0.9165,0.9051,0.9094,0.9094,0.9089,0.9089,0.9127,0.9127,0.9094,0.9013,0.8975,0.8856,0.8618,0.858,0.847,0.8322,0.8284,0.8208,0.8136,0.8093,0.7983,0.7834,0.7795,0.7642,0.7369,0.7099,0.6907,0.6945,0.7065,0.7334,0.7522,0.8021,0.8437,0.8927,0.9463,0.9916,1.0513,1.0812,1.1298,1.2003,1.2636,1.3222,1.3804,1.4561,1.5275,1.5982,1.6586,1.751,1.8462,1.9121,1.9944,2.0506,2.0903,2.1328,2.1956,2.2365,2.2836,2.306,2.3271,2.3509,2.3789,2.407,2.4332,2.4549,2.4778,2.5005,2.5328,2.5633,2.6071,2.6527,2.6633,2.6738,2.6948,2.7196,2.7452,2.7655,2.779,2.7875,2.7989,2.8063,2.8162,1.752,1.7347,1.7106,1.6817,1.6452,1.5431,1.4839,1.448,1.3863,1.3423,1.3241,1.3266,1.3209,1.3058,1.2896,1.2676,1.2607,1.2282,1.2112,1.1935,1.1811,1.1639,1.1467,1.13,1.1058,1.0557,1.0388,1.0316,0.9976,0.9916,1.003,1.0218,1.0363,1.025,0.9954,0.9879,0.9728,0.9765,0.9765,0.9771,0.9728,0.9728,0.9695,0.9657,0.9582,0.9506,0.9344,0.9268,0.9231,0.9084,0.9008,0.8894,0.8784,0.867,0.8556,0.8408,0.814,0.7987,0.7718,0.7599,0.7484,0.7403,0.7411,0.7492,0.7757,0.8212,0.8708,0.9198,0.9695,1.025,1.0775,1.1074,1.1706,1.2409,1.3032,1.3622,1.4201,1.4919,1.5594,1.6333,1.7097,1.8124,1.9175,1.9791,2.0442,2.0892,2.1348,2.18,2.2216,2.2622,2.3005,2.3228,2.348,2.373,2.3966,2.4245,2.4476,2.4706,2.4962,2.5257,2.5481,2.5785,2.6286,2.6738,2.6832,2.6963,2.7233,2.7463,2.773,2.7955,2.8137,2.8186,2.821,2.8284,2.8372,1.8125,1.8071,1.7792,1.7483,1.7181,1.6395,1.5731,1.5114,1.4578,1.4236,1.401,1.4263,1.4167,1.3744,1.3598,1.3383,1.3085,1.2702,1.2521,1.2406,1.2332,1.216,1.208,1.2015,1.1682,1.1444,1.1227,1.0948,1.057,1.0588,1.07,1.0775,1.0881,1.0925,1.0887,1.0775,1.0588,1.0475,1.0406,1.0406,1.0363,1.0443,1.0331,1.0255,1.0212,1.0143,1.003,0.9954,0.9846,0.9733,0.9657,0.9506,0.9397,0.9322,0.9089,0.8746,0.8369,0.8217,0.8102,0.8059,0.8021,0.7906,0.7872,0.7953,0.8178,0.8513,0.897,0.9501,0.9992,1.0513,1.1031,1.1626,1.2224,1.2886,1.3586,1.4129,1.4605,1.5248,1.5885,1.6586,1.7304,1.8259,1.9363,2.015,2.0764,2.1242,2.1694,2.213,2.2543,2.2896,2.3228,2.345,2.37,2.392,2.4171,2.4405,2.4607,2.4835,2.5173,2.5439,2.5688,2.5921,2.642,2.6791,2.6963,2.7196,2.7503,2.7781,2.8005,2.8226,2.8356,2.8381,2.8356,2.8493,2.8589,1.8455,1.8182,1.7819,1.741,1.7079,1.6697,1.6288,1.5872,1.5685,1.5511,1.5244,1.5329,1.508,1.4793,1.4462,1.4104,1.3748,1.3379,1.3174,1.3052,1.2966,1.2887,1.2845,1.2717,1.2331,1.1967,1.1688,1.1576,1.1258,1.126,1.1335,1.1446,1.1521,1.1669,1.1706,1.1744,1.1409,1.1149,1.1037,1.0962,1.0956,1.0999,1.0925,1.085,1.0844,1.0775,1.07,1.0588,1.0481,1.0443,1.0293,1.0143,0.996,0.9809,0.9582,0.917,0.8784,0.8513,0.8475,0.825,0.8178,0.8289,0.825,0.8327,0.8513,0.8813,0.9231,0.9728,1.0293,1.085,1.1403,1.2003,1.2629,1.3295,1.3949,1.4525,1.5026,1.5665,1.6342,1.7157,1.7842,1.8721,1.9802,2.041,2.1019,2.1526,2.2006,2.2439,2.2805,2.3138,2.3437,2.3671,2.3865,2.4112,2.4303,2.4549,2.475,2.4977,2.5313,2.5592,2.5688,2.6003,2.6486,2.6907,2.7207,2.7503,2.7806,2.8029,2.8177,2.8381,2.8525,2.8525,2.8565,2.866,2.8732,1.8685,1.8326,1.8044,1.7653,1.7285,1.7087,1.6795,1.655,1.631,1.6125,1.5994,1.5874,1.5746,1.5488,1.503,1.4707,1.4532,1.4038,1.3808,1.3766,1.373,1.3597,1.3512,1.3425,1.3083,1.2615,1.2311,1.2221,1.1877,1.1855,1.1929,1.2077,1.2194,1.2268,1.2342,1.2378,1.2268,1.1972,1.1713,1.1595,1.1558,1.1558,1.1521,1.1446,1.144,1.144,1.1366,1.1186,1.1149,1.1074,1.0887,1.07,1.0443,1.018,0.9916,0.9544,0.9279,0.9008,0.8856,0.8746,0.8632,0.8627,0.8703,0.8861,0.9013,0.9236,0.9576,0.9992,1.0588,1.1149,1.1744,1.2378,1.3003,1.3666,1.4274,1.4911,1.5515,1.6123,1.6915,1.7774,1.8586,1.9419,2.015,2.0732,2.1305,2.1819,2.2328,2.2726,2.303,2.3288,2.3628,2.3878,2.407,2.4261,2.4492,2.4692,2.492,2.5174,2.5481,2.5702,2.573,2.6071,2.6645,2.7115,2.7499,2.7765,2.7989,2.8088,2.8235,2.8477,2.8668,2.8692,2.8716,2.8771,2.8818,1.8754,1.8364,1.8339,1.7997,1.7656,1.7435,1.7234,1.7011,1.6616,1.6397,1.6322,1.6182,1.61,1.5956,1.5552,1.5303,1.5049,1.4656,1.4475,1.4482,1.4349,1.4265,1.4188,1.4099,1.3742,1.3407,1.3132,1.2847,1.2452,1.2372,1.2489,1.2636,1.2746,1.2826,1.2973,1.3076,1.3003,1.2922,1.2666,1.2482,1.2298,1.2298,1.2261,1.2114,1.204,1.2003,1.1855,1.1737,1.1706,1.1552,1.1403,1.1223,1.085,1.0519,1.0218,0.9992,0.9771,0.9506,0.9311,0.9203,0.9203,0.9203,0.9241,0.9316,0.943,0.9506,0.9809,1.0293,1.0887,1.1558,1.215,1.2849,1.3513,1.4165,1.4776,1.5374,1.5974,1.6707,1.7594,1.8375,1.9077,1.9846,2.0377,2.0955,2.1537,2.2111,2.2574,2.3,2.33,2.3509,2.3776,2.4083,2.4245,2.4434,2.4635,2.4877,2.5145,2.5411,2.5688,2.5921,2.6016,2.6379,2.6803,2.7295,2.774,2.7915,2.8088,2.8235,2.8381,2.8549,2.8716,2.8834,2.8889,2.8897,2.892,1.8777,1.8288,1.7846,1.7573,1.7449,1.7399,1.7374,1.7283,1.72,1.7005,1.6843,1.6749,1.6622,1.6382,1.6085,1.5845,1.5575,1.5342,1.5193,1.5144,1.5061,1.4943,1.4866,1.4845,1.4411,1.3886,1.3563,1.3376,1.2989,1.2936,1.301,1.3119,1.3266,1.3455,1.3528,1.363,1.3695,1.3659,1.355,1.3185,1.2856,1.2783,1.2709,1.2673,1.2643,1.2606,1.2489,1.2409,1.2261,1.2114,1.1929,1.1669,1.126,1.0999,1.0775,1.055,1.0255,0.9954,0.9733,0.9652,0.962,0.9582,0.9582,0.962,0.9657,0.9771,1.011,1.0631,1.1223,1.1892,1.2556,1.3288,1.3977,1.4625,1.5275,1.5833,1.6429,1.7354,1.8273,1.8944,1.9584,2.0107,2.0624,2.1178,2.1757,2.2285,2.2744,2.3168,2.3509,2.3776,2.3998,2.4274,2.4419,2.462,2.482,2.5047,2.5313,2.5508,2.5771,2.6016,2.6286,2.6777,2.7229,2.759,2.797,2.8103,2.8235,2.8405,2.8549,2.8692,2.8787,2.8889,2.8998,2.9029,2.9045,1.8774,1.8307,1.785,1.7595,1.7546,1.7546,1.7473,1.7392,1.7392,1.7326,1.7151,1.709,1.6954,1.6789,1.6564,1.6392,1.6121,1.594,1.585,1.585,1.5775,1.5665,1.5582,1.5526,1.5058,1.4535,1.4045,1.3725,1.3448,1.3513,1.3622,1.363,1.3855,1.3928,1.3964,1.4065,1.4137,1.4065,1.4137,1.3876,1.3448,1.3404,1.3302,1.3273,1.3163,1.309,1.29,1.2783,1.2673,1.2526,1.2378,1.215,1.1855,1.1595,1.1372,1.1074,1.0775,1.0475,1.0218,1.0105,1.0073,1.0073,1.0035,1.0105,1.0293,1.0406,1.0519,1.1074,1.1632,1.2261,1.282,1.3477,1.423,1.4919,1.5665,1.6333,1.7192,1.8148,1.8854,1.9429,2.002,2.0495,2.1019,2.1537,2.2111,2.2574,2.3017,2.3378,2.3717,2.4011,2.4261,2.4463,2.4635,2.482,2.5005,2.5216,2.5453,2.5674,2.5853,2.6206,2.6553,2.7126,2.765,2.7905,2.8079,2.821,2.8356,2.8525,2.8653,2.8795,2.8865,2.892,2.9029,2.9137,2.916,1.8717,1.842,1.8201,1.7991,1.7821,1.7781,1.7708,1.7514,1.7473,1.7473,1.7499,1.7327,1.7221,1.7057,1.6902,1.682,1.673,1.6599,1.6517,1.6484,1.6368,1.6327,1.6245,1.6124,1.5574,1.4979,1.438,1.4153,1.3964,1.4021,1.4057,1.4165,1.4201,1.4201,1.4238,1.4274,1.4346,1.4382,1.4418,1.4346,1.4201,1.4129,1.3848,1.3674,1.3564,1.3382,1.3156,1.3083,1.3039,1.2936,1.2826,1.2599,1.2409,1.2157,1.1861,1.1595,1.1372,1.0999,1.0706,1.0625,1.0625,1.0663,1.0625,1.0669,1.085,1.1037,1.1186,1.1558,1.2114,1.2629,1.3149,1.3804,1.4553,1.5357,1.614,1.6897,1.7881,1.8767,1.9299,1.9868,2.0344,2.0846,2.1376,2.1901,2.2377,2.2836,2.3241,2.3611,2.3966,2.4245,2.4492,2.4664,2.4835,2.5033,2.5174,2.5383,2.5619,2.5798,2.6002,2.6379,2.6817,2.7295,2.77,2.8029,2.8201,2.8308,2.8453,2.8621,2.8771,2.8873,2.8943,2.9013,2.9106,2.919,2.9236,1.8843,1.8612,1.858,1.8451,1.8273,1.8273,1.8112,1.7919,1.7878,1.7878,1.7878,1.7838,1.7668,1.7351,1.731,1.727,1.7229,1.7139,1.7188,1.7188,1.7025,1.6984,1.6805,1.649,1.5942,1.5289,1.4595,1.4206,1.431,1.4389,1.4425,1.4489,1.4677,1.4784,1.4947,1.4911,1.4875,1.484,1.4875,1.4875,1.474,1.4525,1.4129,1.3985,1.3985,1.3956,1.3884,1.3876,1.3775,1.3564,1.3309,1.3119,1.2929,1.2709,1.2452,1.2194,1.1966,1.1558,1.1298,1.1223,1.1254,1.1403,1.1335,1.1149,1.1372,1.1669,1.1892,1.2268,1.2783,1.3215,1.3768,1.4482,1.5232,1.6062,1.6886,1.76,1.8422,1.9008,1.9532,2.0083,2.0583,2.108,2.1596,2.2096,2.25,2.295,2.333,2.3717,2.4112,2.4419,2.4706,2.4892,2.5061,2.5118,2.5202,2.5508,2.5729,2.5921,2.6177,2.6592,2.7,2.7346,2.774,2.8201,2.8348,2.8405,2.8573,2.8724,2.8803,2.892,2.9029,2.9098,2.919,2.9282,2.9344]}]]